GFSNE_prec_radar_000.txt.gz
Reflectivity
1 11 9 6 1 -0 8 -5 -20 -20 -18 -5 -16 -20 -12 -17 -9 -16 -20 -20 -20 -20 -20 -20 -20 -20 -20 -20 -20 -20 -20 -20 -20 -20 -17 9 10 -13
-16 -15 0 6 5 -4 6 12 9 7 -9 -20 -20 -4 -5 1 -9 -19 -20 -20 -20 -20 -20 -20 -20 -20 -20 -20 -20 -20 -20 -20 -16 -20 10 13 -13 -6
-20 4 -3 4 9 11 7 13 6 9 11 -8 3 2 -16 -20 -19 -7 -20 -20 -20 -20 -20 -20 -20 -20 -20 -20 -20 -20 -20 -19 -20 -20 -14 -20 -16 9
-20 -20 -20 -11 -1 10 17 24 16 13 15 8 10 -20 -20 -20 -7 -20 -20 -20 -20 -20 -20 -20 -20 -20 -20 -20 -20 -20 -20 -20 -20 -20 -20 -20 -19 -15
-20 -20 -20 3 -18 1 19 25 25 9 -14 11 1 -20 -20 -20 -20 -20 -20 -20 -20 -20 -20 -20 -20 -20 -20 -20 -20 -20 -20 -20 -20 -20 4 -20 -8 -4
-20 -20 -20 -20 -11 1 11 7 18 7 -3 25 -8 -20 -20 -20 -17 -13 -20 -20 -20 -20 -20 -20 -20 -20 -20 -20 -20 -20 -20 -20 -20 -6 -20 -8 3 6
-20 -20 -19 -20 10 9 6 10 21 12 -15 -12 -20 -20 -20 -20 -11 -20 -20 -20 -20 -20 -20 -20 -20 -20 -20 -20 -20 -20 -20 -20 0 -20 -20 -0 -15 5
5 -20 -20 8 -6 10 -2 19 32 32 7 33 -20 -20 -20 -20 -20 -20 -20 -20 -20 -20 -20 -20 -20 -20 -20 -20 -20 -20 -20 -20 -20 -20 -20 -15 2 -20
13 -5 4 -8 -4 29 -1 22 29 34 29 24 -18 -20 -20 -13 -20 -20 -20 -20 -20 -20 -20 -20 -20 -20 -20 -20 -20 -20 -20 -20 -20 -20 -20 -20 -12 -13
5 1 4 9 13 3 30 2 12 27 26 30 -19 -4 -1 -12 -20 -20 -20 -20 -20 -20 -13 -20 -20 -20 -20 -20 -20 -20 -20 -20 -20 -20 -20 -20 -20 -13
2 15 -7 9 10 15 28 23 -6 22 19 4 1 -7 6 14 -20 -20 -20 -20 -13 -15 -20 -20 -20 -20 -20 -20 -20 -20 -20 -20 -20 -20 -20 -20 -20 -20
-6 13 15 17 19 18 28 28 31 15 29 -15 24 20 12 -7 5 -20 -20 -13 9 -2 -20 -20 -20 -20 -20 -20 -20 -20 -20 -20 -20 -20 -20 -20 -20 -20
-2 12 16 17 18 16 27 21 5 31 28 30 27 19 2 -4 1 -20 -20 6 9 -4 -20 -20 -20 -20 -20 -20 -20 -20 -20 -20 -20 -20 -20 -20 -20 -20
6 -6 8 14 11 8 21 26 28 31 24 30 -4 12 7 5 5 -20 -4 10 3 -14 -20 -20 -10 -17 -10 -20 -20 -20 -20 -20 -20 -20 -20 -20 -20 -20
-18 6 15 15 16 14 20 25 18 26 25 19 -12 2 23 -3 -3 -19 8 8 5 -20 -20 -18 -2 -5 -2 -20 -20 -20 -20 -20 -20 -20 -20 -20 -20 -20
-19 -14 14 19 23 18 20 21 24 25 23 14 -16 26 11 -16 -20 7 10 10 -16 -20 -20 -20 -20 -3 -10 -20 -20 -20 -20 -20 -20 -20 -20 -20 -20 -20
6 -13 10 1 7 -0 -6 20 18 12 -1 8 5 27 9 -5 -1 7 10 3 -19 -20 -20 -20 -20 -20 -20 -20 -20 -20 -20 -20 -20 -20 -20 -20 -20 -20
25 9 -19 -11 12 16 22 21 22 9 -17 19 27 17 10 -20 9 11 7 -19 -20 -20 -20 -20 -20 -20 -20 -20 -20 -20 -20 -20 -20 -20 -20 -20 -20 -20
21 23 -10 -3 5 -4 17 20 23 15 -4 25 26 14 -2 8 7 7 -10 -18 -20 -20 -20 -20 -20 -20 -20 -20 -20 -20 -20 -20 -20 -20 -20 -20 -20 -20
33 35 12 7 14 12 20 29 21 17 26 27 15 7 14 -6 5 -0 -20 -20 -20 -20 -20 -20 -20 -20 -20 -20 -20 -20 -20 -20 -20 -20 -20 -20 -20 -20
36 33 32 8 21 23 30 31 22 28 28 23 7 18 -10 -0 2 -20 -20 -20 -20 -20 -20 -20 -20 -20 -20 -20 -20 -20 -20 -20 -20 -20 -20 -20 -20 -20
33 32 37 29 17 25 32 37 30 31 21 11 26 1 -15 3 -20 -20 -20 -20 -20 -20 -20 -20 -20 -20 -20 -20 -20 -20 -20 -20 -20 -20 -20 -20 -14 -18
20 31 32 28 15 17 21 27 32 23 12 26 18 -14 4 -16 -20 -20 -20 -20 -20 -20 -20 -20 -20 -20 -20 -20 -20 -20 -20 -20 -20 -20 -12 -8 -4 10

GFSNE_prec_radar_003.txt.gz
Reflectivity
-20 -20 -20 -20 -20 -20 -20 -6 -16 -8 -10 -14 10 15 13 -2 -20 -20 -20 -20 -20 -20 -20 -20 -20 -20 -20 -20 -20 -20 -20 -20 -20 -20 -20 -20 -20 10
-20 -20 -20 -19 -20 -20 -20 -13 8 6 -10 3 3 21 14 1 -3 -20 -2 -19 -20 -20 -20 -20 -20 -20 -20 -20 -20 -20 -20 -20 -20 -20 -20 -15 2 -8
-20 -20 -20 -19 -20 -8 -20 -20 -6 6 9 -20 -16 12 5 -0 -3 -12 4 -20 -9 -11 -20 -20 -20 -20 -20 -20 -20 -20 -20 -20 -20 -20 -0 -20 -20 -20
-20 4 -10 -13 -12 -20 -20 -20 -9 -15 14 -20 25 25 11 -20 -8 1 -20 -20 -20 -20 -20 -20 -20 -20 -20 -20 -20 -20 -20 -20 -20 -20 -20 -20 -10 -12
-10 4 7 6 -15 -20 -8 -16 -20 18 17 -15 23 21 18 31 -20 -20 -20 -18 -20 -6 -20 -20 -20 -20 -20 -20 -20 -20 -20 -20 -20 -20 -20 -11 -20 -17
-20 -19 1 10 10 1 -15 -11 -20 4 17 5 27 21 17 17 23 -20 -0 -19 -20 -20 -20 -20 -20 -20 -20 -20 -20 -20 -20 -20 -20 -20 -2 -20 -20 3
4 9 5 -18 16 8 10 16 -20 17 21 22 28 15 14 24 26 23 6 -8 -20 -18 -20 -20 -20 -20 -20 -20 -20 -20 -20 -20 -20 -8 -15 -20 -20 -20
-20 0 -6 -20 6 15 17 10 5 28 22 27 23 30 5 32 20 3 8 -2 -20 -20 -20 -20 -20 -20 -20 -20 -20 -20 -20 -20 -20 0 -20 -20 -20 -20
-20 -16 4 8 14 14 11 14 20 19 22 24 28 30 -9 27 22 25 5 -5 -20 -20 -20 -20 -20 -20 -20 -20 -20 -20 -20 -20 -20 -20 -20 -20 -20 -20
-20 -15 8 -11 3 3 -10 10 -2 1 24 27 29 31 10 5 26 30 20 -9 -20 -20 -20 -20 -18 -20 -20 -20 -20 -20 -20 -20 -20 -20 -20 -20 -20 -20
-20 -15 -8 9 10 15 24 21 21 6 23 30 33 29 10 18 21 20 -18 17 8 -20 -20 -20 -17 -20 -20 -20 -20 -20 -20 -20 -20 -20 -20 -20 -20 -20
-15 -7 -18 9 18 20 20 23 29 12 21 29 32 25 25 32 35 20 35 37 -7 -20 -15 -15 -20 -20 -20 -20 -20 -20 -20 -20 -20 -20 -20 -20 -20 -20
6 -20 26 34 20 16 17 28 22 19 22 27 32 31 30 23 39 14 31 30 3 -20 -19 -20 -20 -20 -20 -20 -20 -20 -20 -20 -20 -20 -20 -20 -20 -20
-20 -20 -17 22 27 9 19 21 28 24 14 10 37 36 31 36 29 11 22 11 -20 -20 -20 -20 -20 -20 -20 -20 -20 -20 -20 -20 -20 -20 -20 -20 -20 -20
-18 -0 3 16 19 8 10 30 23 14 -4 21 38 42 36 7 30 4 29 12 -20 -20 -20 -20 -20 -20 -8 -20 -20 -20 -20 -20 -20 -20 -20 -20 -20 -20
6 -3 10 -13 1 12 12 20 17 25 18 19 23 28 23 13 20 19 28 7 -11 -20 -20 -20 -20 -19 -18 -20 -20 -20 -20 -20 -20 -20 -20 -20 -20 -20
3 -5 -15 -11 4 -14 4 16 24 21 9 22 20 28 29 -7 17 25 21 -20 -20 -20 -20 -20 -20 -20 -20 -20 -20 -20 -20 -20 -20 -20 -20 -20 -20 -20
-4 -5 3 13 16 11 8 21 12 20 27 30 23 18 8 15 30 19 -16 -20 -20 -20 -20 -20 -20 -20 -20 -20 -20 -20 -20 -20 -20 -20 -20 -20 -20 -20
1 13 26 28 25 31 23 24 23 30 35 44 36 21 19 26 17 -16 -20 -20 -20 -20 -20 -20 -20 -20 -20 -20 -20 -20 -20 -20 -20 -20 -20 -20 -20 -20
-3 27 32 32 35 23 24 18 21 28 20 32 36 23 30 25 17 -20 -20 -20 -20 -20 -20 -20 -20 -20 -20 -20 -20 -20 -20 -20 -20 -20 -20 -20 -20 -20
-7 18 37 36 37 28 13 11 15 20 25 32 23 25 29 11 -20 -20 -20 -20 -20 -20 -20 -20 -20 -20 -20 -20 -20 -20 -20 -20 -20 -20 -16 -8 -20 -20
-13 14 26 31 28 16 11 15 19 21 25 26 29 28 16 -20 -20 -20 -20 -20 -20 -20 -20 -20 -20 -20 -20 -20 -20 -20 -20 -20 -20 -20 -20 -17 -20 -20
-16 -4 25 31 26 21 23 20 23 21 21 27 30 22 -18 -20 -20 -20 -20 -20 -20 -20 -20 -20 -20 -20 -20 -20 -20 -20 -20 -20 -20 -10 7 14 11 6

GFSNE_prec_radar_006.txt.gz
Reflectivity
10 13 12 5 2 -20 -20 -20 -20 -20 -20 -20 -20 -20 -9 -18 6 8 -20 -20 -20 -20 -20 -20 -20 -20 -20 -20 -20 -20 -20 -20 -20 -20 -20 -20 -20 -19
12 12 11 6 6 -1 -12 -12 -7 -20 -20 -20 -20 -20 -20 -11 29 24 -7 -20 -20 -20 -16 -20 -20 -20 -20 -20 -20 -20 -20 -20 -20 -20 -20 -20 -20 -20
25 27 26 23 9 6 3 18 -1 -10 13 -20 -20 3 -20 -20 10 30 21 9 -13 -20 -15 -1 -20 -20 -20 -20 -20 -20 -20 -20 -20 -20 -20 -20 -20 -16
-20 14 23 28 30 30 -1 9 22 20 25 0 -17 -2 -20 -20 -2 29 34 25 24 -20 4 -20 -20 -20 -20 -20 -20 -20 -20 -20 -20 -20 -20 -20 -20 -20
-20 -19 -20 -8 -0 3 12 1 10 22 20 22 -4 -0 16 -6 12 29 35 30 24 14 4 0 -16 -19 -18 -20 -20 -20 -20 -20 -20 -20 -20 -20 -20 -8
-20 -20 -20 -20 -20 -7 12 10 27 15 27 7 12 16 3 1 24 26 30 21 30 17 2 4 -19 5 -20 -20 -20 -20 -20 -20 -20 -20 -20 -20 -5 -20
-20 -20 -20 -20 -20 -18 19 10 32 28 12 24 17 24 22 -20 20 28 33 22 24 21 -8 10 -7 -20 -20 -20 -20 -20 -20 -20 -20 -20 -20 -18 -20 -20
-20 -20 -20 -20 -20 -20 9 15 17 30 30 20 38 22 18 17 21 30 34 32 33 6 21 9 1 -20 -19 -20 -20 -20 -20 -20 -20 -20 -20 -11 -20 -20
-20 -20 -20 -16 -12 -16 -20 -3 -5 6 26 29 23 29 19 4 17 29 32 29 29 23 20 25 12 -20 -20 -20 -20 -20 -20 -20 -20 -20 -20 -20 -20 -15
-20 -20 -2 -19 4 12 11 -12 -19 7 13 18 16 17 19 33 43 29 33 31 20 22 37 23 8 17 -20 -20 -20 -20 -20 -20 -20 -20 -20 -20 -20 -20
-20 -20 -14 -20 -20 -19 3 3 -19 10 -6 -20 21 18 34 14 26 34 34 26 29 27 23 22 -8 -20 -20 -20 -20 -20 -20 -20 -20 -20 -20 -20 -20 -20
-20 -20 -20 -20 -20 -10 7 -18 7 -10 5 -17 16 16 28 30 33 38 25 27 28 40 31 29 9 -20 -20 -20 -20 -20 -20 -20 -20 -20 -20 -20 -20 -20
-20 -20 -20 -16 -20 -20 -20 -20 19 16 13 23 -3 16 29 28 33 27 42 41 33 32 29 -1 -20 -20 -20 -20 -20 -20 -20 -20 -20 -20 -20 -20 -20 -20
-20 -20 -20 8 5 -17 -13 -13 8 28 2 -2 23 28 30 26 37 33 33 36 32 24 22 21 0 -20 -20 -20 -20 -20 -20 -20 -20 -20 -20 -20 -20 -20
-20 -20 -19 -19 15 9 5 -20 -7 15 12 18 35 22 37 38 31 35 34 28 19 18 14 -4 -20 -20 -20 -20 -20 -20 -20 -20 -20 -20 -20 -20 -20 -20
-20 -20 12 14 16 15 12 10 16 22 11 32 28 24 34 31 32 32 11 23 31 6 -20 -20 -20 -14 -20 -20 -20 -20 -20 -20 -20 -20 -20 -20 -20 -20
3 -6 -14 -20 -20 -20 -6 16 20 23 20 28 25 28 29 36 22 29 13 23 15 -19 -20 -20 -20 -20 -20 -20 -20 -20 -20 -20 -20 -20 -20 -20 -20 -20
-7 5 -13 -10 -20 -11 18 22 20 21 15 10 16 26 28 30 24 25 22 16 -17 -20 -20 -20 -20 -20 -20 -20 -20 -20 -20 -20 -20 -20 -20 -20 -20 -20
-6 3 -2 7 15 16 11 14 8 6 17 15 15 25 29 29 26 23 17 -2 -20 -20 -20 -20 -20 -20 -20 -20 -20 -20 -20 -20 -20 -20 -20 -20 -20 -20
-20 -19 -10 15 22 26 25 13 17 22 23 14 16 19 27 31 29 22 2 -20 -20 -20 -20 -20 -20 -20 -20 -20 -20 -20 -20 -20 -20 -20 -20 -20 -20 -20
-20 -19 -14 8 24 31 23 14 19 17 18 25 20 20 27 28 25 10 -18 -19 -18 -20 -20 -20 -20 -20 -20 -20 -20 -20 -20 -20 -20 -20 -20 -17 -13 -13
-18 1 -8 -1 23 30 16 10 14 19 18 18 21 20 24 22 10 -18 -20 -20 -20 -20 -20 -20 -20 -20 -20 -20 -20 -20 -20 -20 -20 -10 5 5 -12 5
-3 -12 -10 -2 6 25 16 17 20 23 23 24 23 22 23 12 -20 -20 -20 -20 -20 -20 -20 -20 -20 -20 -20 -20 -20 -20 -20 -20 -20 -20 -20 -20 -7 3

GFSNE_prec_radar_009.txt.gz
Reflectivity
-13 27 27 27 26 24 24 26 25 24 9 8 -19 -17 -15 -20 -18 -20 -20 -20 19 17 -20 -20 -20 -20 -20 -20 -20 -20 -20 -20 -20 -20 -20 -20 -20 -20
-20 -17 -15 19 26 26 28 26 27 25 22 16 -18 -13 5 -10 -20 -20 -20 -4 -9 -13 18 11 -10 5 -0 -4 -14 -12 -20 -20 -20 -20 -20 -20 -20 -20
-20 -20 -20 -20 -20 -17 -7 24 22 23 24 -2 2 -20 -19 -20 -20 3 8 -10 -5 13 27 24 28 18 21 -8 19 -14 -20 -20 -20 -20 -20 -20 -20 -20
-20 -20 -20 -20 -20 -20 -7 8 15 26 26 22 -17 -13 -13 19 12 -12 -10 -15 -19 22 13 25 14 32 30 4 20 -20 -20 -20 -20 -20 -20 -20 -20 -20
-20 -20 -20 -20 -20 -20 -20 -20 -5 -11 27 25 21 -3 -13 -10 15 -20 18 -20 -20 -20 39 21 18 33 26 23 17 10 -10 -20 -20 -20 -20 -20 -20 -20
-20 -20 -20 -20 -20 -20 -20 -20 0 7 10 18 23 17 20 10 14 3 8 6 9 -20 20 39 18 28 19 30 22 9 12 -20 -20 -20 -20 -20 -20 -20
-20 -20 -20 -20 -20 -20 3 -2 9 9 10 8 13 24 17 42 10 41 21 20 5 -16 -4 35 7 24 27 25 19 37 2 -20 -20 -20 -20 -20 -20 -20
-20 -20 -20 -20 -20 3 -5 -15 12 13 11 14 11 11 -4 21 32 37 13 33 40 23 28 24 15 36 30 33 26 27 -6 -20 -20 -20 -20 -20 -20 -20
-20 -20 -20 -20 -20 -20 -20 -20 -15 -7 2 10 14 -2 7 12 12 29 16 9 25 32 36 33 8 31 24 34 29 29 17 -20 -20 -20 -20 -20 -20 -20
-20 -20 -20 -20 -20 -20 2 -9 -20 -7 2 7 7 12 12 13 25 27 15 38 40 32 31 37 24 28 34 19 28 8 -20 -20 -20 -20 -20 -20 -20 -20
-20 -20 -20 -20 -20 -20 -20 -15 -12 -6 -6 -7 -17 -20 -11 1 17 29 15 32 29 34 28 32 29 31 35 35 14 7 -20 -20 -20 -20 -20 -20 -20 -20
-20 -20 -20 -20 -20 -20 -19 5 16 -6 -20 -20 -20 -3 -20 -20 2 18 20 26 33 39 33 32 32 30 24 25 29 1 -20 -20 -20 -20 -20 -20 -20 -20
-20 -20 -20 -20 -20 -8 12 -14 -10 11 6 -4 -20 -14 -14 -6 24 21 26 27 34 34 31 34 33 37 19 8 7 -20 -20 -20 -20 -20 -20 -20 -20 -20
-3 -20 -20 -20 -20 -7 7 5 13 15 -6 -12 -10 -7 17 4 15 28 36 35 33 33 39 36 38 29 7 -17 -19 -9 -20 -20 -20 -20 -20 -20 -20 -20
-18 -20 -20 -8 12 12 11 13 13 1 3 3 5 21 28 32 34 33 27 22 27 24 25 26 31 9 -19 -20 -20 -20 -20 -20 -20 -20 -20 -20 -20 -20
-20 -20 0 -6 20 21 10 2 -20 5 19 19 16 17 22 24 23 25 20 23 27 28 24 9 -15 -20 -20 -20 -20 -20 -20 -20 -20 -20 -20 -20 -20 -20
-1 -2 -20 -6 -7 11 3 -8 -20 -9 19 10 11 15 16 24 24 24 24 26 25 22 13 -19 -20 -20 -20 -20 -20 -20 -20 -20 -20 -20 -20 -20 -20 -20
-13 -20 -19 5 -13 -9 10 9 -4 -1 -11 14 19 13 3 7 21 27 25 25 23 9 -20 -20 -20 -20 -20 -20 -20 -20 -20 -20 -20 -20 -20 -20 -20 -20
-18 -19 -16 -7 -16 -4 15 17 0 -13 -9 11 17 16 15 17 25 24 23 17 10 -19 -20 -20 -20 -20 -20 -20 -20 -20 -20 -20 -20 -20 -20 -20 -20 -20
-18 -20 -18 -18 -11 -1 26 17 10 0 6 18 19 20 15 18 23 22 18 -9 -20 -20 -20 -20 -20 -20 -20 -20 -20 -20 -20 -20 -20 -20 -20 -20 -20 -20
3 -20 -20 -20 -7 1 23 20 17 15 20 19 20 22 22 23 24 19 -0 -20 -20 -20 -20 -20 -20 -20 -20 -20 -20 -20 -20 -20 -20 -20 -20 -16 5 -11
-14 -0 -20 -20 -13 -3 17 17 17 20 21 20 19 19 21 24 21 -0 -20 -20 -20 -20 -20 -20 -20 -20 -20 -20 -20 -20 -20 -20 -20 -20 -20 -4 -20 -20
2 -20 -9 -20 -20 -1 18 17 19 19 16 15 17 19 21 17 -12 -20 -20 -20 -20 -20 -20 -20 -20 -20 -20 -20 -20 -20 -20 -20 -20 -20 -19 -20 -20 -0

GFSNE_prec_radar_012.txt.gz
Reflectivity
-20 -20 -20 -20 -20 -20 18 19 23 32 27 24 16 7 -4 15 15 9 23 18 -7 4 -20 -20 -20 -20 -2 18 21 27 26 -19 -20 -20 -20 -20 -20 -20
-20 -20 -20 -20 -20 -20 -20 -4 15 23 14 6 17 20 24 -14 -19 10 1 -8 17 -19 -20 -20 -16 -20 -20 -3 16 15 25 12 2 -13 10 -20 -20 -20
-20 -20 -20 -20 -20 -20 -20 -20 -2 10 24 -18 14 16 22 24 15 -7 -11 -17 -18 -20 -20 -15 -11 12 -20 22 18 21 13 12 15 2 27 -20 -20 -20
-20 -20 -20 -20 -20 -20 -20 -20 -5 -11 13 7 -18 4 9 16 -13 12 -8 2 9 18 32 10 -6 7 13 12 27 34 12 26 1 24 -11 -16 -20 -20
-20 -15 -20 -20 -20 -20 -18 -20 -19 -6 2 9 -16 -19 -0 7 9 14 7 7 18 23 24 18 12 17 11 25 33 30 37 36 21 35 -17 -6 -20 -20
-9 -20 -20 -20 -20 -20 -20 5 9 14 12 16 20 14 -16 -16 22 13 7 -14 7 41 33 21 16 13 32 32 29 21 24 37 23 34 11 27 -17 -20
-20 -20 -20 -20 -20 -6 -16 -20 -19 3 -19 -20 3 7 -0 6 2 -5 7 -16 -14 16 15 36 24 30 25 35 28 30 20 33 38 37 22 -13 -14 -20
-20 -20 -20 -20 -20 -20 -20 -20 -20 6 8 8 0 -20 -15 12 5 -1 15 16 7 -1 30 12 27 21 37 39 33 34 30 30 34 23 24 10 -20 -20
-20 -20 -20 -20 -20 -20 -20 -20 -20 -20 -1 -2 -6 -1 16 -2 13 17 -1 -0 21 -12 13 22 36 27 30 24 33 31 35 35 32 20 29 7 -20 -7
-20 -20 -20 -20 -20 -20 -20 -20 -20 -20 -17 2 16 8 3 -19 -18 -5 7 15 20 16 21 14 26 23 22 31 34 35 33 36 35 27 16 -9 -20 -20
-20 -20 -2 -20 -20 -20 -20 -20 -20 -16 -1 5 7 10 13 13 13 1 2 7 -14 17 21 19 19 1 24 31 35 34 35 35 29 14 -18 -20 -13 -18
-20 3 -17 -20 -20 -20 -10 -13 7 6 -1 -18 -5 9 -5 7 16 5 4 25 17 12 18 38 21 22 23 23 25 32 37 36 28 8 -20 -10 -11 -20
1 -20 -20 -20 -20 -2 10 2 12 16 4 0 -19 -15 5 7 -8 -17 19 35 23 29 22 32 31 30 20 22 25 27 26 14 -20 -20 -20 -6 -11 -20
7 -20 -20 2 4 9 8 16 16 16 4 -16 -13 -6 10 10 11 13 23 21 28 30 33 32 19 19 20 27 29 27 13 -17 -8 8 1 -19 -20 -20
-16 5 4 -1 -4 10 6 8 13 10 12 -0 -6 -4 2 17 24 20 21 23 26 22 22 22 29 25 27 26 21 15 9 10 4 -19 -20 -20 -20 -20
5 -20 3 -3 -19 -9 -20 -2 -20 18 26 26 15 -7 3 20 22 27 27 26 23 18 21 21 22 19 17 14 6 2 9 -6 -20 -20 -20 -20 -20 -20
-3 -20 -10 -20 -20 -20 -14 -3 -10 -1 15 7 -9 -5 15 18 23 27 28 23 18 16 19 18 15 9 -2 -14 -20 -20 -20 -20 -20 -20 -20 -20 -20 -20
-6 1 -2 -20 1 -20 -18 -20 -19 -2 -15 -14 -10 5 15 20 24 25 27 20 17 12 11 9 -5 -20 -20 -20 -20 -20 -20 -20 -20 -20 -20 -20 -20 -20
-4 5 -20 1 -20 -18 -17 -14 9 10 11 10 4 11 17 17 22 22 24 17 12 6 -3 -20 -20 -20 -20 -20 -20 -20 -20 -20 -20 -20 -20 -20 -20 -20
2 2 -17 -20 -18 -18 -15 -5 12 14 14 14 15 17 17 18 18 22 22 18 13 -11 -20 -20 -20 -20 -20 -20 -20 -20 -20 -20 -20 -20 -20 -20 -20 -20
-14 -3 -20 -18 -19 -20 -14 7 13 18 20 20 20 21 16 18 18 19 19 14 -5 -20 -20 -20 -20 -20 -20 -20 -20 -20 -20 -20 -20 -20 -20 -20 -20 -20
-10 -20 -20 -8 -14 -19 -9 12 18 18 20 17 21 18 16 15 12 10 7 2 -10 -20 -20 -20 -20 -20 -20 -20 -20 -20 -20 -20 -20 -20 -20 -20 -20 -20
-3 -20 -20 -19 -20 -18 1 16 19 20 17 20 19 13 12 9 -6 -20 -20 -20 -20 -20 -20 -20 -20 -20 -20 -20 -20 -20 -20 -20 -20 -20 -20 -19 -15 5

GFSNE_prec_radar_018.txt.gz
Reflectivity
-20 -20 -20 -20 -20 4 16 8 14 -3 -20 -20 -20 -20 -20 -20 -20 -20 -14 9 -20 -20 -17 2 25 29 37 31 20 20 7 19 21 19 22 10 25 25
-20 -20 -20 -20 -20 2 -20 -20 -20 -13 -9 -20 -20 -20 -20 -20 -20 -20 -20 -20 -18 -20 -2 -20 -7 -11 12 28 34 33 19 21 14 22 19 -20 7 21
-20 -20 -9 -13 -20 -20 -20 -20 -20 -20 -20 -20 -20 -20 -20 -20 -20 12 13 9 -11 -16 -20 -19 -20 -20 -20 -20 -7 20 28 33 22 34 21 20 13 -20
-20 -20 -20 -20 -20 -20 -20 -20 -20 -20 4 10 -20 -20 -20 -20 -20 -20 -20 -20 -19 5 -13 -20 5 -4 -16 -20 -20 -18 14 17 11 31 19 20 19 23
-20 -20 -20 -20 -20 -20 -20 -20 -20 -18 -7 -20 -20 -20 -20 -20 -20 -20 -20 -20 -0 -7 10 12 9 5 15 19 -20 -17 2 -3 -3 4 41 34 19 26
-20 -20 -20 -20 -20 -20 -20 -20 -8 10 5 8 5 -14 -12 -20 -20 -20 -19 -20 -20 -20 -12 -7 -20 -20 -20 -20 -18 -1 4 5 -1 1 10 34 27 25
-20 -20 -20 -20 -20 -20 -14 -8 8 7 6 9 11 8 -9 -20 -16 -20 -20 -9 -9 -9 -4 -9 -19 -20 -20 -20 -20 -20 -7 -9 -13 9 15 37 36 35
-20 -20 -20 -20 -20 -20 -10 2 4 6 2 4 7 7 -20 -19 -18 -14 4 9 -7 -4 -0 -1 -13 2 2 -20 -20 -20 -6 -10 -9 2 5 21 30 31
-20 -20 -20 -20 -20 -17 -20 4 -5 3 10 8 9 -14 -19 -18 -19 -17 15 9 5 2 4 -9 -2 -13 -17 -20 -20 -20 -20 -9 16 8 12 29 29 33
-20 -20 -17 1 4 3 -3 -13 -20 -20 -20 4 10 15 25 21 34 31 -4 2 6 2 2 -2 4 -3 12 -11 7 -18 -20 -11 -17 8 26 27 33 33
-20 -20 9 -12 -5 6 18 -3 -20 -20 -20 -16 13 14 17 2 -2 6 20 8 17 5 3 5 2 -2 12 0 1 12 -20 4 18 19 20 31 26 30
-20 7 -20 -10 9 13 3 -0 1 -20 -19 -17 8 1 -20 -8 1 12 29 24 26 7 -1 14 10 -2 14 4 -19 -20 6 21 22 19 19 26 32 34
4 -20 -20 -10 19 -20 -7 -10 -4 3 4 -4 -20 -15 -14 -0 10 25 26 30 20 2 7 9 21 4 -5 -9 1 5 18 25 22 29 30 33 33 25
-1 -20 10 23 -20 -20 -14 -0 4 4 -20 -14 -3 -4 -15 -6 -11 6 6 20 12 14 -3 -18 20 3 -17 -1 11 17 24 24 26 32 31 31 30 28
-1 9 -5 -20 -20 -20 -20 -18 -18 -20 -20 -4 -16 -19 -20 3 -9 -19 -20 -15 7 -9 -18 -16 13 13 12 19 18 19 24 25 29 20 31 32 30 18
12 11 -20 -20 -20 -20 -20 -20 -20 -20 -7 6 5 -15 -20 -2 -20 -19 -1 -4 7 6 6 11 13 16 11 15 17 21 20 21 23 20 20 19 19 23
-3 -20 -20 -20 -20 -20 -20 -20 -20 -20 -7 -4 -8 -20 -20 -15 -20 -3 -9 10 14 5 -1 10 13 11 12 17 18 20 21 21 21 22 21 19 20 11
-10 -20 -17 -20 -20 -16 -20 -20 -20 -20 -3 -4 -14 -20 1 -1 -4 5 13 13 12 11 10 11 15 14 15 15 20 19 21 20 19 17 9 7 5 5
-20 6 -20 -15 -20 -20 -20 -20 -17 -5 4 1 2 4 13 1 7 11 10 13 16 14 14 13 12 12 10 10 11 10 3 1 -1 -5 -10 -19 -20 -20
-7 5 -9 -20 -20 -20 -20 -15 5 7 6 7 12 12 14 14 14 16 11 14 12 12 7 4 3 4 -1 -4 -12 -17 -20 -20 -20 -20 -20 -20 -20 -20
-1 2 -20 -20 -20 -20 -18 2 10 14 16 15 12 18 16 14 11 11 2 6 10 9 1 -13 -13 -14 -20 -20 -20 -20 -20 -20 -20 -20 -20 -20 -20 -20
-20 -0 -20 -20 -20 -20 -5 11 12 9 11 11 15 16 13 10 8 2 2 2 -2 -8 -17 -20 -20 -20 -20 -20 -20 -20 -20 -20 -20 -20 -20 -20 -20 -20
1 -15 -20 -20 -20 -20 -3 11 12 13 18 14 16 7 -1 -5 -4 -1 -5 -13 -13 -16 -20 -20 -20 -20 -20 -20 -20 -20 -20 -20 -20 -20 -20 -20 -12 17

GFSNE_prec_radar_021.txt.gz
Reflectivity
-20 -20 -20 -20 -3 -12 -1 -20 -4 -20 -20 -20 -20 -20 -20 -20 -20 -20 -20 -20 -20 -20 -17 -19 -20 -8 2 12 23 35 30 28 29 33 32 28 26 20
-20 -20 -20 -20 -20 -20 -20 -20 -20 -14 9 -20 -20 -20 -20 -20 -20 -20 -20 -4 -20 -20 -20 -20 -9 -2 -3 -2 7 11 24 19 35 40 24 29 26 24
-20 -20 -20 -20 -20 -20 -20 -20 -20 -20 -20 -20 -20 -20 -1 -20 -20 -20 -20 -20 -20 -20 -20 -20 -20 -5 -3 2 -12 -8 19 22 24 19 37 33 28 27
-20 -20 -20 -20 -20 -20 -20 -20 -20 -20 9 10 -20 -1 -20 -20 -20 -20 -4 -19 -20 -20 -20 -15 -20 -20 -20 -2 -1 10 -17 6 14 21 23 8 34 31
-20 -20 -20 -20 -20 -20 -20 -20 3 6 13 17 -1 -20 -20 -11 -3 -12 -10 -4 -20 -20 -20 -20 -20 -20 -20 -20 -8 -18 -20 2 19 15 9 15 10 20
-20 -20 -20 -20 -20 -20 -16 5 9 9 11 11 11 -2 -9 -20 1 -1 -19 -6 -0 -20 -20 -20 -20 -20 -20 -20 -18 -20 -20 -20 -11 8 7 6 11 -8
-20 -20 -20 -20 -20 -15 7 5 10 11 15 14 10 9 9 9 2 -20 1 -12 -20 -20 -20 -20 -8 -4 -0 -20 -20 3 -18 -20 -20 -20 -14 12 17 6
-20 -20 -20 -20 -20 1 10 8 6 8 9 18 12 13 5 -20 -20 7 9 11 6 -16 8 16 -15 -20 -20 -20 -20 -20 -20 5 2 5 -20 -20 4 5
-20 -20 -20 -5 5 11 -2 -16 3 19 -7 9 12 14 14 3 10 16 11 12 24 6 17 6 -18 7 -2 -20 -20 -20 -20 3 5 -12 -5 -15 -20 1
-20 -20 -4 7 4 -10 0 20 -7 -20 -20 7 9 7 5 9 17 24 30 16 1 -2 11 14 -1 -5 -8 -20 -1 -20 -20 -16 6 -11 -20 -10 -4 -11
-20 -20 11 -19 -20 4 22 7 -20 -20 -20 -20 3 8 8 2 -2 18 14 13 9 -10 10 14 13 2 -10 5 -7 11 -6 -20 -20 -20 -20 -20 1 15
-2 9 -20 -20 -19 20 4 -1 4 -20 3 6 -6 -20 -20 -19 -4 16 30 21 15 7 11 13 3 2 24 4 3 13 -1 -20 -20 -20 2 16 15 -6
13 -10 -20 -13 29 -14 -3 -6 2 -2 -11 -20 -20 -14 -2 4 2 8 19 23 17 11 0 17 9 1 23 11 -16 -20 -20 -14 -18 15 20 19 8 19
5 -20 -2 14 -20 -20 -17 -1 4 3 -20 -6 -20 4 7 4 2 7 0 19 17 17 16 -7 13 1 4 -3 -20 -20 2 25 6 17 17 25 26 30
4 14 3 -20 -20 -20 -20 -20 -18 -20 -7 6 6 6 5 4 1 3 -0 2 10 13 6 -3 7 -8 7 7 0 -8 15 20 21 20 21 22 28 29
16 -20 -20 -20 -20 -20 -20 -20 -20 -19 1 6 6 7 4 -1 0 -18 12 5 6 10 7 4 3 5 4 11 13 9 14 20 30 23 18 20 30 29
-6 -20 -20 -8 1 -20 -20 -20 -20 -20 -2 3 6 0 -19 -19 -20 9 3 7 11 9 8 8 9 13 7 8 9 16 17 20 21 20 16 5 14 21
-7 -17 -1 6 4 2 2 -20 -20 -20 -8 2 5 -1 8 6 10 9 12 12 12 11 12 13 13 13 13 10 14 15 20 21 20 18 17 11 15 20
-3 3 6 6 5 5 3 -20 -15 -19 -0 8 9 15 11 10 14 13 11 15 12 10 12 13 12 11 20 16 18 22 17 17 17 19 18 16 13 18
4 9 7 6 5 3 -20 -1 8 5 8 12 16 13 16 16 15 14 8 -2 1 4 2 4 2 -6 -4 -14 -4 -1 2 14 14 14 13 10 10 7
7 7 5 6 4 -20 -17 5 10 14 17 16 14 9 10 8 7 4 -3 -13 -3 0 -4 -8 -18 -16 -20 -20 -19 -17 -14 -14 -12 -13 -14 -16 -20 -18
6 6 5 4 -15 -19 7 11 11 11 10 10 5 -3 -14 -17 -20 -20 -20 -20 -20 -20 -20 -20 -20 -20 -20 -20 -20 -20 -20 -19 -18 -18 -20 -20 -20 -20
8 7 5 -14 -20 -6 9 9 11 12 5 -2 -16 -20 -20 -20 -20 -18 -15 -10 -14 -20 -20 -20 -20 -20 -20 -20 -20 -20 -20 -20 -20 -20 -20 -20 -11 -20

GFSNE_prec_radar_024.txt.gz
Reflectivity
-20 -20 -20 -20 -20 -20 -20 -20 -20 -20 -20 -20 -20 -20 -20 -20 -20 -20 -20 -20 -20 -20 -20 -20 -20 -20 -20 -20 -18 5 -10 16 22 31 34 41 40 29
-20 -20 -20 -20 -20 -20 -20 -20 -20 -20 -16 -20 -20 -20 -20 -20 -20 -20 -20 -20 -20 -20 -20 -20 -20 -20 -20 -20 -13 2 -2 -3 7 16 18 35 39 22
-20 -20 -20 -20 -20 -20 -20 -20 -20 -20 2 -19 -20 -20 -20 -20 -20 -20 -20 -20 -20 -20 -20 -20 -20 -20 -18 -13 -20 -20 5 7 -18 11 23 28 31 30
-20 -20 -20 -20 -20 -20 -20 -20 -20 -20 -3 12 -19 -20 -20 -20 -20 -20 -20 -20 -20 -20 -20 -20 -20 -20 -20 -20 -20 -19 -20 -20 -20 -15 10 10 19 21
-20 -20 -20 -20 -20 -20 -20 -20 -16 1 11 12 -4 -20 -20 -20 -20 -20 -20 -20 -20 -20 -20 -20 -20 -20 -20 -20 -20 -20 -8 -7 -19 -20 -20 -10 7 6
-20 -20 -20 -20 -20 -20 -11 -1 7 2 5 4 1 -1 -6 -19 -8 4 3 -20 -14 -20 -20 -20 -20 -20 -20 -20 -20 -20 1 -20 -14 -8 -20 -20 -16 -5
-20 -20 -20 -20 -20 2 6 6 11 8 10 12 10 17 1 -20 -3 -6 9 -0 -20 -20 -1 3 -6 9 -9 -18 -20 -20 -20 -18 -17 -15 -12 -1 -4 3
-20 -20 -20 -20 -20 -4 -6 -13 8 9 19 24 14 12 -20 4 7 7 5 6 11 -20 6 12 10 8 -17 -20 -16 4 1 -20 -20 -9 4 -13 2 -16
-20 -20 -20 -20 -8 -13 -20 -20 -13 15 23 10 9 7 8 3 8 9 11 21 19 -16 8 3 -20 7 -20 -20 -20 -4 -14 -11 3 -18 -20 4 12 -18
-20 -20 -20 -17 5 -10 -10 6 23 3 -20 -8 5 5 9 10 14 19 14 12 7 6 12 21 10 1 -3 -10 -20 3 2 6 11 -1 -1 4 -20 -20
-20 -20 2 -11 -20 -2 16 9 2 -20 -20 -20 1 5 -16 -3 2 5 12 15 9 8 6 24 13 15 19 4 -20 -19 -1 14 18 15 2 -20 -18 3
-20 5 -20 -18 4 14 6 7 9 -7 -1 8 -0 -20 -20 -20 -4 3 19 17 13 10 9 23 11 10 10 -20 6 -18 -1 18 12 3 -20 -20 -14 4
12 5 -14 -19 15 -6 -7 4 -4 6 -5 -1 -13 0 -2 1 5 8 9 17 15 11 -7 16 14 12 14 7 -20 -20 -20 -13 -20 -20 -20 -19 3 13
6 4 -1 13 -13 -20 -9 6 5 4 -2 4 7 7 8 6 5 7 3 4 3 10 -3 12 17 10 7 7 3 -9 -19 -20 2 14 -8 19 26 26
-16 11 14 -20 -20 -20 -9 -18 -18 -15 5 10 10 7 6 4 6 6 4 0 -3 5 18 18 10 -4 4 5 1 8 4 23 28 4 13 0 4 13
12 12 -20 -16 -20 -20 -20 -20 -20 1 7 11 10 8 6 6 7 5 12 4 16 12 12 10 13 12 7 4 3 12 -3 22 25 25 26 27 27 24
7 -13 -20 -20 -14 -14 -20 -20 -20 4 9 7 8 6 5 3 7 8 11 15 12 9 8 3 6 12 16 10 9 18 11 19 29 30 28 23 32 34
-7 -1 -20 2 6 2 -2 -20 -12 6 7 8 6 9 13 12 14 14 11 12 12 12 13 13 10 7 14 11 12 14 16 20 22 35 32 11 13 29
1 4 7 7 5 3 -19 -1 6 7 12 12 11 13 10 12 13 12 8 3 2 -1 1 2 8 15 15 9 14 17 13 20 17 16 13 2 1 26
5 9 8 7 5 4 -9 3 5 4 6 8 6 7 2 5 4 7 10 7 2 0 1 3 -3 13 19 15 10 20 19 17 12 7 8 9 14 25
6 6 7 6 5 -3 2 9 12 12 12 -7 -15 -15 8 5 -12 -19 -17 -20 -20 -20 -18 -14 -13 -8 1 7 14 14 20 18 15 13 11 9 11 13
6 8 6 4 2 2 5 9 8 -13 -17 -18 3 6 5 -14 -20 -9 -20 -16 -6 -1 2 4 -20 -20 -19 -19 -20 -19 -16 7 9 11 13 10 10 5
7 7 5 2 -0 6 11 6 -18 -19 -18 -17 -1 5 1 -2 -16 -19 -20 -16 -15 -15 -17 -20 -20 -20 -20 -20 -20 -20 -20 -20 -20 -17 -20 -1 -20 -20

GFSNE_prec_radar_027.txt.gz
Reflectivity
-20 -20 -20 -20 -20 -20 -20 -20 -20 -20 -20 -20 -20 -20 -20 -20 -20 -20 -20 -20 -20 -20 -20 -20 -20 -20 -20 -20 -4 -20 -20 -19 -17 6 17 20 24 19
-20 -20 -20 -20 -20 -20 -20 -20 -20 -20 -20 -20 -20 -20 -20 -20 -20 -20 -20 -20 -20 -20 -20 -20 -20 -20 -20 -20 -20 -20 -20 -10 13 -9 -13 16 27 17
-20 -20 -20 -20 -20 -20 -20 -20 -20 -20 -1 -20 -20 -20 -20 -20 -20 -20 -20 -20 -20 -20 -20 -20 -20 -12 -20 -20 -20 -20 -20 -5 4 9 6 2 19 21
-20 -20 -20 -20 -20 -20 -20 -20 -20 -20 2 6 -20 -20 -20 -20 -20 -20 -3 -20 -20 -20 -20 -20 -20 -20 -20 -20 -20 -20 -20 -17 2 7 2 -1 9 14
-20 -20 -20 -20 -20 -20 -20 -20 -20 -1 7 10 -17 -20 -20 -20 -19 -20 -20 -20 -20 -20 -20 -20 -20 -20 -20 -19 -20 -20 3 -0 5 7 8 5 3 -20
-20 -20 -20 -20 -20 -20 -20 -2 7 8 7 6 8 7 4 -19 7 -7 -20 -20 -20 -20 -20 -20 -20 -20 -18 -20 -5 8 10 7 10 -12 15 2 7 11
-20 -20 -20 -20 -20 -18 -3 -10 -2 10 10 9 10 13 15 -8 -20 -20 -10 -20 -20 -20 -20 -20 -1 8 -19 -20 -20 12 -0 10 6 1 8 11 2 -15
-20 -20 -20 -20 -20 -20 -20 -18 12 12 7 13 19 19 -20 -20 -20 2 4 -5 -16 -9 8 -20 -20 -20 -20 -20 -20 -20 -7 -20 -20 -20 -20 -20 -20 5
-20 -20 -20 -20 -20 -20 -14 8 -13 12 22 -2 5 -8 -11 -20 -13 3 8 12 6 -6 9 -20 3 -5 7 6 8 -14 -20 10 13 6 5 6 -13 -20
-20 -20 -20 -20 -20 4 1 -6 13 4 -17 3 1 -16 -2 4 9 8 6 6 -4 3 6 6 -7 7 -20 -4 5 -15 -19 -17 3 9 -7 8 -11 -5
-20 -20 -13 0 -16 6 12 15 -15 -20 -20 -14 -16 -17 4 -1 -2 -1 2 9 -11 -4 1 -17 -3 7 -6 4 -20 -20 7 22 13 18 5 9 8 -1
-19 1 -19 0 8 15 11 3 -6 -20 3 -7 -20 -20 -20 -20 -0 -2 9 17 6 -3 -6 9 3 7 5 -19 15 24 17 2 7 12 14 16 7 0
6 1 3 -20 17 2 -13 -17 -7 10 -13 -20 -15 -10 -13 2 3 1 4 11 15 6 -19 9 10 1 -2 -2 -0 -20 -20 -20 11 -18 -17 0 -4 -12
6 5 -6 18 -10 -20 -6 -20 -17 -1 -20 2 4 1 3 -1 -4 -1 -4 -10 -10 9 3 -5 17 -2 3 2 -9 -18 -20 -5 20 -8 -20 -15 -20 -20
4 6 18 -19 -20 -20 -20 -2 -18 -20 4 6 6 3 -11 -19 -20 -10 -16 1 -7 2 11 22 19 4 -18 -20 -20 -9 -8 -4 27 27 17 -11 -1 4
12 9 -20 -20 -20 -20 -20 -20 -20 -2 11 12 6 -20 -12 -6 5 7 11 8 6 5 -1 12 11 4 -19 -7 -6 -16 -14 2 15 25 26 -2 8 -5
-2 -20 -20 -20 -20 -20 -20 -20 -17 2 4 -2 -0 1 -15 2 3 4 17 4 2 -9 -20 -18 -13 -12 -11 14 -3 1 -19 -9 17 27 30 32 31 28
-14 -18 -7 -3 -0 -3 -20 -20 -13 -2 -11 -5 -1 -4 7 7 -1 -7 5 -2 3 -14 -20 -3 -1 -12 -10 1 15 6 7 6 25 32 34 21 23 34
-2 -0 1 0 0 -20 -20 -3 1 -19 -2 -7 -18 -19 -18 -1 6 -1 -4 -20 4 6 4 -3 10 11 -0 -2 7 23 13 14 15 17 28 19 10 30
2 4 3 2 -20 -15 -5 -6 -17 -20 -20 -20 -20 -4 2 10 7 -5 -0 8 -3 -19 -7 -8 6 11 10 12 5 19 18 17 13 12 8 14 26 30
4 5 1 -1 -14 -2 -9 -12 -15 -16 -14 -9 4 4 -1 8 -8 -10 -10 4 9 2 -14 -20 -18 -10 10 9 11 15 22 32 18 -4 -20 -19 6 15
4 1 -8 -12 -6 -1 -4 -18 -20 -20 -15 -6 -10 -11 -1 -14 -15 -17 -18 -17 -16 -10 -14 -0 -20 -20 -12 9 7 11 15 15 21 19 18 14 4 11
-1 0 -1 -20 -10 -20 -19 -19 -17 -19 -6 -3 -15 -15 -15 -16 -19 -20 -20 -20 -18 -19 -20 2 -20 -20 -20 -20 -8 9 10 11 14 14 11 15 14 28

GFSNE_prec_radar_030.txt.gz
Reflectivity
-20 -20 -20 -20 -20 -20 -20 -20 -20 -20 -20 -20 -20 -20 -20 -20 -20 -20 -20 -20 -20 -20 -20 -20 -20 -20 -20 -20 -20 -20 -20 -20 -20 -20 -20 -20 13 17
-20 -20 -20 -20 -20 -20 -20 -20 -20 -20 -20 -20 -20 -20 -20 -20 -20 -20 -20 -20 -20 -20 -20 -20 -20 -20 -20 -20 -20 -13 -19 -20 -20 -20 -20 -7 -2 11
-20 -20 -20 -20 -20 -20 -20 -20 -20 -20 -5 -20 -20 -20 -20 -20 -20 -20 -20 -20 -20 -20 -20 -5 -20 -20 -20 -20 -20 -20 -20 -20 -12 -20 -20 20 18 19
-20 -20 -20 -20 -20 -20 -20 -20 -20 -20 -20 -20 -20 -20 -20 -20 -20 -20 -20 -20 -20 -20 -20 -20 -20 -20 2 13 -20 -20 -19 11 9 10 -16 -7 -19 -15
-20 -20 -20 -20 -20 -20 -20 -20 -20 -20 -11 8 -20 -20 -20 -20 -20 -20 10 -20 -20 -20 -20 -20 -20 -20 -20 -13 7 12 10 3 10 16 12 13 6 15
-20 -20 -20 -20 -20 -20 -20 -20 -15 -4 -10 -20 -1 5 -20 -5 17 -5 -20 -20 -20 -20 -20 -20 -20 -20 -20 -6 3 -4 -19 -20 -12 -20 17 15 7 6
-20 -20 -20 -20 -20 -20 -13 -6 1 -17 2 18 6 -16 16 -19 -20 -20 -20 -20 -20 -20 -20 -20 -8 -20 -20 -20 -20 -20 -20 -20 -20 -11 -20 2 23 -4
-20 -20 -20 -20 -20 -20 -20 -20 8 15 9 10 19 -8 -20 -20 2 -20 -20 -20 -9 -3 -6 -20 -1 -20 -20 -20 -20 -7 21 -14 25 22 18 -13 9 2
-20 -20 -20 -20 -20 -20 -20 12 7 13 21 11 -1 -2 0 -20 -20 -14 -2 9 7 -3 -2 -20 -11 -17 -15 1 -20 2 -18 -10 15 2 14 18 16 8
-20 -20 -20 -20 -20 8 7 2 13 -5 -20 -2 -5 -9 6 10 10 10 3 1 -8 -17 2 -20 -3 9 -20 -20 -1 4 -8 -8 -20 -5 -1 -17 -2 13
-20 -20 3 3 5 -7 7 12 -15 -20 -20 -20 7 9 -11 -20 2 11 10 5 -6 -8 -20 -20 -20 -12 -8 -20 -17 -2 11 25 27 14 13 11 11 15
-20 -20 -2 7 -18 1 12 -2 -2 -20 -2 1 -20 -20 -20 -20 1 -0 8 14 1 -4 -10 5 -4 -20 5 -20 -13 -19 -20 -20 -20 -20 -18 9 13 4
-17 -19 -14 -20 17 8 -2 -6 -10 9 -9 -20 -20 -20 -20 -11 -20 -17 4 17 18 12 -19 15 15 -3 6 -1 -14 -4 -2 -20 -20 -20 -20 -10 -20 -11
-1 -20 -11 13 -5 -20 -8 -20 -11 -4 -20 -20 -0 -20 -20 -20 -20 -20 -12 -0 2 16 12 16 17 11 13 -4 -19 -16 -20 -20 -20 -20 -16 15 6 -20
-19 2 16 -19 -18 -20 -20 -5 -18 -20 -20 1 -0 -20 -20 -19 -20 -20 -12 4 9 4 1 -20 -11 -2 -18 -20 -20 -20 -18 -1 12 28 20 -8 -20 -20
5 13 -20 -20 -20 -20 -20 -20 -20 -5 9 9 7 -14 -18 -15 -18 3 -9 -5 -13 -11 11 9 8 -15 -20 -20 4 -12 -9 11 3 22 28 13 -15 -20
11 -20 -20 -20 -20 -20 -20 -12 -20 -9 5 -0 -7 -20 -19 -20 -17 -12 -4 -9 -1 6 4 -12 -5 -17 -20 -18 6 -16 7 8 19 24 29 26 17 19
-14 -20 -20 -20 -20 -20 -20 -20 -20 -12 -18 -20 -20 -18 -19 -20 -13 -20 -13 -4 9 -15 5 -7 -19 -20 -20 -16 15 11 11 5 19 31 35 34 27 30
-20 -20 -20 2 -20 -20 -20 -20 -1 -19 -20 -18 -14 -1 -19 -20 -18 -3 -11 -17 -20 -7 -20 -18 -15 -20 -19 -17 4 30 13 12 25 24 23 1 26 35
-11 4 -0 -20 -20 -18 -14 -10 -17 -20 -20 -18 -15 -19 -17 -17 -2 -18 -17 -14 -9 -18 -20 -20 -20 -18 -7 -3 -9 21 28 15 10 18 26 24 30 34
2 -18 -20 -20 -20 -20 -18 -18 -20 -8 2 -16 -16 -19 -20 2 -20 -20 -20 -12 -5 -15 -20 -20 -20 3 1 -8 -13 -8 18 25 7 7 17 -0 16 12
-20 -20 -20 -20 -20 -17 -17 -20 -20 -20 -20 -19 -18 -18 0 -4 -12 -20 -20 -19 -18 -14 -19 -20 -20 -3 1 -7 -4 -11 3 10 11 19 11 -12 -20 -14
-20 -20 -20 -19 -17 -18 -18 -19 -20 -20 -19 -17 -20 -20 1 -4 -20 -20 -20 -20 -20 -20 -20 -20 -20 -20 -9 2 -20 2 3 -3 -3 7 23 20 19 17

GFSNE_prec_radar_033.txt.gz
Reflectivity
-20 -20 -20 -20 -20 -20 -20 -20 -20 -20 -20 -20 -20 -20 -20 -20 -20 -20 -20 -20 -20 -20 -20 -20 -9 -20 -1 -20 -18 6 -2 2 2 -5 -20 -13 -5 -20
-20 -20 -20 -20 -20 -20 -20 -20 -20 -20 -20 -20 -20 -20 -20 -20 -20 -20 -20 -20 -20 -20 -20 -20 -2 -20 -20 20 3 -20 -19 -11 -12 -9 -12 8 6 -18
-20 -20 -20 -20 -20 -20 -20 -20 -20 -20 -20 -20 -20 -20 -20 -20 -20 -20 -20 -20 -20 -20 -4 16 10 -20 -20 -20 -20 -20 -20 -20 -4 -8 -8 -15 5 20
-20 -20 -20 -20 -20 -20 -20 -20 -20 -20 -20 -20 -20 -20 -20 -20 -20 -20 -20 1 -8 -19 -20 -20 -20 -19 -20 -20 -5 -9 -19 -20 -20 -20 -20 -20 14 20
-20 -20 -20 -20 -20 -20 -20 -20 -20 -20 -15 6 -20 -20 -20 -20 -20 -16 -20 -20 -20 -20 -20 -20 -20 -20 -20 -20 -5 8 3 15 16 11 10 19 -12 -18
-20 -20 -20 -20 -20 -20 -20 -10 -19 -20 -20 -20 1 12 -20 -20 -6 -20 -20 -20 -20 -20 -20 -20 -20 -20 -20 -20 -20 -20 -20 -20 -20 -20 -20 -20 -20 -20
-20 -20 -20 -20 -20 -20 -5 -20 -12 -17 1 16 -14 -6 13 -20 -20 -20 -20 -20 -20 -20 -20 -20 -9 3 -20 -20 -20 -20 -17 -3 2 1 4 18 17 11
-20 -20 -20 -20 -20 -6 -20 -20 11 16 12 12 18 -17 -20 -20 -20 -20 -9 10 9 6 7 -19 -20 -20 -20 -20 -15 2 7 11 15 -9 24 8 3 17
-20 -20 -20 -20 -20 -20 -12 12 3 13 21 12 -11 -4 5 -20 -10 15 4 -15 4 -20 -2 -20 -12 -20 -20 -14 2 5 -2 -17 -10 6 6 9 8 12
-20 -20 -20 -12 1 7 1 -9 13 11 -18 -14 -8 -2 8 14 -4 -12 3 4 -18 -20 -9 7 -20 -20 -20 -20 -20 -20 -11 6 7 13 14 12 11 -5
-20 -20 7 1 5 2 13 13 -17 -20 -20 -20 14 1 -20 -20 -5 17 6 -7 -18 -19 -5 9 -8 -20 -20 -20 -20 -20 -20 -1 15 20 14 20 18 11
-20 -20 -12 -3 -20 19 10 6 -20 -20 1 -13 -20 -20 -20 -20 -2 -2 11 15 -0 -6 -5 10 -10 -11 8 8 -20 -20 -20 -20 -20 4 1 3 -0 -16
-19 -20 -20 -17 24 -7 -14 -20 -8 6 -18 -20 -20 -20 -20 -20 -20 -16 -2 14 16 7 -20 15 11 1 -9 -11 -20 -20 -20 -20 -20 -20 -20 -12 -14 -2
-7 -20 -4 16 -20 -20 -8 3 7 7 -20 -20 -20 -20 -20 -20 -20 -20 -20 -13 -2 10 1 13 15 8 2 -20 -20 -20 -18 -20 -6 -18 -17 -20 -8 -1
0 11 5 -19 -20 -20 -20 -5 -5 -20 -0 -6 -20 -20 -20 -20 -20 -20 -18 9 14 14 14 -1 8 4 1 -15 -20 -20 7 9 16 16 -2 -20 -20 -20
5 -14 -20 -20 -20 -20 -20 -20 -20 -8 9 4 -20 -20 -20 -20 -6 -13 -7 -20 -1 -7 9 5 13 1 -19 -20 2 -2 -3 18 21 27 22 17 -20 -20
4 -20 -20 -20 -20 -20 -20 -20 -20 -20 -12 -20 -20 -20 -20 -20 -12 -16 -8 -14 -14 5 -18 -20 -15 -18 -20 -15 -0 1 16 14 23 29 26 19 14 -20
-19 -20 -20 -20 -20 -20 -20 -20 -20 -16 -20 -20 -20 -20 -14 -20 -20 -20 -20 -15 4 -19 -7 -20 -20 -20 -20 -15 14 15 17 15 31 30 34 13 21 23
-20 -4 -20 -20 -20 -20 -20 -20 -20 -20 -19 -20 -17 -3 -18 -20 -20 -19 -20 -20 -20 -7 -20 -20 -19 -18 -1 -18 -18 29 9 18 30 30 33 33 33 33
-15 -20 -20 -20 -20 -20 -19 -19 -20 -20 -20 -19 -11 -20 -18 -20 -17 -8 -20 -16 -16 -20 -20 -20 -20 -8 5 -5 -4 22 31 -5 8 27 27 24 30 33
-20 -20 -20 -20 -20 -18 -20 -20 -14 -11 -0 -10 -20 -20 -20 -16 -19 -20 -20 -20 -7 -20 -20 -20 -14 7 10 3 -5 -8 16 28 13 20 25 10 26 18
-20 -20 -20 -20 -18 -19 -19 -17 -17 -18 -17 -20 -20 -20 -20 -20 5 -16 -20 -20 -20 -20 -20 -20 -19 8 -0 -16 2 -13 5 12 20 25 26 15 5 13
-20 -1 -20 -18 -19 -20 -20 -20 -20 -19 -18 -10 -20 -20 -20 -20 -16 -20 -20 -20 -20 -20 -20 -20 -20 -20 -20 -11 -20 -1 -19 9 -5 4 31 28 30 28

GFSNE_prec_radar_036.txt.gz
Reflectivity
-20 -20 -20 -20 -20 -20 -20 -20 -20 -20 -20 -20 -20 -20 -20 -20 -20 -20 -20 -20 -20 -20 -20 -20 -20 -20 -20 -17 -5 -1 -9 -3 18 -8 -19 -20 -19 -2
-20 -20 -20 -20 -20 -20 -20 -20 -20 -20 -20 -20 -20 -20 -20 -20 -20 -20 -20 -20 -20 -20 -18 -18 1 1 20 17 20 -14 9 16 11 6 -6 0 -5 17
-20 -20 -20 -20 -20 -20 -20 -20 -20 -20 -20 -20 -20 -20 -20 -20 -20 -20 -20 -20 -20 -20 -4 -20 -14 -14 -17 -12 -11 2 -5 -14 -18 -7 16 10 18 20
-20 -20 -20 -20 -20 -20 -20 -20 -20 -20 -20 -20 -20 -20 -20 -20 -20 -20 2 10 4 -19 -20 -20 -20 -10 -20 -20 -20 -3 -4 -16 7 -18 0 10 9 12
-20 -20 -20 -20 -20 -20 -20 -20 -20 -15 -5 -18 -20 -20 -20 -20 -20 -20 -20 -20 -20 -20 -20 -20 -20 -20 -20 -20 -16 -4 10 11 19 -10 -12 11 13 17
-20 -20 -20 -20 -20 -20 -20 -13 -11 -20 -20 -20 -9 -3 -20 -20 7 -20 -20 -20 -20 -20 -20 -20 -5 -20 -20 -19 -8 -1 3 -4 -20 -14 -12 -18 -20 -13
-20 -20 -20 -20 -20 -1 1 -4 -6 -13 6 11 -20 3 18 -20 -20 -20 -20 -20 -20 -16 -18 -20 -5 -8 -19 -19 -20 -20 -20 -15 -17 -13 -0 4 10 10
-20 -20 -20 -20 -20 5 6 -14 8 1 -20 21 19 -20 -20 -20 -20 -20 3 7 -18 -20 -14 -15 -20 -20 -20 -20 -15 0 1 1 7 13 15 23 19 22
-20 -20 -20 -20 -14 -20 -20 -16 -20 24 13 -1 -20 -20 -15 -20 12 8 -20 -20 -20 -20 -17 -14 -20 -20 -20 -20 -20 -4 4 -1 4 9 10 13 11 10
-20 -20 -20 -20 -20 -1 -6 -4 15 -20 -20 -20 -12 -4 8 -1 -9 3 3 3 -14 -13 7 8 -20 -20 -20 -20 -20 -20 -13 3 8 9 11 14 14 13
-20 -20 1 -16 -20 8 12 -15 -20 -20 -20 -20 13 -3 -20 -17 4 16 -3 -8 -20 -7 -18 -20 -20 -20 -20 -7 -20 -20 -20 3 7 12 17 18 19 17
-19 -20 -20 -20 8 18 -1 -17 -20 -20 7 -10 -20 -20 -20 -20 -15 -9 7 12 -13 -19 -20 8 -7 -11 11 1 -14 -20 -20 -20 -12 3 8 7 5 12
-20 -20 -20 4 13 -20 -3 -20 -8 7 -16 -20 -20 -20 -20 -20 -20 -20 -6 14 14 3 -20 18 13 -18 -0 -0 -19 -20 -20 -20 -20 -18 -6 6 2 5
-19 -20 -1 8 -8 -18 -13 2 8 -1 -20 -20 -20 -20 -20 -20 -20 -20 -8 -2 8 19 14 6 18 11 9 -15 -20 -20 -8 -0 14 10 3 -13 6 -1
-16 9 4 -19 -20 -20 -20 -3 -18 -20 -19 -20 -20 -20 -20 -20 -20 -20 -11 -4 13 15 12 -16 7 7 -9 -9 -18 -20 1 13 17 16 13 2 -6 -20
4 -20 -20 -20 -20 -20 -20 -20 -20 -20 -15 -13 -20 -20 -20 -20 -20 -20 -20 -20 -20 -5 7 -5 4 4 -8 -20 4 1 8 20 10 20 24 13 -15 -20
-6 -20 -20 -20 -20 -20 -20 -20 -20 -20 -20 -20 -20 -20 -20 -20 -20 -20 -20 -20 -20 -20 -19 -20 -20 -17 -13 5 17 11 15 -4 22 31 23 22 1 -7
-19 -20 -20 -20 -20 -20 -20 -20 -20 -20 -20 -20 -20 -20 -20 -20 -20 -20 -20 -20 -20 -20 -17 -20 -20 -20 -20 -19 17 19 9 3 28 34 29 14 15 11
-20 -20 -20 -20 -20 -20 -20 -20 -20 -20 -20 -20 -20 -19 -10 -20 -20 -20 -20 -20 -20 -19 -20 -17 -19 -20 -20 -20 -15 24 19 19 30 30 20 14 20 27
-20 -20 -20 -20 -20 -20 -20 -20 -20 -20 -20 -20 -20 -20 -20 -20 -20 -20 -20 -17 -18 -20 -20 -16 -20 -20 1 4 -2 17 28 28 20 23 28 9 25 24
-20 -20 -20 -20 -20 -20 -20 -20 -19 -17 -1 -1 -20 -20 -20 -20 -20 -20 -20 -20 -20 -20 -20 -20 -16 15 10 5 -19 -3 26 32 33 29 23 18 12 10
-20 -20 -20 -20 -20 -20 -20 -20 -20 -20 -20 -20 -20 -20 -20 -20 -15 -20 -18 -19 -20 -20 -20 -20 -20 -12 -20 -20 -6 -1 16 26 30 32 33 28 1 11
-20 -20 -20 -20 -20 -20 -20 -20 -20 -20 -15 -4 -20 -20 -15 -1 -20 -20 -2 -20 -20 -20 -20 -20 -18 -15 -20 -20 -20 -5 -2 0 1 12 36 34 30 28

GFSNE_prec_radar_039.txt.gz
Reflectivity
-20 -20 -20 -20 -20 -20 -20 -20 -20 -20 -20 -20 -20 -20 -20 -20 -20 -20 -20 -20 -20 -20 -20 -20 -20 -14 -9 -14 -17 2 15 18 -17 9 19 15 21 19
-20 -20 -20 -20 -20 -20 -20 -20 -20 -20 -20 -20 -20 -20 -20 -20 -20 -20 -20 -20 -20 -20 -20 -18 4 -2 -16 -6 -8 -10 -3 -3 13 20 22 18 9 -20
-20 -20 -20 -20 -20 -20 -20 -20 -20 -20 -20 -20 -20 -20 -20 -20 -20 -20 -20 -20 -20 -14 8 -20 -7 -20 -19 -1 1 1 9 7 1 -8 18 19 10 20
-20 -20 -20 -20 -20 -20 -20 -20 -20 -20 -20 -12 -20 -20 -20 -20 -20 -20 2 2 12 -20 -20 -20 -13 -20 5 -2 10 19 18 -6 2 4 -5 2 11 6
-20 -20 -20 -20 -20 -20 -20 -20 -16 -16 2 -5 -20 -20 -20 -20 -18 -20 -20 -20 -20 -20 -20 -20 -20 -20 -19 -12 6 15 19 18 18 18 18 17 18 19
-20 -20 -20 -20 -20 -20 -20 -4 -10 -20 -20 -20 -11 -5 -1 -3 -18 -20 -20 -20 -20 -20 -20 -20 0 -3 -20 -20 -20 -19 -17 -17 -16 -6 -5 7 17 17
-20 -20 -20 -20 -20 -16 0 -20 -15 -18 -20 1 12 -5 -20 -20 -20 -20 -20 -20 -20 -1 -20 -20 -20 -20 -20 -20 -20 -20 -17 3 5 -7 -0 0 4 10
-20 -20 -20 -20 -20 -4 2 7 9 5 11 8 -20 -20 -20 -20 -20 -19 8 -19 -13 -14 -14 -6 -20 -20 -20 -20 -20 -12 1 8 -0 12 16 14 14 14
-20 -20 -20 -20 -20 -20 -20 -20 19 13 -10 -18 -20 -20 -20 -17 12 -13 -20 -20 -20 -20 -16 -10 -20 -20 -20 -20 -20 -20 -1 7 9 11 13 15 16 15
-20 -20 -20 -20 -8 1 -4 11 -20 -20 -20 -20 -20 -9 11 -12 -20 -11 2 3 -14 -19 3 5 -20 -20 -20 -20 -20 -20 -5 4 10 14 15 12 14 16
-20 -20 1 3 -5 9 4 -19 -20 -20 -20 -20 13 -7 -20 -20 -9 15 -9 -9 -20 -20 -20 -8 -20 -20 -20 -20 -20 -20 2 5 7 12 3 8 10 16
-20 -20 -20 -19 5 14 -4 -20 -20 -20 8 -7 -20 -20 -20 -20 -20 -13 10 12 -15 -13 -20 12 -9 -14 7 -20 -20 -20 -20 -20 -14 -1 5 9 8 7
-20 -20 -20 0 10 -12 3 -20 -13 8 -18 -20 -20 -20 -20 -20 -20 -20 -20 1 14 4 -20 16 9 -19 -4 -16 -20 -20 -17 -17 -8 -20 -18 1 6 13
-20 -20 -20 8 -1 -14 -14 2 6 -2 -20 -20 -20 -20 -20 -20 -20 -20 -20 -20 -20 5 9 -0 16 2 8 -8 -20 -20 -5 17 17 8 5 -6 18 11
-16 2 2 -19 -20 -20 -20 -9 -18 -20 -20 -20 -20 -20 -20 -20 -20 -20 -20 -20 -20 -13 3 -20 5 1 8 13 -1 0 17 -4 5 17 14 12 -14 -13
-20 -20 -20 -20 -20 -20 -20 -20 -20 -20 -13 -12 -20 -20 -20 -20 -20 -20 -20 -20 -20 -11 1 -7 9 2 8 7 19 6 -9 20 16 15 20 13 8 -17
-0 -20 -20 -20 -20 -20 -20 -20 -20 -20 -20 -20 -20 -20 -20 -20 -20 -20 -20 -20 -20 -20 -20 -20 -18 0 5 8 -5 4 18 8 26 32 14 -18 -20 -20
-14 -20 -20 -20 -20 -20 -20 -20 -20 -20 -20 -20 -20 -20 -20 -20 -20 -20 -20 -20 -20 -20 -16 -20 -20 -16 1 -5 16 14 6 27 31 32 26 2 -8 -18
-20 -20 -20 -20 -20 -20 -20 -20 -20 -20 -20 -20 -20 -20 -14 -20 -20 -20 -20 -20 -20 -20 -20 -20 -20 -20 -20 -19 8 -5 20 20 18 24 29 16 20 14
-20 -20 -20 -20 -20 -20 -20 -20 -20 -20 -20 -20 -20 -20 -20 -20 -20 -20 -20 -20 -17 -19 -20 -20 -20 -17 7 14 14 13 26 20 12 -7 13 13 24 21
-20 -20 -20 -20 -20 -20 -20 -20 -20 -20 -3 -1 -20 -20 -20 -20 -20 -20 -20 -20 -20 -20 -20 -20 -20 7 -5 8 4 12 26 31 28 26 16 16 12 5
-20 -20 -20 -20 -20 -20 -20 -20 -20 -20 -13 -20 -20 -20 -20 -20 -20 -20 -20 -20 -20 -20 -20 -20 -20 -20 -20 -19 5 8 13 26 31 24 28 19 12 18
-20 -20 -20 -20 -20 -20 -20 -20 -20 -19 -12 -13 -20 -20 -20 -20 -20 -20 -20 -20 -20 -20 -20 -20 -20 -20 -20 -16 -1 8 11 4 16 17 29 30 25 24

GFSNE_prec_radar_042.txt.gz
Reflectivity
-20 -20 -20 -20 -20 -20 -20 -20 -20 -20 -20 -20 -20 -20 -20 -20 -20 -20 -20 -20 -20 -20 -17 -20 -19 -1 10 11 14 20 19 2 7 19 18 16 20 -13
-20 -20 -20 -20 -20 -20 -20 -20 -20 -20 -20 -20 -20 -20 -20 -20 -20 -20 -20 -20 -20 -20 -20 -20 2 10 -6 -8 8 -1 8 14 20 -18 -18 -8 19 19
-20 -20 -20 -20 -20 -20 -20 -20 -20 -20 -20 -20 -20 -20 -20 -20 -20 -20 -20 -20 -20 -20 -5 -20 -20 -20 -12 -1 -9 17 -5 0 18 19 19 19 -1 17
-20 -20 -20 -20 -20 -20 -20 -20 -20 -20 -9 -20 -20 -20 -20 -20 -20 -18 -20 -6 -20 -20 -20 -20 -20 3 -2 7 11 13 16 21 19 18 17 18 19 18
-20 -20 -20 -20 -20 -20 -20 -20 -20 -17 -2 -17 -20 -20 -20 -19 -20 -20 -20 -20 -20 -20 -20 -20 -20 -17 -15 -4 10 14 13 13 -11 -17 12 17 18 18
-20 -20 -20 -20 -20 -20 -20 -14 -12 -20 -20 -20 -20 12 -14 -20 -20 -20 -20 -20 -20 -20 -20 -3 -14 -20 -20 -20 -20 -20 -9 -18 -18 -11 -4 6 -10 8
-20 -20 -20 -20 -20 -20 -0 -9 -20 -20 -9 19 -8 -20 -20 -20 -20 -20 -20 -20 -20 -20 -20 -20 -20 -20 -20 -20 -20 -20 -20 2 6 7 -20 -2 7 14
-20 -20 -20 -20 -20 -6 1 7 6 14 -8 -20 -20 -20 -20 -20 -20 -11 -0 -20 -16 -20 -20 -20 -20 -20 -20 -20 -20 -20 -2 2 4 9 10 13 16 15
-20 -20 -20 -20 -20 -20 -20 7 7 0 -20 -18 -20 -20 -20 -7 3 -19 -20 -17 -18 -20 -20 -20 -20 -20 -20 -19 -20 -20 -2 4 7 9 11 14 14 16
-20 -20 -20 -20 -20 -1 2 2 -20 -20 -20 -20 -20 -15 4 -15 -14 -14 -3 3 -20 -20 -20 -20 -20 -20 -20 -10 -20 -20 -20 3 6 9 12 13 14 15
-20 -20 -15 -2 -4 4 3 -19 -20 -20 -20 -20 12 -3 -20 -20 -17 7 -18 -17 -20 -20 -20 -20 -20 -20 -20 -20 -20 -20 -20 -15 -6 -3 7 9 11 16
-20 -20 -20 1 4 15 -3 -20 -20 -20 -2 -16 -20 -20 -20 -20 -20 -20 -17 4 -20 -11 -20 6 -15 -12 5 -20 -1 -16 -20 -20 -20 -7 6 11 10 6
-20 -20 -20 0 5 3 2 -20 -17 5 -18 -20 -20 -20 -20 -20 -20 -20 -20 10 8 -2 -20 17 6 -19 -8 -20 -20 -20 6 1 -3 -12 -4 5 12 14
-1 -20 -20 6 -2 -14 -20 -0 6 -3 -20 -20 -20 -20 -20 -20 -20 -20 -20 -20 -20 -0 -18 -11 15 4 7 -7 -15 -20 0 9 1 -10 -20 -15 12 15
-17 -1 1 -18 -20 -20 -20 -20 -20 -20 -20 -20 -20 -20 -20 -20 -20 -20 -20 -20 -20 -20 -20 -20 9 -4 -3 13 14 -0 2 -20 -20 -17 3 3 15 11
-20 -20 -20 -20 -20 -20 -20 -20 -20 -20 -20 -20 -20 -20 -20 -20 -20 -20 -20 -20 -20 -20 -2 12 10 10 9 -17 19 4 -20 17 18 22 28 10 -3 -10
-8 -20 -20 -20 -20 -20 -20 -20 -20 -20 -20 -20 -20 -20 -20 -20 -20 -20 -20 -20 -20 -20 -20 -1 -0 4 8 5 -11 -19 13 -5 18 23 19 -12 -20 -20
-20 -20 -20 -20 -20 -20 -20 -20 -20 -20 -20 -20 -20 -20 -20 -20 -20 -20 -20 -20 -20 -20 -20 -20 -20 -15 -15 -8 13 12 -14 3 12 22 27 6 -9 -19
-20 -20 -20 -20 -20 -20 -20 -20 -20 -20 -20 -20 -20 -20 -9 -20 -19 -20 -20 -20 -20 -20 -20 -20 -20 -19 -20 -20 -7 -19 13 9 7 5 18 16 5 11
-20 -20 -20 -20 -20 -20 -20 -20 -20 -20 -20 -20 -20 -20 -20 -20 -20 -20 -20 -20 -18 -20 -20 -20 -20 -19 10 17 15 11 13 22 18 16 12 24 23 19
-20 -20 -20 -20 -20 -20 -20 -20 -20 -19 -6 -11 -20 -20 -20 -15 -20 -20 -20 -20 -16 -20 -20 -20 -15 3 13 6 -13 -3 9 -0 27 26 27 -13 -12 7
-20 -20 -20 -20 -20 -20 -20 -20 -20 -20 -20 -20 -20 -20 -20 -20 -20 -20 -20 -20 -20 -20 -20 -20 -20 -20 -20 -20 -20 -13 14 6 10 -7 20 21 12 13
-20 -20 -20 -20 -20 -20 -20 -20 -20 -20 -20 -20 -20 -20 -20 -14 -20 -20 -20 -20 -20 -20 -20 -20 -20 -20 -20 -20 -20 -20 -20 9 4 -15 7 27 32 29

GFSNE_prec_radar_045.txt.gz
Reflectivity
-20 -20 -20 -20 -20 -20 -20 -20 -20 -20 -20 -20 -20 -20 -20 -20 -20 -20 -20 -20 -20 -20 6 -20 -20 -20 -20 -7 7 4 17 17 11 16 16 11 -14 -18
-20 -20 -20 -20 -20 -20 -20 -20 -20 -20 -20 -20 -20 -20 -20 -20 -20 -20 -20 -20 -20 -20 -20 -10 -5 -2 -2 -15 -9 -0 9 19 -17 3 -2 19 20 19
-20 -20 -20 -20 -20 -20 -20 -20 -20 -20 -20 -20 -20 -20 -20 -20 -20 -20 -20 -3 -17 -20 -20 -6 -20 -20 -20 -8 8 9 10 15 16 18 19 -6 19 20
-20 -20 -20 -20 -20 -20 -20 -20 -20 -20 -19 2 -20 -20 -20 -20 -17 2 -20 -20 -20 -20 -20 -20 -20 -4 -18 -19 -2 8 -17 11 -2 13 17 17 19 18
-20 -20 -20 -20 -20 -20 -20 -20 -20 -20 -2 6 -20 -20 -15 6 -12 -20 -20 -20 -20 -20 -20 -20 -20 -5 2 5 -13 1 0 4 5 11 11 11 12 14
-20 -20 -20 -20 -20 -20 -11 -2 1 -9 -14 4 -6 9 -13 -20 -20 -20 -20 -20 -20 -20 -20 -20 -20 -20 -20 -20 -20 -20 -7 0 5 -3 8 -2 2 9
-20 -20 -20 -20 -20 -12 1 0 -3 3 9 11 5 -20 -7 -20 -20 -20 -9 -2 -0 -20 -20 -20 -20 -20 -20 -20 -20 -20 -20 -1 3 7 11 12 10 12
-20 -20 -20 -20 -20 -2 -2 3 9 8 19 10 8 2 -20 -20 -20 1 11 -20 -20 -20 -20 -20 -20 -20 -20 -20 -20 -20 -8 -0 0 7 9 13 18 17
-20 -20 -20 -20 -20 -20 -20 3 8 14 -20 2 -17 -20 -20 -20 3 7 8 10 7 -20 -20 -20 -20 -20 -20 -20 -20 -20 -20 -16 4 7 10 14 16 14
-20 -20 -20 -20 -20 -0 -8 17 -20 -20 -20 -20 -20 -3 10 3 -6 6 9 9 -12 -20 -20 -20 -20 -20 -20 -20 -20 -20 -20 -19 -4 3 8 11 11 13
-20 -20 -20 -11 -1 1 12 -17 -20 -20 -20 -20 8 -2 -20 -20 -15 3 -11 -20 -20 -20 -20 -20 -20 -20 -20 -20 -20 -20 -20 4 10 1 10 12 14 12
-20 -20 -20 -0 2 15 -2 1 -3 -20 -11 9 -20 -20 -20 -20 -20 -20 3 -7 -20 -10 -20 5 -20 -20 -1 -20 -20 -20 -20 -20 -20 -1 15 19 18 22
-20 -13 -20 -5 11 2 2 -18 -19 4 -16 -20 -20 -20 -20 -20 -20 -20 -16 9 0 -18 -20 10 -1 -20 -14 -20 -20 -20 -20 -20 -20 -20 -17 10 22 22
1 -4 -20 5 -14 -16 -20 -10 5 -3 -20 -20 -20 -20 -20 -20 -20 -20 -20 -20 -12 -20 -20 -19 13 -3 5 -13 -20 -20 -20 -20 -10 -18 -16 -20 -14 26
-1 -17 -5 -20 -20 -20 -20 -20 -20 -20 -20 -4 -18 -20 -20 -20 -20 -20 -20 -20 -20 -20 -20 -20 3 -2 -17 1 13 -16 -20 -20 -20 -13 9 10 25 16
-20 -20 -20 -20 -20 -20 -20 -20 -20 -20 -17 -20 -20 -20 -20 -20 -20 -20 -20 -20 -20 -20 -20 -20 8 6 10 -19 8 -17 -20 8 19 1 -1 10 21 -17
0 -20 -20 -20 -20 -20 -20 -20 -20 -20 -15 -20 -20 -20 -20 -20 -20 -20 -20 -20 -20 -20 -20 -20 4 6 -10 -0 -16 -20 14 11 6 10 17 18 -6 -9
-20 -20 -20 -20 -20 -20 -20 -20 -20 -20 -20 -20 -20 -20 -20 -20 -20 -20 -20 -20 -20 -20 -20 -20 -20 -13 -0 4 -13 6 -10 7 11 17 19 -11 -1 -13
-20 -20 -20 -20 -20 -20 -20 -20 -20 -20 -20 -20 -20 -20 -20 -20 -20 -20 -20 -20 -20 -20 -20 -20 -20 -18 -20 -20 -20 2 9 10 7 6 19 9 11 -17
-20 -20 -20 -20 -20 -20 -20 -20 -20 -20 -20 -20 -18 -20 -20 -20 -20 -20 -20 -20 -20 -20 -20 -20 -20 -18 8 14 13 -17 24 15 8 1 21 18 19 20
-20 -20 -20 -20 -20 -20 -20 -20 -20 -20 -5 2 -20 -20 -20 -16 -20 -20 -20 -20 -11 -20 -20 -20 -20 -16 -15 -20 -7 -20 -18 11 14 15 4 -1 7 18
-20 -20 -20 -20 -20 -20 -20 -20 -20 -20 -20 -20 -20 -20 -20 -18 -0 -20 -20 -20 -20 -20 -20 -20 -20 -20 -20 -20 -20 -20 -20 -20 -8 -16 -18 21 19 13
-20 -20 -20 -20 -20 -20 -20 -20 -20 -20 -20 -20 -20 -20 -20 -9 -20 -20 -20 -20 -20 -20 -20 -20 -20 -20 -20 -20 -20 -20 -20 -20 -20 -20 -20 6 21 28

GFSNE_prec_radar_048.txt.gz
Reflectivity
-20 -20 -20 -20 -20 -20 -20 -20 -20 -20 -20 -20 -20 -20 -20 -20 -20 -20 -20 -20 -20 -20 -20 -20 -20 -20 -20 -20 -18 4 20 3 21 19 13 11 6 -19
-20 -20 -20 -20 -20 -20 -20 -20 -20 -20 -20 -20 -20 -20 -20 -20 -20 -20 -20 -20 -20 -20 -20 -18 2 -19 -19 -12 -12 -9 13 13 3 -2 18 19 19 -3
-20 -20 -20 -20 -20 -20 -20 -20 -20 -20 -20 -20 -20 -20 -20 -20 -20 -20 -20 -20 -20 -20 -20 -20 -20 -4 -5 -9 -12 -19 -11 -16 -3 14 19 19 18 18
-20 -20 -20 -20 -20 -20 -20 -20 -20 -20 -20 -20 -20 -20 -20 -20 -20 -20 -20 -20 -20 -20 -20 -20 -20 -20 -0 -17 4 7 8 7 9 11 14 11 18 19
-20 -20 -20 -20 -20 -20 -20 -20 -20 -19 -4 8 -3 -20 -17 -15 -4 -20 -20 -20 -20 -20 -20 -20 -20 -20 -20 -20 -20 -20 -20 0 -15 -0 -18 4 9 -8
-20 -20 -20 -20 -20 -20 -20 -20 -20 -2 -20 -3 3 -11 9 -20 -20 -20 -20 -20 -20 -20 -20 -20 -20 -20 -20 -20 -20 -20 -20 -19 1 4 7 1 8 7
-20 -20 -20 -20 -20 -20 -16 -3 -2 0 7 13 15 6 -20 -20 -20 -20 1 -6 -6 -20 -20 -20 -20 -20 -20 -20 -20 -20 -20 -20 -12 -0 6 11 13 13
-20 -20 -20 -20 -20 -20 2 -1 4 7 14 17 9 6 -20 -20 -17 3 9 11 -0 -20 -20 -20 -20 -20 -20 -20 -20 -20 -20 -20 -8 2 6 9 11 12
-20 -20 -20 -20 -20 -20 -20 1 5 15 5 6 0 -20 -17 -7 3 12 6 9 9 -9 1 -20 -20 -20 -20 -20 -20 -20 -20 -20 -6 -1 7 9 11 12
-20 -20 -20 -20 -20 -4 -1 10 12 -10 -20 -20 -20 -20 3 8 5 3 8 4 -2 -20 -20 -20 -20 -20 -20 -20 -20 -20 -20 -20 -20 -15 -12 9 14 15
-20 -20 -20 -20 -9 -20 11 13 -5 -20 -20 -20 1 6 -8 -20 -4 5 6 7 -20 -20 -20 -20 -20 -20 -20 -20 -20 -20 -20 -20 -20 -20 -13 10 11 15
-20 -20 -20 -19 -20 8 -3 -1 -1 -20 -19 -3 -4 -20 -20 -20 -20 -11 6 8 -18 -19 -20 -6 -19 -0 -5 -20 -20 -20 -20 -20 -20 -20 6 5 1 8
-20 -20 -20 -20 4 -0 -1 -18 -20 -0 4 -18 -20 -20 -20 -20 -20 -17 -11 8 6 -8 -20 6 -1 -20 -6 -20 -20 -20 -20 -20 -20 -11 -20 -20 -6 15
-15 -20 -20 0 -14 -20 -20 -20 2 3 -20 -20 -20 -20 -8 -15 -3 -4 -3 1 3 -3 -20 -19 9 -6 -2 -13 -20 -20 -20 -20 1 3 5 4 12 11
-1 -5 -1 -19 -20 -20 -20 -20 -20 -20 -20 -4 3 1 2 -0 2 2 0 -1 -20 -13 -17 -20 5 -17 5 3 -8 -19 -20 -20 3 6 -2 -5 -4 13
-17 -4 -20 -20 -20 -20 -20 -20 -20 -20 -20 3 3 -1 -0 2 2 3 -10 -17 -16 -20 -20 -20 -15 6 10 -2 1 -19 -20 -7 8 12 -3 -8 6 24
-3 -20 -20 -20 -20 -20 -20 -20 -20 -20 -13 -11 1 1 -9 -1 -10 -1 -11 3 -9 -20 -20 -20 -10 -9 0 -20 -14 -20 -20 4 -2 20 10 7 -6 9
-20 -20 -20 -20 -20 -20 -20 -20 -20 -11 -17 -7 -14 -8 -13 -20 -12 -9 -1 -13 -20 -20 -20 -19 4 -14 -2 11 5 -20 3 -20 -17 21 15 12 -17 -8
-20 -20 -20 -20 -20 -20 -6 -3 -20 -20 -20 -20 -3 -20 -20 4 -19 -11 -20 -20 -20 -20 -20 -18 6 6 -9 -20 -16 4 11 -14 -16 1 13 9 -6 -5
-20 -20 -20 -20 -20 -6 -2 -20 -20 -20 -20 -19 -20 -20 -20 -4 -20 -20 -20 -20 -15 -9 -17 -19 4 5 3 9 5 -19 7 25 5 -16 -3 10 10 17
-20 -20 -20 -20 -12 -1 -11 -20 -20 -20 -3 -4 -20 -20 -20 -10 -20 -20 -20 -20 0 -15 -20 -20 -9 -20 -19 -19 -1 -20 -19 -1 8 21 12 0 2 -8
-20 -20 -20 -20 -20 -7 -20 -20 -20 -20 -20 -20 -20 -19 -20 -18 -8 -20 -20 -20 -20 -12 -2 -19 -20 -14 0 2 -5 -20 -10 -19 -7 -20 19 18 20 9
-20 -20 -20 -20 -20 -20 -18 -20 -20 -20 -20 -20 -20 -20 -1 -2 -20 -20 -20 -20 -20 5 -15 -3 -8 -20 -20 -6 -11 -20 -20 -20 -4 -9 -19 0 3 15

GFSNE_prec_radar_051.txt.gz
Reflectivity
-20 -20 -20 -20 -20 -20 -20 -20 -20 -20 -20 -20 -20 -20 -20 -20 -20 -20 -20 -20 -19 -20 -20 -20 -20 -7 -20 -20 -20 7 9 10 14 16 20 19 6 14
-20 -20 -20 -20 -20 -20 -20 -20 -20 -20 -20 -20 -20 -20 -20 -20 -20 -20 -20 -20 -20 -20 -20 -20 -20 -20 -20 -9 1 3 8 10 9 12 19 20 20 19
-20 -20 -20 -20 -20 -20 -20 -20 -20 -20 -20 -20 -20 -20 -20 -20 -20 -20 -20 -20 -20 -20 -20 -20 -15 -20 -9 6 -8 7 10 9 10 12 15 13 22 20
-20 -20 -20 -20 -20 -20 -20 -20 -20 -20 -20 -20 -20 -20 -20 -20 -20 -20 -20 -20 -20 -20 -20 -20 -20 -20 -19 -5 -10 -1 -18 -20 -19 8 12 13 7 12
-20 -20 -20 -20 -20 -20 -20 -20 -20 -20 -20 -20 -20 -20 -20 -20 -10 -11 -20 -20 -20 -20 -20 -20 -20 -20 -20 -4 -20 -5 -19 -17 -17 -18 -20 8 8 7
-20 -20 -20 -20 -20 -20 -20 -20 -20 -20 -18 -20 -20 -20 5 8 -20 -20 -20 -20 -20 -20 -20 -20 -20 -20 -20 -20 -20 -20 -20 -12 -6 -9 10 8 7 6
-20 -20 -20 -20 -20 -20 -20 -20 -9 -2 -20 -2 6 8 -20 -20 -20 -20 -20 -20 -20 0 -20 -20 -20 -20 -20 -20 -20 -20 -20 -20 -18 -18 0 6 8 10
-20 -20 -20 -20 -20 -20 -20 -9 -6 0 6 12 12 1 -20 -20 -20 -7 -20 -4 -18 -20 -20 -20 -20 -20 -20 -20 -20 -7 -20 -20 -20 6 5 12 10 9
-20 -20 -20 -20 -20 -20 -20 -20 -20 5 9 4 -6 -20 -20 -20 -20 -20 -3 -1 -20 -20 -20 -20 -20 -20 -20 -20 -20 -20 -20 -20 -20 9 13 11 13 12
-20 -20 -20 -20 -20 -20 -5 -5 -9 -13 -18 -20 -20 -20 -20 -10 16 6 -11 -20 -20 -20 -20 -20 -20 -20 -20 -20 -20 -20 -20 -20 -20 -16 -15 5 12 11
-20 -20 -20 -20 -20 -2 0 3 -8 -20 -20 -20 -20 -1 1 -16 -20 -13 -20 3 -20 -20 -20 -20 -20 -20 -20 -20 -20 -20 -20 -20 -20 -20 0 8 13 14
-20 -20 -20 -20 -8 -20 -8 -20 -18 -20 -20 -19 -11 -20 -20 -20 -20 -20 -6 9 -20 -17 -20 1 -15 -20 -18 -20 -20 -20 -20 -20 -20 -20 -5 4 7 3
-20 -20 -20 -20 -20 6 -1 -13 -20 -11 -15 -20 -20 -20 -20 -20 -20 -15 -5 -5 0 -16 -20 4 10 -19 -11 -20 -20 -20 -20 -20 -20 -20 -20 -7 8 12
-20 -20 -20 -11 -1 -15 -20 -20 -2 -5 -20 -20 -20 -20 -20 -11 -5 -20 -10 -6 -16 -4 -12 -13 10 -5 -2 -15 -20 -20 -20 -20 -20 -20 -20 17 14 11
-20 -20 -20 -20 -20 -20 -20 -20 -20 -20 -20 -13 -11 -9 -19 -4 -20 -4 -19 -14 -10 -20 -20 -20 -13 -6 -3 1 -17 -20 -20 -20 -20 -20 -14 -5 -13 -5
-20 -20 -20 -20 -20 -20 -20 -20 -20 -20 -20 -16 -20 -20 -20 -17 -10 -13 -14 -11 -20 -20 -20 -20 -20 1 7 -16 -9 -10 -20 -20 -19 -11 -6 -18 -19 -4
-10 -20 -20 -20 -20 -20 -20 -20 -20 -20 -18 -9 -2 -20 -20 -20 -20 -20 -20 -20 -17 -20 -20 -20 -18 -20 -18 2 8 -20 -20 -20 -12 -14 -12 -19 -20 -13
-20 -20 -20 -20 -20 -20 -20 -20 -20 -19 -20 -5 -20 -20 -20 -20 -20 -20 -20 -20 -19 -20 -20 -20 -20 -20 -20 5 10 4 -15 -20 -20 -15 -17 -7 -18 -20
-20 -20 -20 -20 -20 -20 -6 -9 -20 -20 -20 -20 -20 -20 -20 -20 -19 -20 -20 -20 -20 -20 -20 -19 -18 -18 -10 -20 -16 14 6 -20 -20 -20 -20 -17 1 -6
-20 -20 -20 -20 -20 -14 -20 -20 -20 -20 -20 -20 -20 -20 -20 -20 -20 -20 -20 -20 -20 -20 -20 -20 -18 -18 4 5 2 -9 -17 0 12 -1 -20 -17 11 -3
-20 -20 -20 -20 -20 -20 -20 -20 -20 -20 -10 -2 -19 -20 -20 2 -13 -20 -20 -20 -10 -20 -20 -20 -20 -1 -20 -20 -20 -20 -20 -20 15 18 10 -13 -20 -20
-20 -20 -20 -20 -20 -20 -20 -20 -20 -20 -20 -20 -20 -20 -7 -3 -8 -20 -20 -20 -20 -20 -20 -18 -17 -20 -2 -7 -20 -20 -20 -20 -16 5 8 26 24 12
-20 -20 -20 -20 -20 -20 -18 -18 -20 -20 -15 -1 -20 -6 8 12 -2 -18 -20 -20 -18 4 7 -20 -20 -20 -20 -7 -4 -20 -20 -20 -17 -20 -20 -15 11 23

GFSNE_prec_radar_054.txt.gz
Reflectivity
-20 -20 -20 -20 -20 -20 -20 -20 -20 -20 -20 -20 -20 -20 -20 -20 -20 -20 -20 -20 -20 -20 -6 -20 -17 -11 -20 -19 6 8 11 15 16 17 24 20 20 20
-20 -20 -20 -20 -20 -20 -20 -20 -20 -20 -20 -20 -20 -20 -20 -20 -20 -20 -20 -20 -20 -20 -20 2 -20 -14 4 -3 4 10 10 12 14 17 18 19 21 20
-20 -20 -20 -20 -20 -20 -20 -20 -20 -20 -20 -20 -20 -20 -20 -20 -20 -20 -20 -20 -20 -20 -20 -20 -6 -20 -18 4 -15 10 10 9 11 11 14 16 18 22
-20 -20 -20 -20 -20 -20 -20 -20 -20 -20 -20 -20 -20 -20 -20 -20 -20 -20 -20 -20 -20 -20 -20 -20 -20 -20 -10 3 -14 3 -8 1 0 2 8 6 10 12
-20 -20 -20 -20 -20 -20 -20 -20 -20 -20 -20 -20 -20 -20 -20 -20 -18 -20 -20 -20 -20 -20 -20 -20 -20 -20 -20 -8 -16 -5 -20 -19 -17 -20 -8 -4 10 10
-20 -20 -20 -20 -20 -20 -20 -20 -20 -20 -20 -20 -20 -20 -11 -9 -8 -20 -20 -20 -20 -20 -20 -20 -20 -20 -20 -20 -20 -20 -20 -19 -20 -3 -0 5 9 10
-20 -20 -20 -20 -20 -20 -20 -20 -20 -20 -20 -20 6 -2 -2 -20 -18 -20 -20 -20 -20 -20 -20 -20 -20 -20 -20 -20 -20 -20 -20 -5 2 4 8 11 13 13
-20 -20 -20 -20 -20 -20 -20 -20 -20 -5 -1 -20 -17 5 -14 -20 -20 -20 -20 -20 -18 -20 -20 -20 -20 -20 -20 -20 -20 -20 -20 -20 2 7 9 11 10 11
-20 -20 -20 -20 -20 -20 -20 -20 -20 -20 3 7 5 -20 -20 -20 -20 -19 -18 -13 -20 -20 -20 -20 -20 -20 -20 -20 -20 -20 -20 -20 -20 6 9 11 8 9
-20 -20 -20 -20 -20 -20 -20 -20 -20 -20 -20 -20 -5 -20 -20 -20 3 8 -14 -20 -20 -20 -20 -20 -20 -20 -20 -20 -20 -20 -20 -20 -20 -20 -13 8 7 8
-20 -20 -20 -20 -20 -17 -4 -20 -20 -20 -20 -20 -20 -1 2 -15 -18 -20 -20 -19 -20 -20 -20 -20 -20 -20 -20 -20 -20 -20 -20 -20 -20 -20 -20 2 4 9
-20 -20 -20 -20 -20 -20 4 -1 -20 -20 -20 -19 -20 -20 -20 -20 -20 -20 -20 -2 -20 -17 -20 -2 -20 -20 -19 -20 -20 -20 -20 -20 -20 -20 -20 -20 -20 0
-20 -20 -20 -20 1 6 -0 -18 -20 -14 -20 -20 -20 -20 -20 -20 -20 -20 -20 -13 -12 -19 -20 8 7 -20 -13 -20 -20 -20 -20 -20 -20 -20 -20 -20 -20 1
-20 -20 -20 -6 -2 -20 -14 -20 -19 -10 -20 -20 -20 -20 -20 -20 -20 -20 -20 -20 -20 -9 -20 -19 13 -9 -13 -15 -20 -20 -20 -20 -20 -20 -20 -20 -15 9
-20 -20 -19 -20 -20 -20 -20 -20 -20 -20 -20 -20 -20 -20 -20 -20 -20 -20 -20 -20 -20 -20 -20 -20 -14 -17 -16 -1 -18 -20 -20 -1 -0 -20 -20 -20 -7 -20
-20 -20 -20 -20 -20 -20 -20 -20 -20 -20 -20 -20 -20 -20 -20 -20 -20 -20 -20 -20 -20 -20 -20 -20 -20 -11 0 -18 -8 -15 -20 -19 -5 -20 -10 -2 -20 -20
-8 -20 -20 -20 -20 -20 -20 -20 -20 -20 -20 -20 -20 -20 -20 -20 -20 -20 -20 -20 -12 -20 -20 -20 -20 -20 -20 -20 -2 -20 -20 -20 -20 -20 -11 -20 -20 -20
-20 -20 -20 -20 -20 -20 -20 -20 -20 -20 -20 -20 -20 -20 -20 -20 -20 -20 -20 -20 -20 -20 -20 -20 -20 -20 -20 -20 -5 3 -14 -20 -20 -20 -19 6 -17 -20
-20 -20 -20 -20 -20 -20 -20 -20 -20 -20 -20 -20 -20 -20 -20 -20 -20 -20 -20 -20 -20 -20 -20 -20 -19 -13 -3 -20 -20 -2 9 -8 -20 -20 -1 -19 -20 -20
-20 -20 -20 -20 -20 -20 -20 -20 -20 -20 -20 -20 -20 -20 -20 -20 -20 -20 -20 -20 -17 -19 -20 -20 -20 -12 13 10 1 -20 -20 -19 -0 -4 -20 -20 -20 -20
-20 -20 -20 -20 -20 -20 -20 -20 -20 -20 -12 -2 -20 -20 -20 -1 -15 -20 -20 -20 -11 -20 -20 -20 -20 0 -12 -20 -19 -20 -20 -20 -2 14 7 -2 -20 -14
-20 -20 -20 -20 -20 -20 -20 -20 -20 -20 -20 -20 -20 -20 -15 -0 8 -3 -20 -18 -20 -20 -20 -20 -15 -20 -20 -20 -20 -20 -20 -20 -20 -19 -6 2 14 14
-20 -20 -20 -20 -20 -20 -20 -20 -20 -20 -19 -20 -20 -6 2 5 -20 -20 -20 -20 -20 -13 0 -20 -20 -20 -20 -20 -11 -2 -16 -20 -20 -20 -20 -20 -20 -20

GFSNE_prec_radar_057.txt.gz
Reflectivity
-20 -20 -20 -20 -20 -20 -20 -20 -20 -20 -20 -20 -20 -20 -20 -20 -20 -20 -20 -20 -20 -20 -20 -20 -20 -20 -2 -13 0 8 15 18 15 21 21 20 18 20
-20 -20 -20 -20 -20 -20 -20 -20 -20 -20 -20 -20 -20 -20 -20 -20 -20 -20 -20 -20 -20 -20 -20 -6 -20 -14 3 -3 5 11 10 12 14 15 21 20 20 20
-20 -20 -20 -20 -20 -20 -20 -20 -20 -20 -20 -20 -20 -20 -20 -20 -20 -20 -20 -20 -20 -20 -20 -20 -20 -17 -20 -1 -11 5 9 9 12 13 14 18 21 20
-20 -20 -20 -20 -20 -20 -20 -20 -20 -20 -20 -20 -20 -20 -20 -20 -20 -20 -20 -20 -20 -20 -20 -20 -20 -20 -20 -7 10 -18 8 5 -0 -18 -10 5 9 15
-20 -20 -20 -20 -20 -20 -20 -20 -20 -20 -20 -20 -20 -20 -20 -20 -20 -20 -20 -20 -20 -20 -20 -20 -20 -20 0 -20 -0 -20 -2 3 1 -19 8 2 11 12
-20 -20 -20 -20 -20 -20 -20 -20 -20 -20 -20 -20 -20 -20 -15 -20 -20 -20 -20 -20 -20 -20 -20 -20 -11 -20 -20 -20 -20 -20 -20 -2 1 5 8 11 12 12
-20 -20 -20 -20 -20 -20 -20 -20 -20 -20 -20 -20 -20 -20 -5 -6 -20 -20 -20 -20 -20 -20 -20 -20 -20 -20 -20 -20 -20 -20 -20 -3 -11 6 10 11 11 14
-20 -20 -20 -20 -20 -20 -20 -20 -20 -20 -20 -4 -1 5 -19 -20 -20 -20 -20 -20 -20 -20 -20 -20 -20 -20 -20 -20 -20 -20 -20 -4 -4 6 11 13 12 17
-20 -20 -20 -20 -20 -20 -20 -20 -20 -20 -3 3 -20 -20 -20 -20 -20 -19 -16 0 -20 -20 -20 -20 -20 -20 -20 -20 -20 -20 -20 -20 -8 5 11 11 7 4
-20 -20 -20 -20 -20 -20 -20 -20 -20 -20 -20 -20 -20 -20 -20 -13 8 -4 -19 -20 -20 -20 -20 -20 -20 -20 -20 -20 -20 -20 -20 -20 -20 -20 -20 6 9 11
-20 -20 -20 -20 -20 -20 -4 -7 -20 -20 -20 -20 -20 0 3 -19 -20 -20 -20 -20 -20 -20 -20 -20 -20 -20 -20 -20 -20 -20 -20 -20 -20 -20 -20 -13 2 7
-20 -20 -20 -20 -20 -13 3 -16 -20 -20 -20 -19 -20 -20 -20 -20 -20 -20 -20 -8 -20 -16 -20 -19 -20 -20 -18 -20 -20 -20 -20 -20 -20 -20 -20 -20 -20 -19
-20 -20 -20 -20 1 -1 -1 -18 -20 -16 -20 -20 -20 -20 -20 -20 -20 -20 -20 -20 -11 -19 -20 6 5 -20 -12 -20 -20 -20 -20 -20 -20 -20 -20 -20 -20 -5
-20 -20 -20 -3 -4 -16 -20 -20 -20 -20 -20 -20 -20 -20 -20 -20 -20 -20 -20 -20 -20 -20 -20 -20 10 -6 -6 -20 -20 -20 -20 -20 -20 -20 -20 -20 -20 -3
-20 -20 0 -18 -20 -20 -20 -20 -20 -20 -20 -20 -20 -20 -20 -20 -20 -20 -20 -20 -20 -20 -20 -20 -20 -20 -20 -19 -18 -20 -20 -20 -20 -20 -20 -20 -20 -20
-20 -20 -20 -20 -20 -20 -20 -20 -20 -20 -20 -20 -20 -20 -20 -20 -20 -20 -20 -20 -20 -20 -20 -20 -20 -20 -18 -19 -19 -19 -20 -20 -20 -20 -20 -18 -4 -3
-20 -20 -20 -20 -20 -20 -20 -20 -20 -20 -20 -20 -20 -20 -20 -20 -20 -20 -20 -20 -20 -20 -20 -20 -20 -20 -20 -20 -20 -20 -20 -20 -20 -20 -20 -20 -20 -20
-20 -20 -20 -20 -20 -20 -20 -20 -20 -20 -20 -20 -20 -20 -20 -20 -20 -20 -20 -20 -20 -20 -20 -20 -20 -20 -20 -20 -20 -20 -20 -20 -20 -20 -20 -16 -20 -20
-20 -20 -20 -20 -20 -20 -20 -20 -20 -20 -20 -20 -20 -20 -20 -20 -20 -20 -20 -20 -20 -20 -20 -20 -20 -15 -11 -20 -20 -20 11 -8 -20 -20 -20 -20 -18 -20
-20 -20 -20 -20 -20 -20 -20 -20 -20 -20 -20 -20 -20 -20 -20 -20 -20 -20 -20 -20 -20 -20 -20 -20 -20 -19 6 1 6 -20 -20 -7 -1 -12 -20 -20 -20 -20
-20 -20 -20 -20 -20 -20 -20 -20 -20 -20 -18 -18 -20 -20 -20 -4 -18 -20 -20 -20 -19 -20 -20 -20 -20 -16 -14 -13 -19 -20 -20 -5 5 14 11 8 -20 -20
-20 -20 -20 -20 -20 -20 -20 -20 -20 -20 -20 -20 -20 -20 -20 -19 -20 -20 -20 -9 -20 -20 -20 -20 -20 -20 -20 -12 -20 -20 -20 -20 -20 -20 -20 4 13 13
-20 -20 -20 -20 -20 -20 -20 -20 -20 -20 -20 -19 -20 -20 -20 -20 -20 -20 -20 -20 -20 -18 -19 -20 -20 -20 -20 -20 -8 -1 -20 -20 -20 -20 -20 -20 -20 -20

GFSNE_prec_radar_060.txt.gz
Reflectivity
11 -20 -20 -20 -20 -20 -20 -20 -20 -20 -20 -20 -20 -20 -20 -20 -20 -20 -20 -20 -20 -20 -20 -20 -19 -14 -20 -20 -3 10 -0 -9 14 16 15 18 20 20
-7 -20 -20 -20 -20 -20 -20 -20 -20 -20 -20 -20 -20 -20 -20 -20 -20 -20 -20 -20 -20 -20 -20 -13 -20 0 -20 -18 -20 5 -12 10 12 14 16 14 0 18
-20 -20 -20 -20 -20 -20 -20 -20 -20 -20 -20 -20 -20 -20 -20 -20 -20 -20 -20 -20 -20 -20 -20 -20 -20 -2 -20 -4 6 7 7 12 11 11 13 16 13 16
-20 -20 -20 -20 -20 -20 -20 -20 -20 -20 -20 -20 -20 -20 -20 -20 -20 -20 -20 -20 -20 -20 -20 -20 -20 -20 -20 -1 8 9 7 5 10 6 -19 3 9 11
9 4 -20 -20 -20 -20 -20 -20 -20 -20 -20 -20 -20 -20 -20 -20 -20 -20 -20 -20 -20 -20 -20 -20 -20 -20 -6 1 2 -10 3 3 1 -3 -2 7 11 12
12 -20 -20 -20 -20 -20 -20 -20 -20 -20 -20 -20 -20 -20 -20 -20 -20 -20 -20 -20 -20 -20 -20 -20 -20 -20 -20 -20 -20 -20 -20 -16 2 1 2 10 12 11
-20 -20 -20 -20 -20 -20 -20 -20 -20 -20 -20 -20 -16 -20 -20 -20 -20 -20 -20 -20 -20 -20 -20 -20 -20 -20 -20 -20 -20 -20 -20 -3 6 10 10 8 11 14
-20 -20 -20 -20 -20 -20 -20 -20 -20 -20 -20 -20 -4 -20 -20 -20 -20 -20 -20 -20 -20 -20 -20 -20 -20 -20 -20 -20 -20 -20 -20 -3 4 9 12 11 12 15
-20 -20 -20 -20 -20 -20 -20 -20 -20 -20 -1 2 -9 -20 -20 -20 -20 -20 -19 -5 -7 -20 -20 -20 -20 -20 -20 -20 -20 -20 -20 -20 0 1 12 10 9 9
-20 -20 -20 -20 -20 -20 -20 -20 -20 -20 -20 -20 -20 -20 -20 -11 8 8 -17 -20 -20 -20 -20 -20 -20 -20 -20 -20 -20 -20 -20 -20 -11 -8 -7 -13 5 11
-20 -20 -20 -20 -20 -20 -20 -20 -20 -20 -20 -20 -20 -0 1 -15 -17 -20 -20 -20 -20 -20 -20 -20 -20 -20 -20 -20 -20 -20 -20 -20 -20 -20 -17 -8 -1 11
-20 -20 -20 -20 -20 -14 -5 -20 -20 -20 -20 -20 -20 -20 -20 -20 -20 -20 -20 -20 -20 -18 -20 -20 -20 -19 -20 -20 -20 -20 -20 -20 -20 -20 -20 -20 -20 -20
-20 -20 -20 -20 -1 -7 -20 -20 -20 -16 -20 -20 -20 -20 -20 -20 -20 -20 -20 -20 -20 -20 -20 9 -4 -20 -7 -20 -20 -20 -20 -20 -20 -20 -20 -20 -20 -14
-20 -20 -20 -11 -16 -20 -20 -20 -20 -20 -20 -20 -20 -20 -20 -20 -20 -20 -20 -20 -20 -17 -20 -20 10 -20 -15 -18 -20 -20 -20 -20 -20 -20 -20 -20 -20 -14
-20 -20 -16 -20 -20 -20 -20 -20 -20 -20 -20 -20 -20 -20 -20 -20 -20 -20 -20 -20 -20 -20 -4 -20 -13 -18 -19 -10 -20 -20 -20 -20 -20 -20 -20 -20 -20 -20
-20 -20 -20 -20 -20 -20 -20 -20 -20 -20 -20 -20 -20 -20 -20 -20 -20 -20 -20 -20 -20 -20 -20 -20 -20 -20 -8 -20 -17 -19 -20 -20 -20 -20 -20 -20 -20 -20
-20 -20 -20 -20 -20 -20 -20 -20 -20 -20 -20 -20 -20 -20 -20 -20 -20 -20 -20 -20 -20 -20 -20 -20 -20 -20 -20 -20 -20 -20 -20 -20 -20 -20 -20 -20 -20 -20
-20 -20 -20 -20 -20 -20 -20 -20 -20 -20 -20 -20 -20 -20 -20 -20 -20 -20 -20 -20 -20 -20 -20 -20 -20 -20 -20 -20 -20 -20 -20 -20 -20 -20 -20 -14 -20 -20
-20 -20 -20 -20 -20 -20 -20 -20 -20 -20 -20 -20 -20 -20 -20 -20 -20 -20 -20 -20 -20 -20 -20 -20 -20 -4 2 -20 -20 -7 14 4 -20 -20 -20 -20 -20 -20
-20 -20 -20 -20 -20 -20 -20 -20 -20 -20 -20 -20 -20 -20 -20 -18 -20 -20 -20 -20 -19 -20 -20 -20 -20 -19 -9 -14 5 -20 3 5 -3 -18 -20 -20 -20 -20
-20 -20 -20 -20 -20 -20 -20 -20 -20 -20 -20 -20 -20 -20 -20 -8 -18 -20 -20 -20 -19 -20 -20 -20 -18 6 9 0 -11 -17 1 13 15 18 8 7 -16 -20
-20 -20 -20 -20 -20 -20 -20 -20 -20 -20 -20 -20 -20 -20 -20 -20 -16 -20 -20 -20 -20 -20 -19 -15 -20 -16 -20 -5 -16 -20 -20 -19 -6 11 16 18 15 15
-20 -20 -20 -20 -20 -20 -20 -20 -20 -20 -20 -20 -20 -20 -20 -20 -20 -20 -20 -19 3 4 2 -7 -20 -20 -7 9 11 12 -7 -20 -20 -15 -4 9 -10 -20

GFSNE_prec_radar_063.txt.gz
Reflectivity
-4 12 25 -5 -13 -20 -20 -20 -20 -20 -20 -20 -20 -20 -20 -20 -20 -20 -20 -20 -20 -20 -20 -20 -19 -20 -18 -20 -20 3 -8 6 -5 15 11 14 14 21
7 -20 2 20 -20 -20 -20 -20 -20 -20 -20 -20 -20 -20 -20 -20 -20 -20 -20 -20 -20 -20 -20 -20 -8 2 -6 -10 8 -0 8 9 6 13 15 17 23 19
20 21 -13 -14 4 -20 -20 -20 -20 -20 -20 -20 -20 -20 -20 -20 -20 -20 -20 -20 -20 -20 -20 -19 -0 2 -12 -16 -20 10 -5 10 10 15 11 14 14 17
22 -4 7 -20 -12 -2 -20 -20 -20 -20 -20 -20 -20 -20 -20 -20 -20 -20 -20 -20 -20 -20 -20 -20 -19 -20 -20 0 -19 8 11 9 9 10 11 -4 5 6
33 28 11 1 1 -3 -7 -19 -20 -20 -20 -20 -20 -20 -20 -20 -20 -20 -20 -20 -20 -20 -20 -20 -20 -20 -20 0 2 -4 -3 -1 1 -4 1 3 -8 4
21 9 0 -20 -8 -11 -20 -20 -20 -20 -20 -20 -20 -20 -20 -20 -20 -20 -20 -20 -20 -20 -20 -20 -20 -20 -20 -20 -20 -20 -20 -20 -2 -1 -2 3 -2 8
15 13 12 4 -5 -20 -20 -20 -20 -20 -20 -20 -20 -20 -20 -20 -20 -20 -20 -20 -20 -20 -20 -20 -20 -20 -20 -20 -20 -20 -20 -18 2 7 8 10 9 13
-7 2 -3 -19 -20 -20 -20 -20 -20 -20 -20 -20 -20 -20 -20 -20 -20 -20 -20 -20 -20 -20 -20 -20 -20 -20 -20 -20 -20 -20 -20 -20 -2 2 10 6 11 13
-4 -16 -20 -20 -20 -20 -20 -20 -20 -20 -7 -1 -20 -20 -20 -20 -20 -20 -19 -19 -20 -20 -20 -20 -20 -20 -20 -20 -20 -20 -20 -20 -7 2 -1 7 9 10
-20 -20 -20 -20 -20 -20 -20 -20 -20 -20 -20 -20 -20 -20 -20 -7 2 -2 -18 -20 -20 -20 -20 -20 -20 -20 -20 -20 -20 -20 -20 -20 -20 -2 -1 1 -11 -13
-20 -20 -20 -20 -20 -20 -20 -20 -20 -20 -20 -20 -20 -18 -16 -17 -20 -20 -20 -20 -20 -20 -20 -20 -20 -20 -20 -20 -20 -20 -20 -20 -20 -20 -20 -0 -1 6
-20 -20 -20 -20 -20 -3 -13 -20 -20 -20 -20 -20 -20 -20 -20 -20 -20 -20 -20 -20 -20 -20 -20 -18 -20 -20 -20 -20 -20 -20 -20 -17 -20 -20 -20 -16 -3 -20
-20 -20 -20 -20 1 -20 -20 -20 -20 -20 -20 -20 -20 -20 -20 -20 -20 -20 -20 -20 -20 -20 -20 12 -0 -19 -1 -20 -20 -20 -20 -20 -20 -20 -20 -20 -20 -11
-20 -20 -20 -13 -20 -20 -20 -20 -20 -20 -20 -20 -20 -20 -20 -20 -20 -20 -20 -20 -20 -15 -20 -6 14 -18 -15 -17 -20 -20 -20 -20 -20 -20 -20 -20 -18 -14
-20 -20 -20 -20 -20 -20 -20 -20 -20 -20 -20 -20 -20 -20 -20 -20 -20 -20 -20 -20 -20 -20 -20 -20 -2 -18 -10 -11 -20 -20 -20 -20 -20 -20 -20 -20 -20 -20
-20 -20 -20 -20 -20 -20 -20 -20 -20 -20 -20 -20 -20 -20 -20 -20 -20 -20 -20 -20 -20 -20 -20 -20 -20 -20 -9 -20 -15 -18 -20 -20 -20 -20 -20 -20 -20 -20
-20 -20 -20 -20 -20 -20 -20 -20 -20 -20 -20 -20 -20 -20 -20 -20 -20 -20 -20 -20 -20 -20 -20 -20 -20 -20 -20 -20 -20 -20 -20 -20 -20 -20 -20 -20 -20 -20
-20 -20 -20 -20 -20 -20 -20 -20 -20 -20 -20 -20 -20 -20 -20 -20 -20 -20 -20 -20 -20 -20 -20 -20 -20 -20 -20 -20 -17 -20 -18 -20 -20 -20 -20 -3 -19 -20
-20 -20 -20 -20 -20 -20 -20 -20 -20 -20 -20 -20 -20 -20 -20 -20 -20 -20 -20 -20 -20 -20 -20 -20 -12 1 6 -20 8 16 20 8 -19 -20 -20 -20 -20 -20
-20 -20 -20 -20 -20 -20 -20 -20 -20 -20 -20 -20 -20 -20 -20 -20 -20 -20 -20 -20 -17 -19 -20 -20 -19 4 11 4 11 -13 13 14 3 -10 -20 -20 -20 -20
-20 -20 -20 -20 -20 -20 -20 -20 -20 -20 -20 -20 -20 -20 -20 -18 -20 -20 -20 -20 -10 -20 -19 -20 -20 -6 5 3 -13 -19 -8 19 22 20 10 5 -17 -20
-20 -20 -20 -20 -20 -20 -20 -20 -20 -20 -20 -20 -20 -20 -20 -20 -19 -19 -20 -20 -20 -20 -10 -19 -2 1 -5 2 -5 -10 -20 -16 15 17 24 22 17 16
-20 -20 -20 -20 -20 -20 -20 -20 -20 -20 -20 -20 -20 -20 -20 -19 -20 -20 -19 -18 -5 4 -3 -3 -17 -5 2 13 10 -4 -20 -20 -20 -19 4 12 5 4

GFSNE_prec_radar_066.txt.gz
Reflectivity
-6 -13 20 -20 8 9 10 27 -19 -20 -20 -4 1 -7 -20 -20 -20 -20 -20 -20 -20 -20 -20 -20 -20 -9 -2 -18 -18 -20 0 12 13 11 19 16 16 14
0 -18 -5 -14 15 -1 9 20 -13 -19 -20 -20 -19 -16 -15 -20 -20 -20 -20 -20 -20 -20 -20 -20 -18 -1 -20 3 11 12 11 11 12 15 17 18 17 21
11 -3 -9 4 1 7 3 6 -19 -20 -20 -20 -20 -20 -20 -20 -20 -20 -20 -20 -20 -20 -20 -20 -9 -17 -11 -9 -1 5 11 12 13 12 16 14 15 15
30 3 21 7 29 21 24 13 -18 -20 -20 -20 -20 -20 -20 -20 -20 -20 -20 -20 -20 -20 -20 -20 -9 -20 -8 1 -10 8 11 12 13 13 10 5 14 11
16 23 19 22 26 28 -9 -19 -9 3 -12 -20 -20 -20 -20 -20 -20 -20 -20 -20 -20 -20 -20 -20 -20 -20 -7 1 0 -4 -1 -16 -3 7 10 2 0 -15
21 11 30 36 25 4 0 1 -10 -20 -19 -20 -20 -20 -20 -20 -20 -20 -20 -20 -20 -20 -20 -20 -20 -20 -20 -20 -20 -20 -20 -20 -17 -0 1 9 6 4
21 30 35 30 17 13 14 -19 -20 -20 -20 -20 -20 -20 -20 -20 -20 -20 -20 -20 -20 -20 -20 -20 -20 -20 -20 -20 -20 -20 -20 -20 -12 1 6 12 12 10
8 29 23 14 14 3 -5 -20 -20 -20 -20 -20 -20 -20 -20 -20 -20 -20 -20 -20 -20 -20 -20 -20 -20 -20 -20 -20 -20 -20 -20 -20 -1 1 12 12 11 10
25 23 15 -1 -20 -20 -20 -20 -20 -20 -20 -13 -20 -20 -20 -20 -20 -14 -17 -19 -20 -20 -20 -20 -20 -20 -20 -20 -20 -20 -20 -20 -0 0 9 11 10 11
19 -12 -20 -20 -20 -20 -20 -20 -20 -20 -20 -20 -20 -20 -20 -19 -8 -15 -20 -20 -20 -20 -20 -20 -20 -20 -20 -20 -20 -20 -16 -15 -20 -5 -8 8 7 4
-6 -20 -20 -20 -20 -20 -20 -20 -20 -20 -20 -20 -20 -18 -17 -20 -20 -20 -20 -20 -20 -20 -20 -20 -20 -20 -20 -20 -20 -20 -11 -5 -20 -20 -20 -2 -7 9
-20 -20 -20 -20 -20 -20 -20 -20 -20 -20 -20 -20 -20 -20 -20 -20 -20 -20 -20 -20 -20 -20 -20 -20 -20 -20 -20 -20 -20 -20 -20 -20 -20 -20 -20 -20 -11 -17
-20 -20 -20 -20 -20 -20 -20 -20 -20 -20 -20 -20 -20 -20 -20 -20 -20 -20 -20 -20 -20 -20 -20 -1 -5 -20 -4 -20 -20 -20 -20 -20 -20 -20 -20 -20 -20 -1
-20 -20 -20 -20 -20 -20 -20 -20 -20 -20 -20 -20 -20 -20 -20 -20 -20 -20 -20 -20 -20 -20 -20 -20 8 -20 -10 -18 -20 -20 -20 -20 -20 -20 -20 -20 -20 -16
-20 -20 -20 -20 -20 -20 -20 -20 -20 -20 -20 -20 -20 -20 -20 -20 -20 -20 -20 -20 -20 -20 -20 -20 -20 -20 -16 -17 -20 -20 -20 -20 -20 -20 -20 -20 -20 -20
-20 -20 -20 -20 -20 -20 -20 -20 -20 -20 -20 -20 -20 -20 -20 -20 -20 -20 -20 -20 -20 -20 -20 -20 -20 -16 -6 -19 -17 -19 -20 -20 -20 -20 -20 -20 -20 -20
-20 -20 -20 -20 -20 -20 -20 -20 -20 -20 -20 -20 -20 -20 -20 -20 -20 -20 -20 -20 -20 -20 -20 -20 -20 -20 -20 -16 6 -19 -20 -20 -20 -20 -20 -20 -20 -20
-20 -20 -20 -20 -20 -20 -20 -20 -20 -20 -20 -20 -20 -20 -20 -20 -20 -20 -20 -20 -20 -20 -20 -20 -20 -20 -20 5 3 -4 -13 -20 -20 -20 -20 -9 -20 -20
-20 -20 -20 -20 -20 -20 -20 -20 -20 -20 -20 -20 -20 -20 -20 -20 -20 -20 -20 -20 -20 -20 -20 -20 -5 -2 -10 -20 7 20 22 5 -20 -20 -20 -20 -20 -20
-20 -20 -20 -20 -20 -20 -20 -20 -20 -20 -20 -20 -20 -20 -20 -20 -20 -20 -20 -20 -20 -20 -20 -20 -20 8 15 14 13 -12 17 19 11 0 -19 -4 -2 -16
-20 -20 -20 -20 -20 -20 -20 -20 -20 -20 -20 -20 -20 -20 -20 -20 -20 -20 -20 -20 -20 -20 -20 -20 -20 -14 -9 -16 -20 -20 1 7 7 17 12 11 -19 -10
-20 -20 -20 -20 -20 -20 -20 -20 -20 -20 -20 -20 -20 -20 -20 -20 -19 -20 -20 -20 -20 -20 -20 -20 -20 -20 -9 6 -13 -20 -20 -20 -20 -10 -4 8 19 18
-20 -20 -20 -20 -20 -20 -20 -20 -20 -20 -20 -20 -20 -20 -20 -20 -20 -20 -19 -20 -20 -18 -20 -20 -20 -20 -6 5 3 -4 -20 -20 -20 -20 -8 3 -20 -20

GFSNE_prec_radar_069.txt.gz
Reflectivity
-20 7 -6 -17 -13 -20 -6 38 17 13 14 -8 -20 -13 -19 -20 -20 -20 -20 -20 -20 -20 -20 -20 -20 -20 -20 -20 -13 -20 -20 0 -8 11 18 13 18 18
5 -16 16 11 -1 22 -15 4 -3 11 -20 -6 5 19 -7 -20 -20 -20 -20 -20 -20 -20 -20 -20 -20 -13 -20 -20 -20 -12 12 13 12 14 14 15 18 16
-19 -4 6 -17 8 27 11 22 34 17 30 31 11 14 14 3 -11 -20 -20 -20 -20 -20 -20 -20 -16 -20 -20 -20 -20 -20 -18 7 12 13 15 16 15 17
-7 -13 12 9 27 35 35 33 20 15 -3 0 -9 -19 -4 -1 -17 -20 -20 -20 -20 -20 -20 -20 -20 -20 -20 -1 -12 1 8 11 10 11 5 8 11 13
-16 7 8 25 28 27 33 15 15 16 10 5 -11 -3 -5 -4 -20 -20 -20 -20 -20 -20 -20 -20 -20 -20 -20 -20 -3 -17 -20 -20 -1 2 -16 -3 1 -3
-14 16 22 25 35 25 20 13 9 16 19 13 -16 -19 -20 -20 -20 -20 -20 -20 -20 -20 -20 -20 -20 -20 -20 -20 -20 -20 -20 -20 -18 -6 3 4 4 -6
5 30 32 30 26 8 -3 5 13 18 12 -20 -20 -20 -20 -20 -20 -20 -20 -20 -20 -20 -20 -20 -20 -20 -20 -20 -20 -20 -20 -20 -14 1 8 9 12 15
25 23 12 24 24 7 14 14 10 -9 -20 -20 -20 -20 -20 -20 -20 -20 -20 -4 -20 -20 -20 -20 -20 -20 -20 -20 -20 -20 -20 -20 -14 2 7 11 11 14
7 12 6 11 14 10 -13 -20 -20 -20 -20 -20 -20 -20 -20 -20 -20 -20 -3 2 -6 -20 -20 -20 -20 -20 -20 -20 -20 -20 -20 -20 -20 3 4 5 6 12
16 6 12 11 9 -20 -20 -20 -20 -20 -20 -20 -20 -20 -20 -17 -9 -5 -3 -1 -20 -20 -20 -20 -20 -20 -20 -20 -20 -20 -20 -20 -20 -4 3 4 2 4
9 15 11 6 -20 -20 -20 -20 -20 -20 -20 -20 -20 -20 -20 -20 -20 -20 -20 -20 -20 -20 -20 -20 -20 -20 -20 -20 -20 -20 -20 -20 -20 -20 -20 -6 2 3
-18 -20 -20 -20 -20 -20 -20 -20 -20 -20 -20 -20 -20 -20 -20 -20 -20 -20 -20 -20 -19 -20 -20 -18 -20 -20 -20 -20 -20 -20 -20 -20 -20 -20 -20 -20 -20 -1
-20 -20 -20 -20 -20 -20 -20 -20 -20 -20 -20 -20 -20 -20 -20 -20 -20 -20 -20 -8 -20 -20 -20 9 -9 -20 -5 -20 -20 -20 -20 -20 -20 -20 -20 -20 -20 -3
-20 -20 -20 -20 -20 -20 -20 -20 -20 -20 -20 -20 -20 -20 -20 -20 -20 -20 -20 -20 -20 -20 -20 -19 0 -20 -20 -20 -20 -20 -20 -20 -20 -20 -20 -20 -20 -20
-20 -20 -20 -20 -20 -20 -20 -20 -20 -20 -20 -20 -20 -20 -20 -20 -20 -20 -20 -20 -20 -20 -20 -20 -20 -20 -12 -14 -20 -20 -20 -20 -20 -20 -20 -20 -20 -20
-20 -20 -20 -20 -20 -20 -20 -20 -20 -20 -20 -20 -20 -20 -20 -20 -20 -20 -20 -20 -20 -20 -20 -20 -20 -20 -20 -20 -20 -20 -20 -20 -20 -20 -20 -20 -20 -20
-20 -20 -20 -20 -20 -20 -20 -20 -20 -20 -20 -20 -20 -20 -20 -20 -20 -20 -20 -20 -20 -20 -20 -20 -20 -20 -20 -20 -15 -20 -20 -20 -20 -20 -20 -20 -15 -13
-20 -20 -20 -20 -20 -20 -20 -20 -20 -20 -20 -20 -20 -20 -20 -20 -20 -20 -20 -20 -20 -20 -20 -20 -20 -20 -20 -20 -6 -11 -19 -20 -20 -20 -18 -10 -10 8
-20 -20 -20 -20 -20 -20 -20 -20 -20 -20 -20 -20 -20 -20 -20 -20 -20 -20 -20 -20 -20 -20 -20 -20 -20 2 -20 -20 -8 4 10 -7 -20 -20 -19 -19 -20 -20
-20 -20 -20 -20 -20 -20 -20 -20 -20 -20 -20 -20 -20 -20 -20 -20 -20 -20 -20 -20 -20 -20 -20 -20 -20 -8 11 5 2 -20 5 0 1 -20 -20 -20 -20 -16
-20 -20 -20 -20 -20 -20 -20 -20 -20 -20 -20 -20 -20 -20 -20 -20 -20 -20 -20 -20 -20 -20 -20 -20 -20 -15 -9 6 -8 -20 -20 3 10 10 -2 -1 -20 -15
-20 -20 -20 -20 -20 -20 -20 -20 -20 -20 -20 -20 -20 -20 -20 -20 -20 -20 -20 -20 -20 -20 -20 -20 -15 -1 7 5 -20 -20 -20 -20 -15 10 17 23 19 15
-20 -20 -20 -20 -20 -20 -20 -20 -20 -20 -20 -20 -20 -20 -20 -20 -20 -20 -20 -20 -19 -8 -19 -20 -5 2 -17 -20 -20 -20 -20 -20 -20 -20 -5 16 18 9

GFSNE_prec_radar_072.txt.gz
Reflectivity
26 14 -19 -20 -7 0 41 16 -4 -1 0 -10 14 -4 7 7 4 -1 13 -20 -20 -20 -20 -20 -20 -20 -20 -20 -20 -20 -1 -19 -3 -20 10 8 16 17
32 27 16 -16 -20 7 -15 12 29 -1 30 30 25 23 30 20 30 15 7 -18 -20 -20 -20 -20 -20 -20 -20 -19 -13 -20 -19 -20 -20 -2 8 14 16 17
17 19 35 37 20 -12 3 7 5 19 10 37 37 33 18 17 1 -20 -20 -20 -20 -20 -20 -20 -20 -20 -20 -20 -20 -20 -20 -20 -14 10 9 11 14 17
15 -10 -9 18 32 27 7 15 33 24 24 30 14 17 14 10 1 7 -3 -20 -20 -20 -20 -20 -20 -20 -20 -20 -20 -6 -20 -2 -0 3 -18 -14 -2 -19
7 -0 -18 9 -10 1 20 28 39 24 11 7 12 2 2 -5 -6 -13 -20 -20 -20 -20 -20 -20 -20 -20 -20 -20 -20 -20 -20 -20 -20 -7 -1 2 -17 -6
9 -8 -11 -15 22 6 12 13 7 10 -7 -2 -5 -7 -14 -4 -20 -20 -20 -20 -20 -20 -20 -20 -20 -20 -20 -20 -20 -20 -20 -20 -20 -17 -5 -2 -7 3
-18 2 3 15 17 4 9 11 -4 -19 -4 7 10 -20 -20 -20 -20 -20 -20 -20 -20 -20 -20 -20 -20 -20 -20 -20 -20 -20 -20 -20 -20 -4 1 3 10 11
-8 -19 -20 -11 5 -12 -6 0 11 1 -10 -4 -2 -20 -20 -20 -20 -20 -20 -20 -20 -20 -20 -20 -20 -20 -20 -20 -20 -20 -20 -20 -20 -1 -0 2 8 11
19 -18 -18 -20 -20 -14 -7 -3 -11 -18 -19 -18 -20 -20 -20 -20 -18 -1 -11 -4 1 -20 -20 -20 -20 -20 -20 -20 -20 -20 -20 -20 -20 -20 -4 1 -8 8
-19 -20 -18 -0 0 -4 -9 -5 -16 -20 -20 -20 -20 -20 -20 -20 -10 -9 -7 -11 -20 -20 -20 -14 -20 -20 -20 -20 -20 -20 -20 -20 -20 -20 -20 0 3 -8
9 10 -6 -19 -20 -20 -20 -20 -20 -20 -20 -20 -20 -20 -20 -20 -20 -20 -6 -2 -20 -20 -20 -20 -20 -20 -20 -20 -20 -20 -20 -20 -20 -20 -20 -20 1 1
-20 -20 -20 -20 -20 -20 -20 -20 -20 -20 -20 -20 -20 -20 -20 -20 -20 -20 -20 -19 -3 -20 -20 -18 -20 -19 -19 -20 -20 -20 -20 -20 -20 -20 -20 -20 -20 -4
-20 -20 -20 -20 -20 -20 -20 -20 -20 -20 -20 -20 -20 -20 -20 -20 -20 -20 -20 -20 -14 -14 -20 -1 1 -1 5 -20 -20 -20 -20 -20 -20 -20 -20 -20 -20 -14
-20 -20 -20 -20 -20 -20 -20 -20 -20 -20 -20 -20 -20 -20 -20 -20 -20 -20 -20 -20 -13 -7 -20 -0 -5 -1 2 -20 -20 -20 -20 -20 -15 -20 -20 -20 -20 -15
-20 -20 -20 -20 -20 -20 -20 -20 -20 -20 -20 -20 -20 -20 -20 -20 -20 -20 -20 -20 -19 -20 -17 -20 -1 -11 2 -20 -20 -20 -20 -20 -20 -7 -2 -15 -2 -8
-20 -20 -20 -20 -20 -20 -20 -20 -20 -20 -20 -20 -20 -20 -20 -20 -20 -20 -16 -6 -20 -20 -20 -20 -15 -1 -20 -20 2 -20 -20 -16 -20 -17 0 2 1 -2
-20 -20 -20 -20 -20 -20 -20 -20 -20 -20 -20 -20 -20 -20 -20 -20 -20 -20 -20 -2 -13 -20 -20 -20 -14 2 -5 -9 -20 -20 -20 -20 -10 -18 -18 -20 -20 -20
-20 -20 -20 -20 -20 -20 -20 -20 -20 -20 -20 -20 -20 -20 -20 -20 -20 -17 2 4 -20 -20 -20 -19 -1 -15 -1 1 -8 -18 -15 -5 -12 -7 -20 2 -17 -12
-20 -20 -20 -20 -20 -20 -20 -20 -20 -20 -20 -20 -20 -20 -20 -20 -3 -20 -20 -20 -4 -20 -9 -19 4 8 2 -17 -13 6 4 4 4 1 -0 3 -20 -20
-20 -20 -20 -20 -20 -20 -20 -20 -20 -17 -20 -7 -17 -16 -20 -20 -20 -20 -20 -20 1 1 2 -0 3 5 10 2 -1 -20 -20 -19 0 -19 -20 4 1 -8
-20 -20 -20 -20 -20 -20 -20 -20 -20 -20 -14 -10 -20 -20 -20 -20 -20 -20 -20 -20 1 -10 -9 -20 -13 -7 -20 -8 7 -10 -20 7 8 4 -9 -5 -20 -20
-20 -20 -20 -20 -20 -20 -20 -20 -20 -8 -20 -20 -20 -20 -20 -20 -20 -20 -20 -20 -20 -20 -18 -5 -10 -2 4 10 4 -15 -20 -20 -7 -14 -20 6 12 13
-20 -20 -20 -20 -20 -20 -20 -20 -20 -20 -20 -20 -18 -19 -20 -20 -20 -20 -18 -18 -17 -10 8 2 3 2 2 1 7 4 -20 -20 -20 -20 -1 14 17 15

GFSNE_prec_radar_075.txt.gz
Reflectivity
7 16 15 16 -15 12 20 39 23 32 14 30 5 10 14 28 12 18 16 31 12 -3 8 -4 -20 -20 -20 -20 -20 -20 -20 -17 -1 -5 -0 -16 15 13
11 -18 22 -2 28 25 35 40 8 21 34 30 6 26 18 -8 10 -1 12 28 8 -20 -20 -20 -20 -20 -20 -20 -20 -6 -9 -20 -15 -20 -16 -1 11 15
20 18 1 4 28 27 33 38 39 34 36 32 22 1 -15 20 4 -5 -6 -1 -8 -19 -20 -20 -20 -20 -20 -20 -5 -5 -2 -15 -20 -10 -3 4 19 12
21 24 22 2 -9 10 -1 32 -0 -19 -7 -19 -20 -20 -18 -16 -20 -20 -18 -20 -20 -2 -14 -20 -20 -20 -20 -20 -5 -20 -3 -2 -12 -20 -19 -19 -20 -20
20 15 12 18 14 2 -7 -14 -20 -15 -20 -20 -20 -20 -20 -20 -20 -16 -16 -20 -20 -20 -20 -20 -20 -20 -20 -20 -20 -20 -20 -20 -20 -17 -3 -3 -2 1
11 20 6 -11 -20 3 -20 -20 -14 -20 -20 -20 -20 -20 -20 -18 -20 -20 -20 -20 -20 -20 -20 -20 -20 -20 -20 -20 -20 -20 -20 -20 -20 -20 -15 -4 -2 6
11 13 17 6 23 5 -18 -20 -20 -20 -20 -20 -20 -20 -20 -20 -19 -19 -20 -20 -20 -20 -20 -20 -20 -20 -20 -20 -20 -20 -20 -20 -20 -3 -0 1 6 9
18 26 41 18 -6 14 14 3 -20 -16 -20 -2 -20 -20 -20 -20 -20 -20 -20 -20 -20 -20 -20 -20 -20 -20 -20 -20 -20 -20 -20 -20 -20 -20 0 -1 -5 6
19 29 20 22 17 5 -2 2 -11 -20 -20 -20 -20 -20 -20 -20 -20 -20 -20 -4 -20 -20 -20 -20 -20 -20 -20 -20 -20 -20 -20 -20 -20 -20 -20 -3 -0 -11
-20 -15 11 14 -8 -8 -12 -14 -14 -20 -20 -20 -20 -20 -20 -20 -20 -16 -16 -20 -20 -20 -20 -20 -20 -20 -20 -20 -20 -20 -20 -20 -20 -20 -20 -10 -2 -1
-4 3 1 -18 -20 -20 -20 -20 -20 -20 -20 -20 -20 -20 -20 -20 -20 -20 -20 -8 -8 -20 -20 -20 -20 -20 -20 -20 -20 -20 -20 -20 -20 -20 -20 -17 -5 1
-20 -20 -20 -20 -20 -20 -20 -20 -20 -20 -20 -20 -20 -20 -20 -20 -20 -20 -20 -20 -20 -20 -20 -20 -20 -19 -20 -20 -20 -20 -20 -20 -20 -20 -20 -20 -3 -20
-20 -20 -20 -20 -20 -20 -20 -20 -20 -20 -20 -20 -20 -20 -20 -20 -20 -20 -20 -20 -20 -20 -20 -10 -19 -20 -6 -20 -20 -20 -20 -20 -20 -20 -20 -20 -20 -13
-20 -20 -20 -20 -20 -20 -20 -20 -20 -20 -20 -20 -20 -20 -20 -20 -20 -20 -20 -20 -20 -16 -20 -13 -19 -20 -20 -20 -20 -20 -20 -20 -20 -20 -20 -20 -17 -17
-20 -20 -20 -20 -20 -20 -20 -20 -20 -20 -20 -20 -20 -20 -20 -20 -20 -20 -20 -20 -20 -20 -20 -20 -20 -20 -19 -20 -20 -20 -20 -20 -20 -20 -20 -1 -20 -20
-20 -20 -20 -20 -20 -20 -20 -20 -20 -20 -20 -20 -20 -20 -20 -20 -20 -20 -20 -20 -20 -20 -20 -20 -18 -14 -17 -19 -18 -20 -20 -18 -20 -20 -20 -20 -20 -20
-20 -20 -20 -20 -20 -20 -20 -20 -20 -20 -20 -20 -20 -20 -20 -20 -20 -20 -20 -20 -20 -20 -20 -20 -19 -19 -17 -20 -15 -20 -20 -20 -20 -20 -19 -19 -20 -20
-20 -20 -20 -20 -20 -20 -20 -20 -20 -20 -20 -20 -12 -14 -20 -20 -20 -20 -20 -20 -20 -20 -20 -20 -20 -20 -20 -20 -20 -20 -13 -15 -20 -14 -2 -2 -20 2
-20 -20 -20 -20 -20 -20 -20 -20 -20 -20 -20 -20 -20 -20 -20 -20 -19 -20 -20 -20 -19 -20 -20 -20 -20 -17 -13 -20 -19 -1 11 -6 -20 -20 -20 -20 -20 -20
-20 -20 -20 -20 -20 -20 -20 -20 -20 -20 -20 -20 -20 -16 -20 -6 -20 -20 -20 -20 -20 -20 -20 -20 -20 -20 0 -10 -19 -20 9 1 -5 -17 -20 -20 -20 -20
-20 -20 -20 -20 -20 -20 -20 -20 -20 -20 -19 -20 -20 -20 -20 -20 -20 -20 -20 -10 -11 -20 -20 -20 -20 -20 -20 -10 1 -20 -16 13 10 10 -12 -14 -20 -20
-20 -20 -20 -20 -20 -20 -20 -15 -20 -20 -20 -20 -20 -20 -20 -20 -20 -20 -20 -20 -20 -20 -20 -20 -20 -20 -17 -16 -18 -20 -20 -17 1 -17 -15 12 13 12
-20 -20 -20 -20 -20 -20 -20 -20 -20 -20 -20 -19 -20 -20 -20 -20 -20 -20 -20 -20 -20 -20 -20 -17 -20 -20 -18 4 10 -6 -5 -20 -20 -20 9 15 10 3

GFSNE_prec_radar_078.txt.gz
Reflectivity
18 12 15 21 19 21 22 -9 9 23 24 37 37 39 36 32 36 39 15 20 9 -4 -11 4 -4 -15 10 4 -9 -20 -20 -20 -20 -5 -20 -7 3 14
22 21 21 17 20 20 22 22 23 28 18 41 26 25 32 33 27 14 8 2 -9 -12 -20 -20 -20 -20 -20 -20 -20 -20 -20 -4 -15 -17 0 12 9 11
16 16 18 15 23 19 23 21 18 26 24 35 27 24 -1 11 2 -16 -20 -20 -20 -20 -20 -20 -20 -20 -20 -20 -20 -6 -4 -1 -10 -9 -9 -7 11 -2
8 0 5 13 11 16 19 27 -1 3 30 11 -3 -20 -20 -20 -20 -20 -20 -20 -20 -20 -20 -20 -20 -20 -20 -20 -20 -19 -1 2 -0 3 11 13 3 3
-7 -2 15 12 -5 17 1 15 30 -8 -20 -20 -20 -20 -20 -20 -20 -20 -20 -20 -20 -20 -20 -20 -20 -20 -20 -20 -20 -20 -20 -6 -3 6 8 -16 -20 -7
-13 -19 -1 -1 6 -14 16 7 4 -20 -20 -20 -20 -20 -20 -20 -20 -20 -20 -20 -20 -20 -20 -20 -20 -20 -20 -20 -20 -20 -20 -20 -20 -20 -20 -14 -18 -8
-20 -17 -12 16 28 13 10 -3 2 0 1 8 -14 -16 -20 -20 -20 -20 -20 -20 -20 -20 -20 -20 -20 -20 -20 -20 -20 -20 -20 -20 -20 -20 -5 -6 10 11
0 10 25 26 32 33 20 8 15 -18 -20 -20 -20 -16 -20 -20 -20 -20 -20 -20 -20 -20 -20 -20 -20 -20 -20 -20 -20 -20 -20 -20 -20 -1 2 9 9 0
18 29 13 1 11 -18 -5 -7 -20 -12 -17 -17 -20 -20 -20 -20 -20 -20 -20 -20 -20 -20 -20 -20 -20 -20 -20 -20 -20 -20 -20 -20 -20 -20 -3 -7 2 12
-20 -20 -20 -20 -20 -20 -20 -20 -20 -20 -20 -20 -20 -20 -20 -20 -20 -20 -20 -20 -20 -20 -20 -20 -20 -20 -20 -20 -20 -20 -20 -20 -20 -20 -20 -1 8 11
-20 -20 -20 -20 -20 -20 -20 -20 -20 -20 -20 -20 -20 -20 -20 -20 -20 -20 -20 -20 -20 -20 -20 -20 -20 -20 -20 -20 -20 -20 -20 -20 -20 -20 -20 -17 -4 -0
-20 -20 -20 -20 -20 -20 -20 -20 -20 -20 -20 -20 -20 -20 -20 -20 -20 -20 -20 -20 -20 -20 -20 -20 -20 -20 -20 -20 -20 -20 -20 -20 -20 -20 -20 -17 -12 -10
-20 -20 -20 -20 -20 -20 -20 -20 -20 -20 -20 -20 -20 -20 -20 -20 -20 -20 -20 -20 -20 -20 -20 -7 -20 -20 -18 -20 -20 -20 -20 -20 -20 -20 -20 -20 -12 -8
-20 -20 -20 -20 -20 -20 -20 -20 -20 -20 -20 -20 -20 -20 -20 -20 -20 -20 -20 -20 -20 -20 -20 -19 -6 -19 -20 -20 -20 -20 -20 -20 -20 -20 -20 -20 -17 -16
-20 -20 -20 -20 -20 -20 -20 -20 -20 -20 -20 -20 -20 -20 -20 -20 -20 -20 -20 -20 -20 -20 -20 -20 -18 -19 -12 -17 -20 -20 -20 -20 -20 -20 -20 -20 -20 -20
-20 -20 -20 -20 -20 -20 -20 -20 -20 -20 -20 -20 -20 -20 -20 -20 -20 -20 -20 -20 -20 -20 -20 -20 -19 -20 -17 -19 -18 -20 -20 -20 -20 -20 -20 -20 -20 -20
-20 -20 -20 -20 -20 -20 -20 -20 -20 -20 -20 -20 -20 -20 -20 -20 -20 -20 -20 -20 -20 -20 -20 -20 -20 -20 -20 -20 -20 -20 -20 -20 -20 -20 -20 -20 -18 -13
-20 -20 -20 -20 -20 -20 -20 -20 -20 -20 -20 -20 -20 -20 -20 -20 -20 -20 -20 -20 -20 -20 -20 -20 -20 -20 -20 -20 -20 -20 -20 -20 -20 -20 -20 -20 -20 -20
-20 -20 -20 -20 -20 -20 -20 -20 -20 -20 -20 -20 -20 -20 -20 -20 -19 -20 -20 -20 -20 -20 -20 -20 -20 -13 -15 -20 -20 -20 -20 -20 -20 -20 -20 -20 -20 -20
-20 -20 -20 -20 -20 -20 -20 -20 -20 -20 -20 -20 -20 -20 -20 -20 -20 -20 -20 -20 -20 -20 -20 -20 -20 -20 -19 -19 -5 -20 -20 -20 -19 -10 -20 -20 -20 -20
-20 -20 -20 -20 -20 -20 -20 -20 -20 -20 -20 -20 -20 -20 -20 -20 -20 -20 -20 -20 -12 -20 -20 -20 -20 -20 -20 -13 2 -20 -20 -20 -20 -6 0 -3 -19 -20
-20 -20 -20 -20 -20 -20 -20 -20 -20 -20 -20 -20 -20 -20 -20 -20 -20 -20 -20 -20 -20 -20 -20 -20 -20 -20 -20 -4 -20 -20 -20 -20 -20 -13 -2 8 14 13
-20 -20 -20 -20 -20 -20 -20 -20 -20 -20 -20 -20 -20 -20 -20 -20 -20 -20 -20 -20 -20 -20 -20 -20 -20 -20 -20 -20 -19 -14 -20 -20 -20 -20 5 13 -2 -6

GFSNE_prec_radar_081.txt.gz
Reflectivity
-20 -20 18 -10 24 18 20 25 22 20 5 13 8 31 19 10 29 27 21 18 15 21 19 13 -4 4 -5 -17 -20 -20 -20 -20 -20 -20 -1 -20 -18 6
-11 -16 -4 14 14 23 23 23 19 21 24 -2 36 13 40 24 12 10 3 9 20 9 15 5 -2 -16 -19 -20 -20 -20 -20 -2 -14 1 1 -14 15 10
-19 -16 11 16 8 8 10 16 18 23 9 9 22 19 2 -8 -19 -20 -20 -20 -14 -10 -4 -20 -20 -20 -20 -20 -20 -11 -13 2 1 -4 7 9 12 9
-20 -20 -20 -20 11 -5 -19 -14 -2 0 28 29 27 10 -12 -11 -20 -20 -20 -20 -20 -20 -20 -20 -20 -20 -20 -20 -20 -19 -20 9 13 13 13 12 14 14
-17 -10 -11 -11 -20 -20 -20 -20 -16 7 8 31 10 -12 -13 -10 -19 -16 6 -13 -20 -20 -20 -20 -20 -20 -20 -20 -20 -20 -20 -20 -20 -20 -20 -20 -12 -17
-20 -20 -20 -15 -20 10 1 -11 20 -12 10 -3 -20 -5 -8 -2 -5 -19 -20 -20 -20 -20 -20 -20 -20 -20 -20 -20 -20 -20 -20 -20 -20 -20 -20 -8 -18 4
-20 -19 -16 4 10 3 -5 21 12 1 4 3 3 -15 -20 -20 -20 -20 -20 -20 -20 -20 -20 -20 -20 -20 -20 -20 -20 -20 -20 -20 -20 -8 -16 -15 6 9
-20 -20 -2 4 14 8 0 -20 -20 -20 -20 -20 -20 -20 -20 -20 -20 -20 -20 -20 -20 -20 -20 -20 -20 -20 -20 -20 -20 -20 -20 -20 -20 -11 4 10 9 12
-20 -20 -20 -20 -20 -20 -20 -20 -20 -20 -20 -20 -20 -20 -20 -20 -20 -20 -20 -20 -20 -20 -20 -20 -20 -20 -20 -20 -20 -20 -20 -20 -20 -1 3 7 11 11
-20 -20 -20 -20 -20 -20 -20 -20 -20 -20 -20 -20 -20 -20 -20 -20 -20 -20 -20 -20 -20 -20 -20 -20 -20 -20 -20 -20 -20 -20 -20 -20 -20 -20 -20 -14 -9 3
-20 -20 -20 -20 -20 -20 -20 -20 -20 -20 -20 -20 -20 -20 -20 -20 -20 -20 -20 -20 -20 -20 -20 -20 -20 -20 -20 -20 -20 -20 -20 -20 -20 -20 -20 -13 -12 4
-20 -20 -20 -20 -20 -20 -20 -20 -20 -20 -20 -20 -20 -20 -20 -20 -20 -20 -20 -20 -20 -20 -20 -20 -20 -20 -20 -20 -20 -20 -20 -20 -20 -20 -20 -20 -5 -20
-20 -20 -20 -20 -20 -20 -20 -20 -20 -20 -20 -20 -20 -20 -20 -20 -20 -20 -20 -20 -20 -20 -20 -16 -20 -20 -20 -20 -20 -20 -20 -20 -20 -20 -20 -20 -20 -5
-20 -20 -20 -20 -20 -20 -20 -20 -20 -20 -20 -20 -20 -20 -20 -20 -20 -20 -20 -16 -20 -20 -20 -20 -16 -18 -19 -20 -20 -20 -20 -20 -20 -20 -20 -20 -20 -20
-20 -20 -20 -20 -20 -20 -20 -20 -20 -20 -20 -20 -20 -20 -20 -20 -20 -20 -20 -20 -20 -20 -19 -20 -20 -20 -17 -19 -20 -20 -20 -20 -20 -20 -20 -20 -20 -20
-20 -20 -20 -20 -20 -20 -20 -20 -20 -20 -20 -20 -20 -20 -20 -20 -20 -20 -20 -20 -20 -20 -20 -20 -20 -20 -20 -20 -20 -20 -20 -17 -20 -20 -20 -20 -20 -20
-20 -20 -20 -20 -20 -20 -20 -20 -20 -20 -20 -20 -20 -20 -20 -20 -20 -20 -20 -20 -20 -20 -20 -20 -20 -20 -20 -20 -20 -20 -20 -20 -20 -20 -20 -20 -20 -20
-20 -20 -20 -20 -20 -20 -20 -20 -20 -20 -20 -20 -20 -20 -20 -20 -20 -20 -20 -20 -20 -20 -20 -20 -20 -20 -20 -20 -20 -20 -20 -20 -20 -20 -20 -20 -20 -20
-20 -20 -20 -20 -20 -20 -20 -20 -20 -20 -20 -20 -20 -20 -20 -20 -19 -20 -20 -20 -20 -20 -20 -20 -20 -20 -19 -20 -20 -20 -20 -20 -20 -20 -20 -20 -20 -20
-20 -20 -20 -20 -20 -20 -20 -20 -20 -20 -20 -20 -20 -20 -20 -20 -20 -20 -20 -20 -20 -20 -20 -20 -20 -20 -20 -20 -16 -20 -20 -20 -20 -20 -20 -20 -14 -14
-20 -20 -20 -20 -20 -20 -20 -20 -20 -20 -20 -20 -20 -20 -20 -20 -20 -20 -20 -11 -10 -20 -20 -20 -20 -20 -20 -20 -19 -20 -20 -20 -20 -20 -15 -14 -20 -20
-20 -20 -20 -20 -20 -20 -20 -20 -20 -20 -20 -20 -20 -20 -20 -20 -20 -20 -20 -20 -20 -20 -20 -20 -20 -20 -20 -18 -20 -20 -20 -20 -20 -20 -20 -18 -10 8
-20 -20 -20 -20 -20 -20 -20 -20 -20 -20 -20 -20 -20 -20 -20 -20 -20 -20 -20 -20 -20 -20 -20 -20 -20 -20 -20 -20 -19 -20 -20 -20 -20 -20 -20 -20 -20 -20

GFSNE_prec_radar_084.txt.gz
Reflectivity
-20 -20 -20 -17 -2 14 9 16 -7 5 -3 -15 -20 -11 -7 8 21 10 28 30 21 15 16 13 15 12 13 10 5 2 -20 -17 -20 -20 -20 -17 -10 -1
5 5 9 3 -8 -18 10 6 19 2 13 -8 2 -20 -15 -4 5 20 28 21 14 9 5 15 12 -9 -17 -17 -20 -20 -20 -14 -17 -7 -1 4 14 12
11 6 11 -2 -17 4 -13 12 -2 -3 -11 -9 -6 12 -5 7 17 19 16 16 -10 -0 -11 -19 -20 -20 -20 -20 -20 -20 -20 -20 -14 -5 6 15 11 14
6 -20 -17 -19 -20 -6 -20 -11 -20 -5 -20 -20 -17 -20 -11 16 23 9 -13 -19 6 -16 -20 -20 -20 -20 -20 -20 -20 -20 -20 10 10 11 12 14 16 16
-19 3 -20 -16 -20 -13 -1 -12 -20 -20 -18 -6 -14 -2 0 -8 -0 9 -16 -20 -20 -20 -20 -20 -20 -20 -20 -20 -20 -20 -20 -20 -20 -20 -20 -20 -20 -20
-9 -20 -20 -20 -10 -20 -20 -20 -20 -20 -1 16 -1 -16 -11 -8 -8 -19 -20 -20 -20 -20 -20 -20 -20 -20 -20 -20 -20 -20 -20 -20 -20 -20 -20 -20 -2 9
-20 -20 -20 -4 -18 -17 -20 -20 -20 -19 -20 -20 -20 -20 -20 -20 -20 -20 -20 -20 -20 -20 -20 -20 -20 -20 -20 -20 -20 -20 -20 -20 -20 -20 -20 -20 -8 9
-20 -20 -20 2 -0 -13 -20 -20 -20 -20 -20 -20 -20 -20 -20 -20 -20 -20 -20 -20 -20 -20 -20 -20 -20 -20 -20 -20 -20 -20 -20 -20 -20 -20 -20 -17 10 9
-20 -20 -20 -20 -20 -20 -20 -20 -20 -20 -20 -20 -20 -20 -20 -20 -20 -20 -20 -20 -20 -20 -20 -20 -20 -20 -20 -20 -20 -20 -20 -20 -20 -18 -1 -4 -1 5
-20 -20 -20 -20 -20 -20 -20 -20 -20 -20 -20 -20 -20 -20 -20 -20 -20 -20 -20 -20 -20 -20 -20 -20 -20 -20 -20 -20 -20 -20 -20 -20 -20 -20 -20 -14 -17 -15
-20 -20 -20 -20 -20 -20 -20 -20 -20 -20 -20 -20 -20 -20 -20 -20 -20 -20 -20 -20 -20 -20 -20 -20 -20 -20 -20 -20 -20 -20 -20 -20 -20 -20 -20 -17 -19 -12
-20 -20 -20 -20 -20 -20 -20 -20 -20 -20 -20 -20 -20 -20 -20 -20 -20 -20 -20 -20 -20 -20 -20 -20 -20 -19 -20 -20 -20 -20 -20 -20 -20 -20 -20 -20 -14 -20
-20 -20 -20 -20 -20 -20 -20 -20 -20 -20 -20 -20 -20 -20 -20 -20 -20 -20 -20 -20 -20 -20 -20 -20 -20 -20 -20 -20 -20 -20 -20 -20 -20 -20 -20 -20 -20 -14
-20 -20 -20 -20 -20 -20 -20 -20 -20 -20 -20 -20 -20 -20 -20 -20 -20 -20 -20 -20 -20 -20 -20 -20 -19 -20 -20 -20 -20 -20 -20 -20 -20 -20 -20 -20 -20 -20
-20 -20 -20 -20 -20 -20 -20 -20 -20 -20 -20 -20 -20 -20 -20 -20 -20 -20 -20 -20 -20 -20 -20 -20 -20 -20 -20 -20 -20 -20 -20 -20 -20 -20 -20 -20 -20 -20
-20 -20 -20 -20 -20 -20 -20 -20 -20 -20 -20 -20 -20 -20 -20 -20 -20 -20 -20 -20 -20 -20 -20 -20 -20 -20 -20 -20 -20 -20 -20 -20 -20 -20 -20 -20 -20 -20
-20 -20 -20 -20 -20 -20 -20 -20 -20 -20 -20 -20 -20 -20 -20 -20 -20 -20 -20 -20 -20 -20 -20 -20 -20 -20 -20 -20 -20 -20 -20 -20 -20 -20 -20 -20 -20 -20
-20 -20 -20 -20 -20 -20 -20 -20 -20 -20 -20 -20 -20 -20 -20 -20 -20 -20 -20 -20 -20 -20 -20 -20 -20 -20 -20 -20 -20 -20 -20 -20 -20 -20 -20 -20 -20 -20
-20 -20 -20 -20 -20 -20 -20 -20 -20 -20 -20 -20 -20 -20 -20 -20 -19 -20 -20 -20 -20 -20 -20 -20 -20 -20 -20 -20 -20 -20 -20 -20 -20 -20 -20 -20 -20 -20
-20 -20 -20 -20 -20 -20 -20 -20 -20 -20 -20 -20 -20 -20 -20 -20 -20 -20 -20 -20 -20 -20 -20 -20 -20 -20 -20 -20 -20 -20 -20 -20 -20 -20 -20 -20 -20 -20
-20 -20 -20 -20 -20 -20 -20 -20 -20 -20 -20 -20 -20 -20 -20 -20 -20 -20 -20 -12 -11 -20 -20 -20 -20 -15 -17 -19 -16 -20 -20 -20 -20 -20 -20 -20 -11 -20
-20 -20 -20 -20 -20 -20 -20 -20 -20 -20 -20 -20 -20 -20 -20 -20 -20 -20 -20 -20 -20 -20 -20 -20 -20 -20 -20 -5 -20 -20 -20 -20 -20 -20 -20 -20 3 -2
-20 -20 -20 -20 -20 -20 -20 -20 -20 -20 -20 -20 -20 -20 -20 -20 -20 -20 -20 -20 -20 -20 -20 -20 -20 -20 -20 -20 -20 -20 -20 -20 -20 -20 -20 -20 -20 -20

GFSNE_prec_radar_090.txt.gz
Reflectivity
-20 -20 -20 -20 -20 -20 -20 -20 -20 -0 -3 -20 -20 -20 -19 -14 -20 -19 -20 -20 -11 -12 3 9 -4 -12 -5 8 -4 -6 -14 -9 -20 -20 -20 -19 -20 1
-20 -20 -20 -20 -20 -19 -1 -13 -10 -20 -2 -20 -20 -4 -19 -20 -20 -20 -20 -9 -20 -20 -1 0 -3 -5 9 7 -16 -20 -20 -20 -20 -20 -20 -14 1 2
-20 -20 -20 -20 -20 3 -11 -15 -9 -20 -20 -20 -20 -20 -20 -20 -20 -20 -20 -20 -20 -2 -6 7 3 -8 -20 -20 -20 -20 -20 -20 -20 -20 -20 10 14 10
-10 -10 -20 -20 -20 -17 1 -20 -18 -20 -20 -20 -20 -20 -20 -2 -20 -20 -20 -20 -20 14 5 -19 -20 -20 -20 -20 -20 -20 -20 -20 -20 -20 -20 -20 -20 -20
-20 -20 -20 -20 -20 -20 -20 -20 -20 -20 -12 -20 -20 -20 -20 -20 -20 -20 -20 -20 -20 -20 -20 -20 -20 -20 -20 -20 -20 -20 -20 -20 -20 -20 -20 -20 -20 -20
-20 -20 -20 -20 -11 -20 -20 -20 -20 -20 -20 -20 -20 -20 -20 -20 -20 -20 -20 -20 -20 -20 -20 -20 -20 -20 -20 -20 -20 -20 -20 -20 -20 -20 -20 -20 -7 -10
-20 -20 -20 -20 -20 -20 -20 -20 -20 -20 -20 -20 -20 -20 -20 -20 -20 -20 -20 -20 -20 -20 -20 -20 -20 -20 -20 -20 -20 -20 -20 -20 -20 -20 -20 -11 2 8
3 -20 -20 -20 -20 -20 -20 -20 -20 -20 -20 -20 -20 -20 -20 -20 -20 -20 -20 -20 -20 -20 -20 -20 -20 -20 -20 -20 -20 -20 -20 -20 -20 -20 -20 3 -3 2
-20 -20 -20 -20 -20 -20 -20 -20 -20 -20 -20 -20 -20 -20 -20 -20 -20 -20 -20 -20 -20 -20 -20 -20 -20 -20 -20 -20 -20 -20 -20 -20 -20 -20 -20 -20 -20 -14
-20 -20 -20 -20 -20 -20 -20 -20 -20 -20 -20 -20 -20 -20 -20 -20 -20 -20 -20 -20 -20 -20 -20 -20 -20 -20 -20 -20 -20 -20 -20 -20 -20 -20 -20 -20 -20 -20
-20 -20 -20 -20 -20 -20 -20 -20 -20 -20 -20 -20 -20 -20 -20 -20 -20 -20 -20 -20 -20 -20 -20 -20 -20 -20 -20 -20 -20 -20 -20 -20 -20 -20 -20 -20 -20 -20
-20 -20 -20 -20 -20 -20 -20 -20 -20 -20 -20 -20 -20 -20 -20 -20 -20 -20 -20 -20 -20 -20 -20 -20 -20 -20 -20 -20 -20 -20 -20 -20 -20 -20 -20 -20 -20 -20
-20 -20 -20 -20 -20 -20 -20 -20 -20 -20 -20 -20 -20 -20 -20 -20 -20 -20 -20 -20 -20 -20 -20 -20 -20 -20 -20 -20 -20 -20 -20 -20 -20 -20 -20 -20 -20 -15
-20 -20 -20 -20 -20 -20 -20 -20 -20 -20 -20 -20 -20 -20 -20 -20 -20 -20 -20 -20 -20 -20 -20 -20 -19 -20 -20 -20 -20 -20 -20 -20 -20 -20 -20 -20 -20 -20
-20 -20 -20 -20 -20 -20 -20 -20 -20 -20 -20 -20 -20 -20 -20 -20 -20 -20 -20 -20 -20 -20 -20 -2 -20 -20 -20 -20 -20 -20 -20 -20 -20 -20 -20 -20 -20 -20
-20 -20 -20 -20 -20 -20 -20 -20 -20 -20 -20 -20 -20 -20 -20 -20 -20 -20 -20 -20 -20 -20 -20 -20 -20 -20 -20 -20 -20 -20 -20 -20 -20 -20 -20 -20 -20 -20
-20 -20 -20 -20 -20 -20 -20 -20 -20 -20 -20 -20 -20 -20 -20 -20 -20 -20 -20 -20 -20 -20 -20 -20 -20 -20 -20 -20 -20 -20 -20 -20 -20 -20 -20 -20 -20 -20
-20 -20 -20 -20 -20 -20 -20 -20 -20 -20 -20 -20 -20 -20 -20 -20 -20 -20 -20 -20 -20 -20 -20 -20 -20 -20 -20 -20 -20 -20 -20 -20 -20 -20 -20 -20 -20 -20
-20 -20 -20 -20 -20 -20 -20 -20 -20 -20 -20 -20 -20 -20 -20 -20 -12 -20 -20 -20 -20 -20 -20 -20 -20 -20 -20 -20 -20 -20 -20 -20 -20 -20 -20 -20 -20 -20
-20 -20 -20 -20 -20 -20 -20 -20 -20 -20 -20 -20 -20 -20 -20 -20 -20 -20 -20 -20 -20 -20 -20 -20 -20 -20 -20 -20 -20 -20 -20 -20 -20 -20 -20 -20 -20 -20
-20 -20 -20 -20 -20 -20 -20 -20 -20 -20 -20 -20 -20 -20 -20 -20 -20 -20 -20 -11 -4 -20 -20 -20 -20 -20 -20 -9 -20 -20 -20 -20 -20 -20 -20 -20 -20 -20
-20 -20 -20 -20 -20 -20 -20 -20 -20 -20 -20 -20 -20 -20 -20 -20 -20 -20 -20 -20 -20 -20 -20 -20 -20 -20 -20 -18 -20 -20 -20 -20 -20 -20 -20 -20 -20 -20
-20 -20 -20 -20 -20 -20 -20 -20 -20 -20 -20 -20 -20 -20 -20 -20 -20 -20 -20 -20 -20 -20 -20 -20 -20 -20 -20 -20 -20 -20 -20 -20 -20 -20 -20 -20 -20 -20

GFSNE_prec_radar_093.txt.gz
Reflectivity
-20 -20 -20 -20 -20 -20 -20 -20 -19 18 -20 -20 -10 -20 -20 -20 -20 -19 -20 8 -20 -5 -20 -20 -20 -20 10 -9 -17 -20 -20 -20 -20 -20 -20 -20 -10 -1
-20 -20 -19 -20 -20 -20 -20 -20 -20 -20 -20 -10 -20 2 -20 -20 -3 -20 -20 7 -15 -20 -16 -9 -16 -17 -17 0 -10 -20 -20 -20 -20 -20 -20 -20 -20 3
-20 -20 -20 -19 -20 -20 -20 -20 -20 -20 -20 -20 -20 -20 -20 -20 -20 -20 -20 -20 -20 -17 -20 -20 -17 8 -2 -20 -20 -20 -20 -20 -20 -20 -20 -20 -12 1
-20 -17 4 0 7 -13 -20 -20 -20 -20 -20 -20 -20 -20 -20 -20 -20 -20 -20 -20 -20 -12 -9 -15 -20 -20 -20 -20 -20 -20 -20 -20 -20 -20 -20 -20 -6 -20
-20 -20 -20 -20 -20 -20 -20 -20 -20 -20 -20 -20 -20 -20 -20 -20 -20 -18 -20 -20 -20 -20 -20 -20 -20 -20 -20 -20 -20 -20 -20 -20 -20 -20 -20 -20 -20 -20
-20 -20 -20 -20 -20 -20 -20 -20 -20 -20 -20 -20 -20 -20 -20 -20 -20 -20 -20 -20 -20 -20 -20 -20 -20 -20 -20 -20 -20 -20 -20 -20 -20 -20 -20 -20 -7 -18
-20 -20 -20 1 -7 -20 -20 -20 -20 -20 -20 -20 -20 -20 -20 -20 -20 -20 -20 -20 -20 -20 -20 -20 -20 -20 -20 -20 -20 -20 -20 -20 -20 -20 -20 -20 -11 9
-20 -20 -20 -20 -15 -20 -20 -20 -20 -20 -20 -20 -20 -20 -20 -20 -20 -20 -20 -20 -20 -20 -20 -20 -20 -20 -20 -20 -20 -20 -20 -20 -20 -20 -20 -20 -20 -20
-20 -20 -20 -20 -20 -20 -20 -20 -20 -20 -20 -20 -20 -20 -20 -20 -20 -20 -20 -20 -20 -20 -20 -20 -20 -20 -20 -20 -20 -20 -20 -20 -20 -20 -20 -20 -20 -20
-20 -20 -20 -20 -20 -20 -20 -20 -20 -20 -20 -20 -20 -20 -20 -20 -20 -20 -20 -20 -20 -20 -20 -20 -20 -20 -20 -20 -20 -20 -20 -16 -20 -20 -20 -20 -20 -20
-20 -20 -20 -20 -20 -20 -20 -20 -20 -20 -20 -20 -20 -20 -20 -20 -20 -20 -20 -20 -20 -20 -20 -20 -20 -20 -20 -20 -20 -20 -20 -20 -20 -20 -20 -20 -20 -20
-20 -20 -20 -20 -20 -20 -20 -20 -20 -20 -20 -20 -20 -20 -20 -20 -20 -20 -20 -20 -20 -20 -20 -20 -20 -20 -20 -20 -20 -20 -20 -20 -20 -20 -20 -20 -20 -20
-20 -20 -20 -20 -20 -20 -20 -20 -20 -20 -20 -20 -20 -20 -20 -20 -20 -20 -20 -20 -20 -20 -20 1 -9 -20 -20 -20 -20 -20 -20 -20 -20 -20 -20 -20 -20 -20
-20 -20 -20 -20 -20 -20 -20 -20 -20 -20 -20 -20 -20 -20 -20 -20 -20 -20 -20 -20 -18 -2 -18 -12 3 1 -0 -10 -20 -20 -20 -20 -20 -20 -20 -20 -20 -20
-20 -20 -20 -20 -20 -20 -20 -20 -20 -20 -20 -20 -20 -20 -20 -20 -20 -20 -20 -20 -20 -2 -2 1 4 1 -3 -4 -20 -20 -20 -20 -20 -20 -20 -20 -20 -20
-20 -20 -20 -20 -20 -20 -20 -20 -20 -20 -20 -20 -20 -20 -20 -20 -18 -20 -20 -5 -11 -20 -20 -20 -20 -20 -20 -20 -20 -20 -20 -20 -20 -20 -20 -20 -20 -20
-20 -20 -20 -20 -20 -20 -20 -20 -20 -20 -20 -20 -20 -20 -20 -20 -20 -1 -20 -12 -6 -17 -20 -20 -20 -20 -20 -20 -20 -20 -20 -20 -20 -20 -20 -20 -20 -20
-20 -20 -20 -20 -20 -20 -20 -20 -20 -20 -20 -20 -20 -20 -20 -20 -6 -20 -18 -1 -2 -20 -20 -20 -20 -20 -20 -20 -20 -20 -20 -20 -20 -20 -20 -20 -20 -20
-20 -20 -20 -20 -20 -20 -20 -20 -20 -20 -20 -20 -20 -20 -20 -20 -12 -19 -3 -2 -5 -20 -20 -20 -20 -20 -20 -20 -20 -20 -20 -20 -20 -20 -20 -20 -20 -20
-20 -20 -20 -20 -20 -20 -20 -20 -20 -20 -20 -20 -20 -20 -20 -20 -20 -20 -20 -9 -20 -20 -20 -20 -20 -20 -20 -20 -17 -20 -20 -20 -20 -20 -20 -20 -20 -20
-20 -20 -20 -20 -20 -20 -20 -20 -20 -20 -20 -20 -20 -20 -20 -20 -20 -20 -20 -12 -6 -8 -17 -20 -20 -20 -19 -20 -20 -20 -20 -20 -20 -6 -1 -8 -15 -10
-20 -20 -20 -20 -20 -20 -20 -20 -20 -20 -20 -20 -20 -20 -20 -20 -20 -20 -20 -20 -20 -20 -20 -20 -20 -20 -20 -20 -20 -20 -20 -20 -20 -20 -20 -19 -1 -2
-20 -20 -20 -20 -20 -20 -20 -20 -20 -20 -20 -20 -20 -20 -20 -20 -20 -20 -20 -20 -20 -20 -20 -20 -20 -20 -20 -20 -20 -20 -20 -20 -20 -20 -20 6 -6 -20

GFSNE_prec_radar_096.txt.gz
Reflectivity
-18 -20 -20 -20 -20 -20 -20 -20 -14 -6 -19 -20 -13 -20 -20 -20 -20 -20 -20 -19 -20 -14 -20 -6 -19 -20 4 -20 -1 -7 -19 -5 -17 -20 -20 -20 -20 -20
7 1 -20 -20 -20 -20 -20 -20 -20 -10 7 -20 -20 -20 -20 -20 9 -20 -20 1 2 -20 -11 -20 -20 -20 -20 1 -18 -10 -20 -20 -20 -20 -20 -20 -20 -20
-20 -10 -20 -20 -20 -20 -20 -20 -20 -20 -20 -20 -20 -20 -20 -20 -20 -20 -20 -20 -20 -18 -11 -20 -20 -20 -20 -7 -20 -20 -20 -20 -20 -20 -20 -20 -9 1
-20 -5 21 -20 -20 -20 -20 -20 -20 -20 -20 -20 -20 -20 -20 -20 -20 -20 -20 -20 -20 -20 -20 -20 -20 -20 -20 -20 -20 -20 -20 -20 -20 -20 -20 -20 -13 -19
-11 4 -8 -8 -20 -18 -18 -20 -20 -20 -20 -20 -20 -20 -20 -20 -20 -20 -20 -20 -20 -20 -20 -20 -20 -20 -20 -20 -20 -20 -20 -20 -20 -20 -20 -20 -20 -20
-9 -9 -20 -20 -20 -20 -20 -20 -20 -20 -20 -20 -20 -20 -20 -20 -20 -20 -20 -20 -20 -20 -20 -20 -20 -20 -20 -20 -20 -20 -20 -20 -20 -20 -20 -20 -18 -20
-20 -20 -20 -20 -20 -20 -20 -20 -20 -20 -20 -20 -20 -20 -20 -20 -20 -20 -20 -20 -20 -20 -20 -20 -20 -20 -20 -20 -20 -20 -20 -20 -20 -20 -20 -20 -20 -20
-20 -20 -20 -19 -10 -20 -20 -20 -20 -20 -20 -20 -20 -20 -20 -20 -20 -20 -20 -20 -20 -20 -20 -20 -20 -20 -20 -20 -20 -20 -20 -20 -20 -20 -20 -20 -20 -20
-20 -20 -20 -20 -20 -20 -20 -20 -20 -20 -20 -20 -20 -20 -20 -20 -20 -20 -20 -20 -20 -20 -20 -20 -20 -20 -20 -20 -20 -20 -20 -20 -20 -20 -20 -20 -20 -20
-20 -20 -20 -20 -20 -20 -20 -20 -20 -20 -20 -20 -20 -20 -20 -20 -20 -20 -20 -20 -20 -20 -20 -20 -20 -20 -20 -20 -20 -20 -20 -20 -20 -20 -20 -20 -20 -20
-20 -20 -20 -20 -20 -20 -20 -20 -20 -20 -20 -20 -20 -20 -20 -20 -20 -20 -20 -20 -20 -20 -20 -20 -20 -20 -20 -20 -20 -20 -20 -20 -20 -20 -20 -20 -20 -20
-20 -20 -20 -20 -20 -20 -20 -20 -20 -20 -20 -20 -20 -20 -20 -20 -20 -20 -20 -20 -20 -20 -20 -20 -20 -20 -20 -20 -20 -20 -20 -20 -20 -20 -20 -20 -20 -20
-20 -20 -20 -20 -20 -20 -20 -20 -20 -20 -20 -20 -20 -20 -20 -20 -20 -20 -20 -20 -20 -16 -20 -12 -18 -11 -12 -20 -20 -20 -20 -20 -20 -20 -20 -20 -20 -20
-20 -20 -20 -20 -20 -20 -20 -20 -20 -20 -20 -20 -20 -20 -20 -20 -20 -20 -20 -20 -13 -13 -13 -12 -2 -0 -6 -7 -20 -20 -20 -20 -20 -20 -20 -20 -20 -20
-20 -20 -20 -20 -20 -20 -20 -20 -20 -20 -20 -20 -20 -20 -20 -20 -20 -13 -16 -20 -5 -9 -0 -18 1 -0 -1 -2 -20 -20 -19 -20 -20 -20 -20 -20 -20 -20
-20 -20 -20 -20 -20 -20 -20 -20 -20 -20 -20 -20 -20 -20 -20 -5 -20 -20 -9 -20 -5 -7 -1 -4 -20 -20 -5 -18 -17 -20 -20 -6 -20 -3 -0 -18 -20 -20
-20 -20 -20 -20 -20 -20 -20 -20 -20 -20 -20 -20 -20 -20 -20 -20 -14 -20 -20 -10 -10 -18 -20 -20 -14 -7 -19 -12 -2 -20 -20 -11 -3 -3 -10 -10 -20 -20
-20 -20 -20 -20 -20 -20 -20 -20 -20 -20 -20 -20 -20 -20 -20 -20 -20 -20 -20 -14 -1 -20 -20 -20 -20 -15 -20 -20 -17 -20 -20 -20 -18 -3 -0 -2 -20 -20
-20 -20 -20 -20 -20 -20 -20 -20 -20 -20 -20 -20 -20 -20 -20 -20 -20 -20 -7 -20 -20 -20 -18 -20 -20 -12 -17 -20 -20 -20 -4 -20 2 4 -3 2 0 -20
-20 -20 -20 -20 -20 -20 -20 -20 -20 -20 -20 -20 -20 -20 -20 -20 -20 -20 -20 -20 -20 -20 -20 -20 -17 -3 -7 -20 -13 -20 -20 -20 -20 -16 -7 -8 -8 -20
-20 -20 -20 -20 -20 -20 -20 -20 -20 -20 -20 -20 -20 -20 -20 -20 -20 -20 -20 -20 -20 -20 -20 -20 -20 -20 -20 -1 -10 -20 -20 -20 -20 1 -10 5 3 -14
-20 -20 -20 -20 -20 -20 -20 -20 -20 -20 -20 -20 -20 -20 -20 -20 -20 -20 -20 -20 -20 -20 -20 -20 -20 -20 -16 -3 -20 -20 -19 -20 -20 -20 -20 -19 3 -15
-20 -20 -20 -20 -20 -20 -20 -20 -20 -20 -20 -20 -20 -20 -20 -20 -20 -20 -20 -20 -20 -20 -20 -20 -20 -20 -20 -4 -19 -20 -19 -20 -20 -20 -20 -20 -20 -20

GFSNE_prec_radar_099.txt.gz
Reflectivity
19 0 -20 -19 -20 -20 -20 -20 -20 -20 -20 -20 -20 -20 -20 -20 -20 -20 -20 8 -20 -20 -8 -20 -20 -15 -4 -6 -19 -1 -20 -1 -17 -2 -20 -20 -20 -20
-15 -13 -20 5 -8 -12 -20 -20 -20 -20 -20 -20 -20 -20 -20 -20 -19 -17 -20 6 -20 -20 -19 -20 -20 -20 -6 -20 -20 -20 -10 -17 -20 -20 -20 -20 -20 -20
-20 6 -20 -19 10 -12 19 -20 -20 -20 -20 -20 -20 -20 -20 -20 -20 -20 -9 -20 -20 -20 -20 -20 -20 -20 -20 -20 -20 -20 -20 -20 -20 -20 -20 -20 -20 -20
-20 -8 -16 -2 11 -5 -20 -20 -20 -20 -20 -20 -20 -20 -20 -20 -20 -20 -20 -20 -20 -20 -20 -20 -20 -20 -20 -20 -20 -20 -20 -20 -20 -20 -20 -20 -20 -20
-17 9 -14 -20 -7 23 12 -20 -20 -20 -20 -20 -20 -20 -20 -20 -20 -20 -20 -20 -20 -20 -20 -20 -20 -20 -20 -20 -20 -20 -20 -20 -20 -20 -20 -20 -20 -20
-20 -2 -20 -16 -14 -8 -20 -20 -20 -20 -20 -20 -20 -20 -20 -20 -20 -20 -20 -20 -20 -20 -20 -20 -20 -20 -20 -20 -20 -20 -20 -20 -20 -20 -20 -20 -20 -20
-20 -19 -17 -1 18 -6 -20 -20 -20 -20 -20 -20 -20 -20 -20 -20 -20 -20 -20 -20 -20 -20 -20 -20 -20 -20 -20 -20 -20 -20 -20 -20 -20 -20 -20 -20 -20 -20
3 -3 5 11 7 8 -20 -13 -20 -20 -20 -20 -20 -20 -20 -20 -20 -20 -20 -20 -20 -20 -20 -20 -20 -20 -20 -20 -20 -20 -20 -20 -20 -20 -20 -20 -20 -20
6 5 -16 -20 4 -20 -4 -19 -20 -20 -20 -20 -20 -20 -20 -20 -20 -20 -20 -20 -20 -20 -20 -20 -20 -20 -20 -20 -20 -20 -20 -20 -20 -20 -20 -20 -20 -20
-6 -13 -20 -20 -9 -20 -18 -16 -20 -20 -20 -20 -20 -20 -20 -20 -20 -20 -20 -20 -20 -20 -20 -20 -20 -20 -20 -20 -20 -20 -20 -20 -20 -20 -20 -20 -20 -20
7 -6 8 -18 -20 -20 -20 -20 -20 -20 -20 -20 -20 -20 -20 -20 -20 -20 -20 -20 -20 -20 -20 -20 -20 -20 -20 -20 -20 -20 -20 -20 -20 -20 -20 -20 -20 -20
-20 -20 -18 -20 -20 -20 -20 -20 -20 -20 -20 -20 -20 -20 -20 -20 -20 -20 -20 -20 -20 -20 -20 -20 -20 -20 -20 -20 -20 -20 -20 -20 -20 -20 -20 -20 -20 -20
-20 -20 -20 -20 -20 -20 -20 -20 -20 -20 -20 -20 -20 -20 -20 -20 -20 -20 -20 -20 -20 -20 -20 -20 -20 -20 -20 -20 -20 -20 -20 -20 -20 -20 -20 -20 -20 -20
-20 -20 -20 -20 -20 -20 -20 -20 -20 -20 -20 -20 -20 -20 -20 -20 -20 -20 -20 -20 -20 -20 -20 -20 -11 -7 -17 -20 -20 -20 -20 -20 -20 -20 -20 -20 -20 -20
-20 -20 -20 -20 -20 -20 -20 -20 -20 -20 -20 -20 -20 -20 -20 -20 -20 -20 -20 -20 -20 -20 -20 -5 -16 -16 0 -20 -20 -20 -10 -20 -20 -20 -20 -20 -20 -20
-20 -20 -20 -20 -20 -20 -20 -20 -20 -20 -20 -20 -20 -20 -20 -20 -17 -13 -18 -20 -20 -20 -18 -20 -20 -5 -20 -20 -17 -20 -20 -20 -20 -20 -20 -20 -20 -20
-11 -20 -20 -20 -20 -20 -20 -20 -20 -20 -20 -20 -20 -20 -20 -20 -20 -18 -9 -20 -12 -20 -20 -12 -20 -20 -20 -20 -20 -20 -20 -20 -20 -12 -13 -20 -20 -20
-20 -20 -20 -20 -20 -20 -20 -20 -20 -20 -20 -20 -20 -20 -20 -20 -20 -20 -20 -10 -20 -20 -20 -17 -11 -20 -20 -20 -20 -20 -20 -20 -20 -17 -20 -2 -20 -20
-20 -20 -20 -20 -20 -20 -20 -20 -20 -20 -20 -20 -20 -20 -20 -20 -20 -20 -20 -20 -20 -20 -20 -19 -20 -20 -20 -20 -20 -20 -20 -20 -20 -20 -20 -18 -13 -20
-20 -20 -20 -20 -20 -20 -20 -20 -20 -20 -20 -20 -20 -20 -20 -20 -20 -20 -20 -20 -20 -20 -20 -20 -20 -20 -20 -20 -20 -20 -20 -20 -20 -20 -20 -20 -20 -20
-20 -20 -20 -20 -20 -20 -20 -20 -20 -20 -20 -20 -20 -20 -20 -20 -20 -20 -20 -20 -20 -20 -20 -20 -20 -20 -20 -20 -20 -20 -20 -20 -20 -18 -20 -20 -19 -20
-20 -20 -20 -20 -20 -20 -20 -20 -20 -20 -20 -20 -20 -20 -20 -20 -20 -20 -20 -20 -20 -20 -20 -20 -20 -20 -20 -12 -20 -20 -20 -20 -20 -20 -18 -19 -18 -20
-20 -20 -20 -20 -20 -20 -20 -20 -20 -20 -20 -20 -20 -20 -20 -20 -20 -20 -20 -20 -20 -20 -20 -20 -20 -20 -20 -20 -20 -20 -20 -20 -20 -20 -20 -20 -20 -20

GFSNE_prec_radar_102.txt.gz
Reflectivity
0 -18 -16 -4 -17 14 -4 8 1 -3 -20 -20 -20 -20 -20 -20 -20 -20 -20 6 -20 -20 -6 13 4 10 9 -3 -2 8 -20 -19 -20 -5 -17 -20 -20 -20
-1 6 4 9 6 14 3 -20 -20 15 -9 -20 -20 -20 -20 -20 -20 -20 -15 -20 -20 -15 -19 -9 -20 -19 -20 -20 -20 -20 -20 -20 -20 -20 -20 -20 -20 -20
-20 -20 -8 -5 -15 9 5 -1 16 -20 -1 -20 -20 -20 -20 -20 -20 -20 -8 -20 -18 -11 -20 -20 -20 -20 -20 -19 -20 -20 -20 -20 -20 -20 -20 -20 -20 -20
-7 -6 -13 1 -7 -19 7 -20 -18 6 11 -20 -20 -20 -20 -20 -20 -20 -20 -20 -20 -20 -20 -20 -20 -20 -20 -20 -20 -20 -20 -20 -20 -20 -20 -20 -20 -20
3 -19 -20 -19 -20 -20 -10 -3 1 -10 -2 -11 -20 -20 -20 -20 -20 -20 -20 -20 -20 -20 -20 -20 -20 -20 -20 -20 -20 -20 -20 -20 -20 -20 -20 -20 -20 -20
-20 -20 -20 -20 12 -6 -20 -19 8 13 -17 -20 -20 -20 -20 -20 -20 -20 -20 -20 -20 -20 -20 -20 -20 -20 -20 -20 -20 -20 -20 -20 -20 -20 -20 -20 -20 -20
-20 -20 -20 -16 -1 1 3 -6 -20 -20 -20 -20 -20 -20 -20 -20 -20 -20 -20 -20 -20 -20 -20 -20 -20 -20 -20 -20 -20 -20 -20 -20 -20 -20 -20 -20 -20 -20
-20 -20 -19 11 -20 4 3 11 7 -20 -20 -20 -20 -20 -20 -20 -20 -20 -20 -20 -20 -20 -20 -20 -20 -20 -20 -20 -20 -20 -20 -20 -20 -20 -20 -20 -20 -20
-15 -4 7 10 11 -5 16 11 12 3 -20 -20 -20 -20 -20 -20 -20 -20 -20 -20 -20 -20 -20 -20 -20 -20 -20 -20 -20 -20 -20 -20 -20 -20 -20 -20 -20 -20
3 13 14 9 5 9 2 -5 -20 -20 -20 -20 -20 -20 -20 -20 -20 -20 -20 -20 -20 -20 -20 -20 -20 -20 -20 -20 -20 -20 -20 -20 -20 -20 -20 -20 -20 -20
13 16 4 9 18 14 -16 -20 -20 -20 -20 -20 -20 -20 -20 -20 -20 -20 -20 -20 -20 -20 -20 -20 -20 -20 -20 -20 -20 -20 -20 -20 -20 -20 -20 -20 -20 -20
13 15 15 12 14 3 -20 -20 -20 -20 -20 -20 -20 -20 -20 -20 -20 -20 -20 -20 -20 -20 -20 -20 -20 -20 -20 -20 -20 -20 -20 -20 -20 -20 -20 -20 -20 -20
19 11 -4 12 -15 -20 -20 -20 -20 -20 -20 -20 -20 -20 -20 -20 -20 -20 -20 -20 -20 -20 -20 -20 -20 -20 -20 -20 -20 -20 -20 -20 -20 -20 -20 -20 -20 -20
-15 -20 -20 -20 -20 -20 -20 -20 -20 -20 -20 -20 -20 -20 -20 -20 -20 -20 -20 -20 -20 -20 -20 -20 -20 -20 -20 -20 -20 -20 -20 -20 -20 -20 -20 -20 -20 -20
-20 -20 -20 -20 -20 -20 -20 -15 -14 -20 -20 -20 -20 -20 -20 -20 -20 -20 -20 -20 -20 -20 -20 -20 -20 -20 -20 -20 -20 -20 -20 -20 -20 -20 -20 -20 -20 -20
-14 -20 -20 -20 -20 -20 -20 -20 -20 -20 -20 -20 -20 -20 -20 -20 -20 -20 -20 -20 -20 -20 -20 -18 -20 -20 -20 -20 -20 -20 -20 -9 -20 -20 -20 -20 -20 -20
-6 -20 -20 -20 -20 -20 -20 -20 -20 -20 -20 -20 -20 -20 -20 -20 -20 -20 -20 -20 -20 -20 -20 -20 -20 -20 -20 -20 -20 -20 -20 -20 -20 -20 -20 -20 -20 -20
-20 -20 -9 4 -1 -10 -20 -20 -20 -20 -20 -20 -20 -20 -20 -20 -20 -20 -20 -20 -20 -20 -20 -20 -16 -20 -20 -20 -20 -20 -20 -20 -20 -20 -20 -20 -20 -20
-16 -20 -20 -20 -20 -20 -20 -20 -20 -20 -20 -20 -20 -20 -20 -20 -20 -20 -20 -20 -20 -20 -20 -20 -20 -20 -20 -20 -20 -20 -20 -20 -20 -20 -20 -20 -20 -20
7 -12 -20 -20 -19 -20 -20 -20 -20 -20 -20 -20 -20 -20 -20 -20 -20 -20 -20 -20 -20 -20 -20 -20 -20 -20 -20 -20 -20 -20 -20 -20 -20 -20 -20 -20 -20 -20
-6 -20 -10 -20 -20 -20 -20 -20 -20 -20 -20 -20 -20 -20 -20 -20 -20 -20 -20 -20 -20 -20 -20 -20 -20 -20 -20 -20 -20 -20 -20 -20 -20 -20 -20 -20 -20 -20
7 -10 -20 -20 -18 -20 -20 -20 -20 -20 -20 -20 -20 -20 -20 -20 -20 -20 -20 -20 -20 -20 -20 -20 -20 -20 -20 -20 -20 -20 -20 -20 -20 -20 -20 -20 -20 -20
12 -12 -18 -7 -8 -20 -20 -20 -20 -20 -20 -20 -20 -20 -20 -20 -20 -20 -20 -20 -20 -20 -20 -20 -20 -20 -20 -20 -20 -20 -20 -20 -20 -20 -20 -20 -20 -20

GFSNE_prec_radar_105.txt.gz
Reflectivity
28 22 22 15 6 -13 1 -15 -3 5 0 -6 -20 2 -18 -20 -20 -20 -20 -20 9 4 3 10 4 11 11 -1 -19 8 -20 -5 -16 -20 -20 -20 -20 -20
9 -11 -18 -20 -20 -19 1 5 8 8 -5 -20 -18 -18 -17 -20 -20 -20 -20 -20 -11 -11 3 5 10 11 2 -20 -20 -20 -20 -20 -20 -20 -20 -20 -20 -20
-18 -2 -0 -9 -5 -12 -8 -13 -11 -14 12 11 -7 12 -10 -17 -20 -20 -20 -20 -5 -4 -15 -4 -9 -20 -20 -20 -20 -20 -20 -20 -20 -20 -20 -20 -20 -20
8 -2 -11 -2 -17 -20 -19 -1 1 -4 5 -1 17 -20 -20 -20 -20 -20 -20 -20 -20 -20 -20 -20 -20 -20 -20 -20 -20 -20 -20 -20 -20 -20 -20 -20 -20 -20
8 6 12 7 -20 -15 -17 -15 -6 -6 -14 -6 -2 -14 -20 -20 -20 -20 -20 -20 -20 -20 -20 -20 -20 -20 -20 -20 -20 -20 -20 -20 -20 -20 -20 -20 -20 -20
-20 -20 -17 -10 -2 -18 -1 -11 -20 -20 -20 -20 12 16 -19 -20 -20 -20 -20 -20 -20 -20 -20 -20 -20 -20 -20 -20 -20 -20 -20 -20 -20 -20 -20 -20 -20 -20
-20 -20 -20 -20 -20 -20 -20 -20 7 -20 -13 17 10 -17 -20 -20 -20 -20 -20 -20 -20 -20 -20 -20 -20 -20 -20 -20 -20 -20 -20 -20 -20 -20 -20 -20 -20 -20
-20 -20 -20 -20 -19 5 12 13 7 3 -4 -8 -20 -20 -20 -20 -20 -20 -20 -20 -20 -20 -20 -20 -20 -20 -20 -20 -20 -20 -20 -20 -20 -20 -20 -20 -20 -20
-20 -20 -20 -20 4 -8 15 14 13 12 10 -15 -20 -20 -20 -20 -20 -18 -20 -20 -20 -20 -20 -20 -20 -20 -20 -20 -20 -20 -20 -20 -20 -20 -20 -20 -20 -20
-20 -20 -20 6 2 -0 2 -3 -6 -14 4 -15 -20 -20 -20 -20 -20 -20 -20 -20 -20 -20 -20 -20 -20 -20 -20 -20 -20 -20 -20 -20 -20 -20 -20 -20 -20 -20
-13 -11 -1 9 18 6 -19 -20 -5 10 13 -2 -20 -20 -20 -20 -20 -20 -20 -20 -20 -20 -20 -20 -20 -20 -20 -20 -20 -20 -20 -20 -20 -20 -20 -20 -20 -20
-19 3 13 4 16 10 -13 9 9 -16 -20 -20 -20 -20 -20 -20 -20 -20 -20 -20 -20 -20 -20 -20 -20 -20 -20 -20 -20 -20 -20 -20 -20 -20 -20 -20 -20 -20
-10 9 9 18 15 12 8 -11 -20 -20 -20 -20 -20 -20 -20 -15 -20 -20 -20 -20 -20 -20 -20 -20 -20 -20 -20 -20 -20 -20 -20 -20 -20 -20 -20 -20 -20 -20
-19 9 14 11 7 5 -10 -20 -20 -20 -20 -20 -20 -20 -20 -20 -20 -20 -20 -20 -20 -20 -20 -20 -20 -20 -20 -20 -20 -20 -20 -20 -20 -20 -20 -20 -20 -20
-20 5 8 3 -15 -20 -20 -20 -20 -20 -20 -20 -20 -5 -20 -20 -20 -20 -20 -20 -20 -20 -20 -20 -20 -20 -20 -20 -20 -20 -20 -20 -20 -20 -20 -20 -20 -20
-16 -7 -8 -17 -20 -20 -20 -20 -20 -20 -5 5 -20 -20 -20 -20 -20 -20 -20 -20 -20 -20 -20 -20 -20 -20 -20 -20 -20 -20 -20 -20 -20 -20 -20 -20 -20 -20
-20 -20 -20 -20 -20 -20 -20 -20 -3 -20 -20 -20 -20 -20 -20 -20 -20 -20 -20 -20 -20 -20 -20 -20 -20 -20 -20 -20 -20 -20 -20 -20 -20 -20 -20 -20 -20 -20
-20 -12 -19 1 4 -8 -8 -13 -11 -20 -20 -20 -20 -20 -20 -20 -20 -20 -20 -20 -20 -20 -20 -20 -20 -20 -20 -20 -13 -20 -20 -20 -20 -20 -20 -20 -20 -20
-5 -20 -20 -20 7 7 1 -8 -9 -10 -7 -20 -20 -20 -20 -20 -20 -20 -20 -20 -20 -20 -20 -20 -20 -20 -20 -20 -20 -20 -20 -20 -20 -20 -20 -20 -20 -20
-16 1 5 5 -16 1 6 -5 -16 -19 -20 -20 -20 -20 -20 -20 -20 -20 -20 -20 -20 -20 -20 -20 -20 -20 -20 -20 -20 -20 -20 -20 -20 -20 -20 -20 -20 -20
11 11 5 1 -3 -12 -20 -20 -20 -20 -20 -20 -20 -20 -20 -20 -20 -20 -20 -20 -20 -20 -20 -20 -20 -20 -20 -20 -19 -11 -20 -20 -20 -20 -20 -20 -20 -20
20 10 10 -19 -19 -20 -20 -20 -13 -15 -20 -20 -20 -20 -20 -20 -20 -20 -20 -20 -20 -20 -20 -20 -20 -20 -20 -20 -16 -11 -20 -20 -20 -20 -20 -20 -20 -20
22 24 21 7 -7 -5 -0 -2 -5 -18 -20 -20 -20 -20 -20 -20 -20 -20 -20 -20 -20 -20 -20 -20 -20 -20 -20 -20 -20 -15 -20 -20 -20 -20 -20 -20 -20 -20

GFSNE_prec_radar_108.txt.gz
Reflectivity
26 34 28 14 23 29 27 24 21 -20 -12 3 5 3 -1 -20 -20 -14 -20 -20 -18 -20 2 10 0 9 2 18 25 -8 13 -11 -15 -5 -20 -20 -20 -20
1 10 20 14 29 29 28 17 15 15 -7 -12 -17 10 -19 -20 15 -0 -20 -20 5 -10 -20 -20 7 -14 -1 4 -6 -16 -20 -20 -18 -20 -20 -20 -20 -20
15 16 18 -1 -19 -18 -16 -19 -20 -20 5 -20 -20 -20 -20 -13 8 1 -20 -20 -16 -19 -20 -5 -20 -20 -3 -1 -16 -20 -20 -20 -20 -20 -20 -20 -20 -20
15 20 13 8 -7 4 -4 -4 -4 -20 -16 -13 -2 4 3 -7 19 -17 -9 -19 -20 -19 8 -19 -20 -20 -20 -20 -20 -20 -20 -20 -20 -20 -20 -20 -20 -20
-20 -20 -20 -15 -1 -2 -13 9 0 12 5 5 6 17 2 -7 -9 6 -14 -20 -20 -17 -20 -20 -20 -20 -20 -20 -20 -20 -20 -20 -20 -20 -20 -20 -20 -20
-20 -20 -20 -20 -20 -20 -20 1 -20 10 6 15 -6 15 -10 14 8 11 -5 -20 -20 -20 -20 -20 -20 -20 -20 -20 -20 -20 -20 -20 -20 -20 -20 -20 -20 -20
-20 -20 -20 -10 -3 2 -20 -20 -9 -17 -4 1 14 16 0 -8 19 -19 -20 -20 -20 -20 -20 -20 -20 -20 -20 -20 -20 -20 -20 -20 -20 -20 -20 -20 -20 -20
-20 -20 -20 -20 -20 -20 2 5 8 -17 -1 0 -10 5 2 13 -4 -20 -20 -20 -20 -20 -20 -20 -20 -20 -20 -20 -20 -20 -20 -20 -20 -20 -20 -20 -20 -20
-20 -20 -20 -20 0 -20 -0 -6 6 13 11 13 8 11 -15 -6 -20 -20 -20 -20 -20 -20 -20 -20 -20 -20 -20 -20 -20 -20 -20 -20 -20 -20 -20 -20 -20 -20
-20 -20 -20 -20 -0 -4 -0 -1 -0 7 5 -13 -10 -6 5 -20 -20 -20 -20 -20 -20 -20 -20 -20 -20 -20 -20 -20 -20 -20 -20 -20 -20 -20 -20 -20 -20 -20
-20 -20 -20 -20 13 11 -2 -20 3 13 15 12 13 11 4 -20 -20 -20 -20 -20 -20 -20 -20 -20 -20 -20 -20 -20 -20 -20 -20 -20 -20 -17 -20 -20 -20 -20
-20 -20 -20 -6 9 9 -0 -6 12 10 12 11 -7 2 -17 -20 -20 -20 -20 -20 -20 -20 -20 -20 -20 -20 -20 -20 -20 -20 -20 -20 -20 -20 -20 -20 -20 -20
-20 -20 -20 3 3 10 8 -9 9 1 8 -11 -20 -20 -20 -20 -20 -20 -20 -20 -20 -20 -20 -20 -20 -20 -20 -20 -20 -20 -20 -20 -20 -20 -20 -20 -20 -20
-20 -20 -20 7 12 9 7 9 4 6 -19 -20 -20 -20 -18 -20 -20 -20 -20 -20 -20 -20 -20 -20 -20 -20 -20 -20 -20 -20 -20 -20 -20 -20 -20 -20 -20 -20
-20 -20 -20 -10 -5 -1 3 8 -9 -20 -20 -20 -20 -20 -20 -20 -20 -17 -20 -20 -20 -20 -20 -20 -20 -20 -20 -20 -20 -20 -20 -20 -20 -20 -20 -20 -20 -20
7 -20 -11 -20 -20 -19 -15 -20 -20 -20 -20 -20 -20 -20 -20 -20 -19 -5 -20 -20 -20 -20 -20 -20 -20 -20 -20 -20 -20 -20 -20 -20 -20 -20 -20 -20 -20 -20
0 -20 -19 -15 -18 -20 -20 -20 -20 -20 -20 -20 -14 3 1 -11 -3 -20 -20 -20 -20 -20 -20 -20 -20 -20 -20 -20 -20 -20 -20 -20 -20 -20 -20 -20 -20 -20
-16 -20 -20 -18 -18 -20 -20 -20 -20 -20 -20 -9 4 -13 3 -2 -20 -20 -20 -20 -20 -20 -20 -20 -20 -17 -20 -20 -20 -20 -20 -20 -20 -20 -20 -20 -20 -20
-13 -20 -20 -20 -4 -20 -12 -20 -20 -20 -20 6 -15 -9 -15 -20 -20 -20 -20 -20 -20 -20 -20 -20 -20 -20 -3 -16 -20 -20 -20 -20 -20 -20 -20 -20 -20 -20
-16 -20 -20 -20 -20 -20 -20 -20 -13 -20 -20 -20 -20 -20 -20 -20 -20 -20 -20 -20 -20 -20 -20 -20 -20 -20 -3 -20 -20 -20 -20 -20 -20 -20 -20 -20 -20 -20
-13 -20 -14 -10 -20 -20 -20 -20 -3 -16 -12 -0 -11 -18 -20 -20 -20 -20 -20 -20 -20 -20 -20 -20 -20 -18 -11 -20 -20 -20 -20 -20 -20 -20 -20 -20 -20 -20
-1 5 -15 4 -11 -20 -20 -20 -20 -19 -3 5 -3 -16 -20 -20 -20 -20 -20 -20 -20 -20 -20 -20 -20 -20 -15 -20 -20 -20 -20 -20 -20 -20 -20 -20 -20 -20
-2 -5 9 10 4 -19 -20 -20 -20 -20 -20 -20 -20 -20 -20 -20 -20 -20 -20 -20 -20 -20 -17 -20 -20 -20 -20 -20 -20 -13 -17 -20 -20 -20 -20 -20 -20 -20

GFSNE_prec_radar_111.txt.gz
Reflectivity
-12 6 21 30 34 35 35 29 24 26 20 0 -16 5 3 -4 -20 -20 -20 -1 -19 1 10 8 -20 9 -19 8 -20 7 6 3 10 -8 -20 -20 -20 -20
8 10 -3 19 28 31 32 25 27 30 17 3 3 3 -17 -18 -13 -19 -14 19 1 -4 10 11 -17 -20 11 6 4 6 20 14 -20 -20 -20 -20 -20 -20
-20 -15 -13 -20 -12 13 9 18 25 20 14 2 -12 -8 4 -1 -8 -0 9 -1 0 -9 -8 -16 -20 4 -2 -12 -0 -6 -20 -20 -20 -20 -20 -20 -20 -20
-20 -12 19 -4 -17 -9 12 6 -10 -10 -4 -7 -7 8 -19 -15 -11 -19 -20 -16 13 -20 -20 -20 -6 7 -20 -20 -20 -20 -20 -20 -20 -20 -20 -20 -20 -20
-19 -20 -20 -20 -20 -20 -20 -20 -20 -19 -20 -13 -20 -17 -20 -6 0 -12 -18 -20 -18 19 5 -20 -19 -20 -20 -20 -20 -20 -20 -20 -20 -20 -20 -20 -20 -20
-20 -20 -20 -20 -20 -20 -20 -20 -12 -8 -2 -20 -18 -9 -15 12 4 17 -15 15 -17 -4 -20 -20 -20 -20 -20 -17 -20 -20 -20 -20 -20 -20 -20 -20 -20 -20
-20 -20 -20 -20 -20 -20 -20 -20 -20 -20 -20 -18 7 -17 -19 -20 5 21 -5 -19 12 -20 -20 -20 -20 -20 -20 -20 -20 -20 -20 -20 -20 -20 -20 -20 -20 -20
-20 -20 -20 -20 -20 -20 -20 -20 -13 -20 -8 -12 -13 -2 17 -8 -19 -7 3 11 2 -20 -20 -20 -20 -20 -20 -20 -20 -20 -20 -20 -20 -20 -20 -20 -20 -20
-20 -20 -20 -20 -20 -20 -20 8 11 12 9 -3 21 12 8 -0 5 0 1 -14 -20 -20 -20 -20 -20 -20 -20 -20 -20 -20 -20 -20 -20 -20 -20 -20 -20 -20
-20 -20 -20 -20 -20 -20 -20 -20 -3 7 7 8 2 -12 9 17 5 -3 2 -10 -20 -20 -20 -20 -20 -20 -20 -20 -20 -20 -20 -20 -20 -20 -20 -20 -20 -20
-20 -20 -20 -20 -20 -20 -20 -20 3 7 11 10 11 15 13 11 8 -11 -20 -20 -20 -20 -20 -20 -20 -20 -20 -20 -20 -20 -20 -20 -20 -20 -20 -18 -20 -16
-20 -20 -20 -20 0 -20 -20 -20 -20 0 5 7 9 6 6 5 13 -2 -20 -20 -20 -20 -20 -20 -18 -5 -20 -20 -20 -20 -20 -20 -20 7 7 -20 -20 -20
-20 -20 -20 -14 3 -6 -20 -10 -15 -12 5 1 8 15 11 -18 -9 -20 -20 -14 -20 -20 -15 -20 -6 -20 -20 -20 -20 -20 -20 -20 -20 -20 -20 -20 -20 -20
-20 -20 -20 5 0 -17 -20 -7 3 3 -11 -16 -3 -11 -20 -20 -20 -20 -19 -1 -20 -20 -6 -8 -20 -20 -20 -20 -20 -20 -20 -20 -20 -20 -20 -20 -20 -20
-20 -20 -6 5 -19 -20 -20 -20 -16 -19 -20 -20 -20 -20 -20 -20 -20 -20 -20 -20 -13 -0 5 -20 -20 -20 -20 -20 -20 -20 -20 -20 -20 -20 -20 -20 -20 -20
-1 -7 0 -11 -20 -20 -20 -20 -20 -20 -20 -20 -20 -20 -20 -20 -20 -20 -20 -19 -12 4 -19 -20 -20 -20 -20 -20 -20 -20 -20 -20 -20 -20 -20 -20 -20 -20
4 -20 -20 -20 -20 -20 -20 -20 -20 -20 -20 -20 -20 -20 -20 -20 -20 -20 -7 0 0 -15 -20 -20 -20 -20 -20 -20 -20 -20 -20 -20 -20 -20 -20 -20 -20 -20
4 -20 -20 -20 -20 -20 -20 -20 -20 -20 -20 -20 -20 -20 -20 -20 -20 -20 -20 -4 -20 -20 -20 -20 -20 -20 -20 -20 -20 -20 -20 -20 -20 -20 -20 -20 -20 -20
5 -20 -20 -20 -20 -20 -20 -20 -20 -20 -20 -12 -20 -20 -20 -20 -20 -3 5 -11 -20 -20 -20 -20 -20 -20 -20 -20 -20 -20 -20 -20 -20 -20 -20 -20 -5 -2
-12 -20 -20 -20 -20 -20 -20 -20 -20 -20 -20 -18 -20 -20 -16 -19 -20 -3 -19 -20 -20 -20 -20 -20 -20 -20 -20 -20 -20 -20 -20 -20 -20 -20 -20 -20 -20 -19
-20 -3 -16 -20 -20 -20 -20 -20 -20 -20 -20 -20 -14 -20 -20 -20 0 -13 -20 -20 -20 -18 -4 -20 -20 -20 -20 -20 -20 -20 -20 -20 -20 -20 -20 -20 -20 -20
-9 -7 -3 -14 -20 -20 -20 -20 -19 -20 -14 5 -4 -18 -20 -20 -20 -20 -20 -20 -20 -18 -17 -20 -20 -20 -20 -20 -20 -20 -20 -20 -20 -20 -20 -20 -20 -20
-3 -2 -3 1 -9 -10 -17 -20 -18 -10 -2 -10 5 -4 -4 -0 -16 -6 -20 -20 -19 -20 -4 -17 -20 -20 -20 -20 -20 -20 -20 -20 -20 -20 -20 -20 -20 -20

GFSNE_prec_radar_114.txt.gz
Reflectivity
-20 6 25 -13 15 21 24 22 25 34 29 29 24 26 14 -17 5 -15 -20 -20 -16 -19 -10 -19 -8 -1 -18 10 9 -1 -20 -8 -20 -20 -3 -20 -20 -20
-19 -2 2 10 16 17 26 15 19 29 27 23 23 22 29 18 6 -13 -3 -15 -1 6 2 -20 -8 -1 -10 9 -9 -5 -13 19 9 9 -20 -20 -20 -20
-20 -20 -20 -20 -15 -17 -13 -8 8 10 7 13 16 11 14 12 -19 -3 -13 4 5 7 7 -20 -20 7 -20 -8 8 8 9 7 -1 -14 -20 -20 -20 -20
-20 -20 -20 -20 -20 -20 -20 -20 -20 -20 -7 -0 1 -7 6 -20 9 -20 -20 -5 -20 11 -4 8 -20 -20 -20 3 11 -0 8 3 -20 -20 -20 -20 -20 -20
-20 -20 -20 -20 -20 -20 -20 -20 -20 -20 -20 12 -4 -10 -18 -14 -20 -12 -20 -20 -20 6 1 -20 -20 -15 -20 -20 -20 -20 -20 -20 -20 -20 -20 -20 -20 -20
-20 -20 -20 -20 -20 -20 -20 -20 -20 -20 -20 -20 -11 12 -20 -20 -7 -2 -14 -8 -20 -17 6 -20 -20 -20 -20 -20 -20 -20 -20 -20 -20 -20 -20 -20 -20 -20
-20 -20 -20 -20 -20 -20 -20 -20 -20 -20 -20 -20 10 8 -11 5 -18 -20 -20 -20 6 5 -14 -20 -5 -20 -20 -20 -20 -20 -20 -20 -20 -20 -20 -20 -20 -20
-20 -20 -20 -20 -20 -20 -20 -20 -20 -20 -20 -20 -11 12 8 11 3 3 7 -20 -20 -7 -20 -20 -20 -20 -20 -20 -20 -20 -20 -20 -20 -20 -20 -20 -20 -20
-20 -20 -20 -20 -20 -20 -20 -20 -20 -20 -20 -20 -20 -14 10 15 1 -16 -11 21 21 5 -8 -11 -20 -20 -20 -20 -20 -20 -20 -19 -20 -20 -20 -20 -20 -20
-20 -20 -20 -20 -20 -20 -20 -20 -20 -20 -20 -20 -2 1 6 9 14 13 15 16 7 1 12 -13 -20 -20 -20 -20 -20 -16 -10 -20 -20 -20 -20 -20 -20 -20
-20 -20 -20 -20 -20 -20 -20 -20 -20 -20 -20 -5 8 8 3 13 14 8 15 13 11 5 -20 -20 -20 -20 -20 -20 -16 -17 -13 -20 -20 -20 -20 -20 -20 -20
-20 -20 -20 -20 -20 -20 -20 -20 -20 -20 -20 -20 -15 3 3 1 8 4 -7 -20 -14 -20 -20 -20 -20 -20 -20 -10 -14 4 -20 -20 -20 -20 -20 -15 10 -19
-20 -20 -16 -13 -20 -4 -16 -20 -12 -20 -20 -20 -13 -7 -11 -12 -7 -5 -2 -4 -20 -20 -20 -20 -3 -17 -12 -7 1 -20 -20 -20 -20 -20 -20 -20 -20 -20
-20 -20 -12 -10 -20 -1 5 3 -14 -20 -20 -20 -14 -7 -8 -2 -3 -13 -15 -20 -20 -20 -20 -20 -10 -15 -0 -13 -20 -20 -20 -20 -20 -20 -20 -20 -20 -20
-20 -8 -20 -16 6 1 2 -20 -20 -20 -20 -20 -20 -20 -20 -20 -20 -20 -20 -20 -20 -20 -1 2 -20 -18 -5 -20 -20 -20 -20 -20 -20 -20 -20 -20 -20 -20
-7 -9 -2 0 2 5 -12 -20 -20 -20 -20 -20 -20 -20 -20 -20 -20 -20 -20 -20 -20 -20 -20 -20 -20 -15 -20 -20 -20 -20 -20 -20 -20 -20 -20 -20 -20 -20
-1 -20 -20 -20 -20 -20 -20 -20 -20 -20 -20 -20 -20 -20 -20 -20 -20 -20 -20 -20 -20 -20 -20 -20 -20 -20 -20 -20 -20 -20 -20 -20 -20 -20 -20 -20 -20 -20
-20 -20 -20 -20 -20 -20 -20 -20 -20 -20 -20 -20 -20 -20 -20 -20 -20 -20 -20 -20 -20 -20 -20 -19 -20 -20 -20 -20 -20 -20 -20 -20 -20 -20 -20 -20 -20 -20
-20 -20 -20 -20 -20 -20 -20 -20 -20 -20 -20 -20 -20 -20 -20 -20 -20 -20 -20 -20 -20 -20 -20 -20 -20 -20 -20 -20 -20 -20 -20 -20 -20 -20 -20 -20 -20 -20
-20 -20 -20 -20 -20 -17 -20 -20 -20 -20 -20 -20 -20 -20 -20 -20 -20 -20 -20 -20 -20 -18 -20 -20 -20 -20 -20 -20 -16 -20 -20 -20 -20 -20 -20 -20 -20 -20
-20 -15 -11 -12 -20 -19 -20 -20 -20 -20 -20 -20 -20 -20 -20 -20 -20 -20 -20 -20 -20 -20 -20 -20 -20 -20 -14 -15 -19 -20 -20 -20 -20 -18 -20 -20 -20 -20
-20 -20 -14 -12 -13 -20 -19 -20 -20 -20 -20 -20 -20 -8 1 -20 -20 -20 -20 -6 -10 -20 -20 -20 -20 -20 -20 -3 -12 -20 -20 -20 -20 -20 -20 -20 -20 -20
-5 -7 -10 -7 -11 -4 -14 -15 -19 -20 -20 -20 -20 -20 -20 -15 -20 -20 -20 -20 -13 -4 -10 -20 -20 -20 -15 2 -1 -16 -20 -20 -20 -20 -20 -20 -20 -20

GFSNE_prec_radar_117.txt.gz
Reflectivity
-20 -20 -20 -20 -17 21 -3 -18 14 18 -16 2 16 15 15 23 20 20 18 12 10 -2 -20 -19 9 12 3 4 12 -6 -20 -20 -19 10 5 3 -13 -20
-20 -4 -20 -19 -11 8 -20 -10 -9 0 -12 -19 -11 -12 -20 -12 -9 -18 -16 -0 7 3 19 -19 8 6 -5 -20 -1 5 -20 -12 -16 3 -17 -15 -20 -20
-1 -11 -20 -20 -19 -18 -19 -16 -14 -15 -7 -20 -20 -20 -20 -4 11 -5 13 17 5 10 -16 7 -15 12 -20 -20 -19 -9 8 -1 18 23 12 8 -20 -20
-20 -20 -19 -20 -20 -20 -20 -20 -20 -20 3 -20 -20 -20 -20 -3 -20 -20 -20 -20 -20 1 -18 6 -16 3 -17 -20 -20 -20 -5 -19 2 4 -19 -20 -20 -20
-20 -20 -20 -20 -20 -20 -20 -20 -20 -20 -20 3 3 -20 -20 -15 -20 -15 -18 -20 -20 12 -20 -20 -5 -20 -20 -20 -20 -20 -20 -20 -8 -20 -20 -20 -20 -20
-20 -20 -20 -20 -20 -20 -20 -20 -20 -20 -20 -20 -20 -20 -20 -20 -14 -20 -20 -20 -17 -20 19 -15 8 9 -9 -20 -20 -20 -20 -20 -20 -20 -20 -20 -20 -20
-20 -20 -20 -20 -20 -20 -20 -20 -20 -20 -20 -20 -20 -20 -20 -20 -19 -20 -12 -19 -20 -20 -16 9 26 -19 -5 -20 -20 -20 -20 -20 -20 -20 -20 -20 -20 -20
-20 -20 -20 -20 -20 -20 -20 -20 -20 -20 -20 -20 -20 -20 -20 -20 -6 14 7 18 27 1 -20 11 -4 8 -19 -20 -20 -20 -20 -20 -20 -20 -20 -20 -20 -20
-20 -20 -20 -20 -20 -20 -20 -20 -20 -20 -20 -20 -20 -20 -20 -17 1 9 8 13 6 1 -7 14 8 -4 -0 -4 -20 -20 -20 -20 -20 -20 -20 -20 -20 -20
-20 -20 -20 -20 -20 -20 -20 -20 -20 -20 -20 -20 -20 -20 -20 -10 -4 9 12 14 12 13 14 10 1 1 2 -20 -20 -20 -20 -20 -20 -20 -19 -20 -17 -20
-20 -20 -20 -20 -20 -20 -20 -20 -20 -20 -20 -20 -20 -20 -8 -19 -4 1 10 9 12 16 10 -0 -8 -7 -20 -20 -20 -20 -20 -20 -20 2 -20 -20 -20 -20
-20 -20 -20 -20 -20 -20 -20 -20 -20 -20 -20 -20 -20 -20 -20 -14 1 -17 -18 -0 12 5 -6 -4 -5 -18 -20 -20 -20 -20 -20 -20 3 -11 -20 -20 -20 -20
-20 -20 -20 -20 -20 -20 -1 -20 -13 -17 -20 -20 -20 -20 -18 -20 -20 -20 -6 -8 -16 -5 3 -1 -20 -20 -20 -20 -15 -15 -19 -10 -13 -20 -20 -18 0 -16
-20 -20 -20 -20 -16 -11 -15 -3 -5 -20 -20 -20 -20 -20 -20 -20 -20 -18 -16 -16 -15 -12 -16 -20 -20 -20 -20 -17 -3 -1 -11 -20 -20 -20 -20 -20 -11 -8
-20 -20 -20 2 -8 -0 -4 -3 -11 -20 -20 -20 -20 -20 -20 -20 -20 -20 -20 -20 -20 -20 -20 -20 -20 -20 -20 -20 -20 -10 -20 -20 -20 -20 -20 -20 -20 -20
-20 -8 -2 -7 8 5 -3 -3 -20 -20 -20 -20 -20 -20 -20 -20 -20 -20 -20 -20 -20 -20 -20 -20 -20 -20 -20 -20 -20 -20 -20 -20 -20 -20 -20 -20 -20 -20
-20 -20 -20 -20 -20 -20 -20 -20 -20 -20 -20 -20 -20 -20 -20 -20 -20 -20 -20 -20 -20 -20 -20 -20 -20 -20 -20 -20 -20 -20 -20 -20 -20 -20 -20 -20 -20 -20
-20 -20 -20 -20 -20 -20 -20 -20 -20 -20 -20 -20 -20 -20 -20 -20 -20 -20 -20 -20 -20 -20 -20 -20 -20 -20 -20 -20 -20 -20 -20 -20 -20 -20 -20 -20 -20 -20
-20 -17 -20 -20 -12 -20 -20 -20 -20 -20 -20 -20 -20 -20 -20 -20 -20 -20 -20 -20 -20 -20 -20 -20 -20 -20 -20 -20 -20 -20 -20 -20 -20 -20 -20 -20 -20 -20
-16 -20 -20 -20 -11 -6 -20 -20 -20 -20 -20 -20 -20 -20 -20 -20 -20 -20 -20 -20 -20 -20 -20 -20 -20 -20 -20 -19 3 -11 -20 -20 -17 -4 -20 -20 -20 -20
-13 -17 -20 -19 -16 -17 -13 -20 -20 -20 -20 -20 -20 -20 -20 -20 -20 -20 -20 -20 -20 -20 -15 -8 -20 -20 -20 -10 -18 -20 -20 -20 -15 -5 -20 -20 -20 -20
-15 -13 -20 -18 -15 -17 -20 -20 -20 -15 -20 -20 -20 -20 -20 -20 -20 -20 -20 -20 -20 -20 -20 -10 -20 -20 -20 -19 -7 -15 -20 -20 -14 -10 -20 -20 -20 -20
18 0 -14 -12 -2 -12 -5 -20 -20 8 1 -20 -18 -20 -15 -20 -20 -20 -20 -20 -20 -20 -20 -15 -19 -20 -7 4 -1 -9 -20 -20 -20 -20 2 9 -3 -20

GFSNE_prec_radar_120.txt.gz
Reflectivity
24 30 -2 3 10 10 -11 -20 -0 -14 -5 -19 -20 5 -11 -20 -20 -20 -20 -20 -20 2 -20 -20 6 3 7 -1 13 -20 -1 -20 -20 -20 12 -20 -20 -0
37 -1 -12 -20 -20 -20 -20 -20 -19 3 18 -20 -20 -20 -20 -20 -20 -20 -20 -20 -18 -2 11 -4 -19 1 -10 -20 -19 -18 -13 -20 -20 -20 2 21 16 -20
-11 -20 -20 -20 -20 -20 -20 -20 -20 -17 -18 -20 -20 -20 -20 -20 -20 -20 -20 -14 -19 -20 -20 2 -7 -8 6 -10 -3 12 9 -4 -20 -20 -7 -10 -3 -9
-20 -20 -20 -20 -20 -20 -20 -20 -20 -20 -20 -20 -20 -20 -20 -20 -20 -20 -20 -20 -20 9 1 -12 1 -19 15 -5 17 6 12 12 11 3 6 14 10 -20
-20 -20 -20 -20 -20 -20 -20 -20 -20 -20 -20 -20 -20 -12 -20 -20 -20 -20 -20 -20 -20 9 15 -15 12 21 -14 20 -20 -20 -20 -20 -10 3 -3 -16 -20 -20
-20 -20 -20 -20 -20 -20 -20 -20 -20 -20 -20 -20 -20 -20 -20 -20 -20 -20 -20 -20 -20 -20 5 5 -8 15 8 14 18 -4 -19 -20 -20 0 9 9 -9 -20
-20 -20 -20 -20 -20 -20 -20 -20 -20 -20 -20 -20 -19 -4 -20 -8 -20 -20 -20 -20 -20 -3 -12 4 -7 -11 -2 23 4 -7 -12 -18 -20 5 11 -20 -20 -20
-20 -20 -20 -20 -20 -20 -20 -20 -20 -20 -20 -20 -14 -20 -20 -20 -20 -20 -20 -20 -1 -2 -4 -13 9 4 7 21 11 6 -15 -10 -20 -20 -20 -20 -20 -20
-20 -20 -20 -20 -20 -20 -20 -20 -20 -20 -20 -20 -20 -15 -20 -20 -20 -20 -6 8 -3 1 0 10 20 -14 -7 2 9 4 -3 -15 -20 -20 -20 -20 -20 -20
-20 -20 -20 -20 -20 -20 -20 -20 -20 -20 -20 -20 -20 -20 -20 -20 -20 -20 -20 1 5 2 4 2 -13 10 20 3 7 -0 -3 -12 -20 -20 -20 -19 -20 -4
-20 -20 -20 -20 -20 -20 -20 -20 -20 -20 -20 -20 -20 -20 -20 -20 -20 -20 -20 -18 -1 8 11 20 12 22 -1 -12 -14 16 -20 -20 -20 -20 -20 -8 -7 1
-20 -20 -20 -20 -20 -20 -20 -20 -20 -20 -20 -20 -20 -20 -20 -20 -20 -20 -20 -20 -18 1 7 9 4 -5 -20 -20 -17 -20 -20 -20 -20 -20 2 12 -1 -18
-20 -20 -20 -20 -20 -20 -20 -20 -20 -20 -20 -20 -20 -20 -20 -20 -20 -20 -20 -20 -20 -20 -6 -15 -20 -20 -17 -20 -20 -20 -11 -20 -20 -6 -3 -15 -4 0
-20 -20 -20 -20 -20 -20 -20 -20 -20 -20 -20 -20 -20 -20 -20 -20 -20 -20 -20 -20 -20 -20 -20 -5 1 -17 -20 -20 -20 -20 -20 -19 -1 -18 -5 -15 1 0
-20 -20 -20 -20 -20 -20 -20 -20 -20 -20 -20 -20 -20 -20 -20 -20 -20 -20 -20 -20 -20 -20 -20 -20 -8 -19 -20 -20 -20 -20 -20 -20 -20 -18 -20 -20 -20 -20
6 -18 -20 -20 -20 -20 -20 -20 -20 -20 -20 -20 -20 -20 -20 -20 -20 -20 -20 -20 -20 -20 -20 -20 -20 -20 -20 -20 -20 -20 -20 -20 -20 -20 -20 -20 -20 -20
-20 -20 -20 -20 -20 -20 -20 -20 -20 -20 -20 -20 -20 -20 -20 -20 -20 -20 -20 -20 -20 -20 -20 -20 -20 -20 -20 -20 -20 -20 -20 -20 -20 -20 -20 -20 -20 -20
-20 -20 -20 -20 -20 -20 -20 -20 -20 -2 -14 -20 -20 -20 -20 -20 -20 -20 -20 -20 -20 -20 -20 -20 -20 -20 -20 -20 -20 -20 -20 -20 -20 -20 -20 -20 -20 -20
-19 -20 -20 -20 -20 -20 -20 -20 -20 -18 -20 -20 -20 -20 -20 -20 -20 -20 -20 -20 -20 -20 -20 -20 -20 -20 -20 -20 -20 -20 -20 -20 -20 -20 -20 -20 -20 -20
-20 -20 -20 -14 -11 -20 -11 -3 10 -4 -17 -20 -20 -20 -20 -20 -20 -20 -20 -20 -20 -20 -20 -20 -20 -20 -20 -11 -16 0 -17 -20 -20 -20 -20 -20 -20 -20
-20 -13 -16 -7 -20 -12 -12 -11 -5 -12 -15 -20 -20 -20 -20 -20 -20 -20 -20 -20 -20 -20 -20 -20 -20 -20 -20 -20 -15 -4 -20 -20 -20 -20 -20 -20 -20 -20
-20 -20 -10 21 0 -7 -5 -12 -15 4 -5 3 -11 -18 -8 -15 -19 -20 -20 -20 -20 -20 -20 -20 -20 -20 -11 -3 -15 -14 -20 -20 -20 -20 -20 -20 -20 -20
-20 -18 -5 15 15 16 12 0 -5 -14 -20 -15 -11 -8 -17 -18 -20 -20 -20 -20 -20 -20 -20 -20 -20 -20 -9 3 -6 -13 -9 -20 -20 -9 -20 -19 -20 -20

GFSNE_prec_radar_123.txt.gz
Reflectivity
19 15 -3 -14 1 12 -1 -20 -16 -13 -17 -20 -20 -20 -20 -20 -20 -20 -20 -20 -20 -11 0 -16 -17 -20 -20 -20 3 -20 -20 -20 -20 -7 15 15 14 10
26 32 2 29 8 -15 -20 -20 -20 -14 -1 -20 -20 -20 -19 -20 -9 -19 -9 -16 -20 2 1 6 -4 -20 -18 8 -5 -20 -3 -13 -9 -20 -14 -20 -4 8
31 15 7 -8 -5 -20 -20 -20 -20 -20 -20 -20 -20 -20 -20 -20 -20 -19 -12 -20 -10 4 13 -19 4 -4 5 -16 7 0 -6 -12 -3 -20 -17 -7 24 19
20 11 15 1 -20 -20 -20 -20 -20 -20 -20 -20 -20 -20 -20 -20 -20 -20 -20 -20 -20 -2 -5 4 10 10 6 12 0 16 9 8 -3 10 -10 -14 18 13
13 -12 -20 -20 -20 -20 -20 -20 -20 -20 -20 -20 -20 -20 -20 -20 -20 -20 -20 -20 -20 -0 14 -9 13 13 -16 11 21 14 -2 3 6 0 -11 -15 -16 14
-20 -20 -20 -20 -20 -20 -20 -20 -20 -20 -20 -20 -20 -20 -20 -7 -20 -20 -20 -20 -20 -20 -2 10 16 6 10 15 -0 -2 2 14 11 -20 -20 -19 7 10
-20 -10 -18 -20 -20 -20 -20 -20 -20 -20 -20 -20 -20 -20 -14 -20 -20 -20 -14 -20 -20 -20 -20 -3 -4 4 -10 17 15 3 16 7 -18 -20 -20 -10 5 9
-20 -20 -20 -20 -20 -20 -20 -20 -20 -20 -20 -20 -19 -20 -20 -20 -20 -20 -20 -20 -20 -20 -20 -20 -15 -7 -3 -2 19 22 24 15 -20 -20 -4 -1 5 -11
-20 -20 -20 -20 -20 -20 -20 -20 -20 -20 -20 -20 -20 -20 -20 -20 -20 -20 -20 -20 -20 -20 -17 -10 3 18 20 23 11 17 10 15 1 -20 -20 -20 -20 -20
-20 -20 -20 -20 -20 -20 -20 -20 -20 -20 -20 -20 -20 -20 -20 -20 -20 -20 -19 -20 -20 -20 -5 -1 -13 16 8 9 20 21 22 -1 -14 -0 -20 -20 -20 -20
-20 -20 -20 -20 -20 -20 -20 -20 -20 -20 -20 -20 -20 -20 -20 -20 -20 -20 -20 -20 -20 -20 -20 0 -2 -1 21 5 24 16 12 -8 -18 3 -20 -20 -16 -10
-20 -20 -20 -20 -20 -20 -20 -20 -20 -20 -20 -20 -20 -20 -20 -20 -20 -20 -20 -20 -20 -20 -20 -16 2 13 16 8 -8 -12 -20 -15 -17 -20 -20 -20 0 -16
-20 -20 -20 -20 -20 -20 -20 -20 -20 -20 -20 -20 -20 -20 -20 -20 -20 -20 -20 -20 -20 -20 -20 -18 -20 -20 -20 -20 -20 -20 -20 -20 -20 -20 -20 -20 -13 -8
-20 -20 -20 -20 -20 -20 -20 -20 -20 -20 -20 -20 -20 -20 -20 -20 -20 -20 -20 -20 -20 -20 -20 -20 -19 -19 -19 -20 -20 -20 -20 -20 -20 -20 -20 -20 -3 -0
-20 -20 -20 -20 -20 -20 -20 -20 -20 -20 -20 -20 -20 -20 -20 -20 -20 -20 -20 -20 -20 -20 -20 -20 -20 -20 -20 -20 -20 -20 -20 -20 -20 -20 -20 -20 -20 -20
3 -20 -20 -20 -20 -20 -20 -20 -20 -20 -20 -20 -20 -20 -20 -20 -20 -20 -20 -20 -20 -20 -20 -20 -20 -20 -20 -20 -20 -20 -20 -20 -20 -20 -20 -20 -20 -20
-20 -20 -20 -20 -20 -20 -20 -20 -20 -20 -20 -20 -20 -20 -20 -20 -20 -20 -20 -20 -20 -20 -20 -20 -20 -20 -20 -20 -20 -20 -20 -20 -20 -20 -20 -20 -20 -20
-20 -20 -20 -20 -20 -20 -20 -20 -20 -20 -20 -20 -20 -20 -20 -20 -20 -20 -20 -20 -20 -20 -20 -20 -20 -20 -20 -20 -20 -20 -20 -20 -20 -20 -20 -20 -20 -20
-20 -11 -14 -20 -20 -20 -20 -20 -20 -20 -20 -20 -20 -20 -20 -20 -20 -20 -20 -20 -20 -20 -20 -20 -20 -20 -20 -20 -20 -20 -20 -20 -20 -20 -20 -20 -20 -20
-19 -20 -20 -20 -20 -20 -20 -20 -20 -20 -20 -19 -20 -20 -20 -20 -20 -20 -20 -20 -20 -20 -20 -20 -20 -20 -20 -13 -13 -20 -20 -20 -20 -20 -20 -20 -20 -20
-20 -20 -20 -20 -20 -20 -18 -16 -20 -20 -9 -10 -16 -20 -20 -20 -20 -20 -20 -20 -20 -20 -20 -20 -20 -20 -20 -20 -20 -20 -20 -20 -20 -20 -20 -20 -20 -20
-20 -20 -15 -6 3 -13 1 1 -8 7 4 -7 -11 -16 -15 -20 -20 -20 -20 -20 -20 -20 -20 -20 -20 -20 -20 -20 -20 -19 -20 -20 -20 -20 -20 -20 -20 -20
-20 -20 -20 -16 -20 -20 5 7 4 -5 -4 -5 -8 -13 -15 -20 -20 -20 -20 -20 -19 -20 -20 -20 -20 -20 -20 -20 -20 -20 -20 -20 -20 -20 -12 -11 -19 -19